﻿<?xml version="1.0" encoding="UTF-8" standalone="no" ?>
<gpx xmlns="http://www.topografix.com/GPX/1/1" creator="CompeGPS" version="1.1" xmlns:xsi="http://www.w3.org/2001/XMLSchema-instance" xsi:schemaLocation="http://www.topografix.com/GPX/1/1 http://www.topografix.com/GPX/1/1/gpx.xsd http://www.garmin.com/xmlschemas/GpxExtensions/v3 http://www.garmin.com/xmlschemas/GpxExtensionsv3.xsd http://www.garmin.com/xmlschemas/TrackPointExtension/v1 http://www.garmin.com/xmlschemas/TrackPointExtensionv1.xsd" xmlns:gpxtpx="http://www.garmin.com/xmlschemas/TrackPointExtension/v1">
  <metadata>
    <link href="http://www.compegps.com">
      <text>CompeGPS TEAM, SL</text>
    </link>
    <time>2014-08-25T17:52:31Z</time>
    <bounds maxlat="42.740477" maxlon="0.360246" minlat="42.705228" minlon="0.307912"/>
  </metadata>
  <trk>
    <name>crete-batoua-lustou</name>
    <trkseg>
      <trkpt lat="42.740476" lon="0.307935">
        <ele>1385.1</ele>
        <time>2014-08-24T04:17:55Z</time>
      </trkpt>
      <trkpt lat="42.740404" lon="0.308013">
        <ele>1385.1</ele>
        <time>2014-08-24T04:18:08Z</time>
      </trkpt>
      <trkpt lat="42.740302" lon="0.308062">
        <ele>1385.7</ele>
        <time>2014-08-24T04:18:20Z</time>
      </trkpt>
      <trkpt lat="42.740248" lon="0.308197">
        <ele>1385.8</ele>
        <time>2014-08-24T04:18:32Z</time>
      </trkpt>
      <trkpt lat="42.740192" lon="0.308295">
        <ele>1385.4</ele>
        <time>2014-08-24T04:18:44Z</time>
      </trkpt>
      <trkpt lat="42.740115" lon="0.308416">
        <ele>1385.8</ele>
        <time>2014-08-24T04:18:54Z</time>
      </trkpt>
      <trkpt lat="42.740054" lon="0.308519">
        <ele>1385.8</ele>
        <time>2014-08-24T04:19:03Z</time>
      </trkpt>
      <trkpt lat="42.739961" lon="0.308623">
        <ele>1385.6</ele>
        <time>2014-08-24T04:19:11Z</time>
      </trkpt>
      <trkpt lat="42.739867" lon="0.308693">
        <ele>1385.4</ele>
        <time>2014-08-24T04:19:19Z</time>
      </trkpt>
      <trkpt lat="42.739773" lon="0.308778">
        <ele>1385.3</ele>
        <time>2014-08-24T04:19:29Z</time>
      </trkpt>
      <trkpt lat="42.739660" lon="0.308865">
        <ele>1385.3</ele>
        <time>2014-08-24T04:19:38Z</time>
      </trkpt>
      <trkpt lat="42.739548" lon="0.308889">
        <ele>1385.2</ele>
        <time>2014-08-24T04:19:47Z</time>
      </trkpt>
      <trkpt lat="42.739434" lon="0.308954">
        <ele>1385.8</ele>
        <time>2014-08-24T04:19:58Z</time>
      </trkpt>
      <trkpt lat="42.739320" lon="0.309011">
        <ele>1386.0</ele>
        <time>2014-08-24T04:20:08Z</time>
      </trkpt>
      <trkpt lat="42.739206" lon="0.309072">
        <ele>1386.4</ele>
        <time>2014-08-24T04:20:17Z</time>
      </trkpt>
      <trkpt lat="42.739116" lon="0.309143">
        <ele>1386.9</ele>
        <time>2014-08-24T04:20:26Z</time>
      </trkpt>
      <trkpt lat="42.739023" lon="0.309212">
        <ele>1387.8</ele>
        <time>2014-08-24T04:20:36Z</time>
      </trkpt>
      <trkpt lat="42.738924" lon="0.309275">
        <ele>1388.9</ele>
        <time>2014-08-24T04:20:45Z</time>
      </trkpt>
      <trkpt lat="42.738829" lon="0.309370">
        <ele>1389.8</ele>
        <time>2014-08-24T04:20:53Z</time>
      </trkpt>
      <trkpt lat="42.738740" lon="0.309439">
        <ele>1391.3</ele>
        <time>2014-08-24T04:21:03Z</time>
      </trkpt>
      <trkpt lat="42.738654" lon="0.309500">
        <ele>1392.9</ele>
        <time>2014-08-24T04:21:14Z</time>
      </trkpt>
      <trkpt lat="42.738492" lon="0.309538">
        <ele>1394.7</ele>
        <time>2014-08-24T04:21:27Z</time>
      </trkpt>
      <trkpt lat="42.738372" lon="0.309577">
        <ele>1396.2</ele>
        <time>2014-08-24T04:21:37Z</time>
      </trkpt>
      <trkpt lat="42.738252" lon="0.309585">
        <ele>1397.4</ele>
        <time>2014-08-24T04:21:47Z</time>
      </trkpt>
      <trkpt lat="42.738152" lon="0.309595">
        <ele>1399.0</ele>
        <time>2014-08-24T04:21:57Z</time>
      </trkpt>
      <trkpt lat="42.738046" lon="0.309599">
        <ele>1400.1</ele>
        <time>2014-08-24T04:22:07Z</time>
      </trkpt>
      <trkpt lat="42.737945" lon="0.309587">
        <ele>1401.1</ele>
        <time>2014-08-24T04:22:16Z</time>
      </trkpt>
      <trkpt lat="42.737843" lon="0.309594">
        <ele>1402.8</ele>
        <time>2014-08-24T04:22:26Z</time>
      </trkpt>
      <trkpt lat="42.737728" lon="0.309606">
        <ele>1404.2</ele>
        <time>2014-08-24T04:22:37Z</time>
      </trkpt>
      <trkpt lat="42.737630" lon="0.309649">
        <ele>1405.5</ele>
        <time>2014-08-24T04:22:47Z</time>
      </trkpt>
      <trkpt lat="42.737525" lon="0.309684">
        <ele>1406.7</ele>
        <time>2014-08-24T04:22:57Z</time>
      </trkpt>
      <trkpt lat="42.737423" lon="0.309751">
        <ele>1407.9</ele>
        <time>2014-08-24T04:23:06Z</time>
      </trkpt>
      <trkpt lat="42.737362" lon="0.309795">
        <ele>1409.6</ele>
        <time>2014-08-24T04:23:18Z</time>
      </trkpt>
      <trkpt lat="42.737250" lon="0.309804">
        <ele>1410.5</ele>
        <time>2014-08-24T04:23:34Z</time>
      </trkpt>
      <trkpt lat="42.737167" lon="0.309851">
        <ele>1411.4</ele>
        <time>2014-08-24T04:23:44Z</time>
      </trkpt>
      <trkpt lat="42.737081" lon="0.309916">
        <ele>1412.5</ele>
        <time>2014-08-24T04:23:54Z</time>
      </trkpt>
      <trkpt lat="42.736977" lon="0.309989">
        <ele>1414.2</ele>
        <time>2014-08-24T04:24:05Z</time>
      </trkpt>
      <trkpt lat="42.736866" lon="0.310083">
        <ele>1415.6</ele>
        <time>2014-08-24T04:24:15Z</time>
      </trkpt>
      <trkpt lat="42.736754" lon="0.310136">
        <ele>1417.1</ele>
        <time>2014-08-24T04:24:25Z</time>
      </trkpt>
      <trkpt lat="42.736655" lon="0.310145">
        <ele>1418.3</ele>
        <time>2014-08-24T04:24:34Z</time>
      </trkpt>
      <trkpt lat="42.736550" lon="0.310168">
        <ele>1419.4</ele>
        <time>2014-08-24T04:24:43Z</time>
      </trkpt>
      <trkpt lat="42.736461" lon="0.310225">
        <ele>1420.7</ele>
        <time>2014-08-24T04:24:52Z</time>
      </trkpt>
      <trkpt lat="42.736385" lon="0.310294">
        <ele>1422.2</ele>
        <time>2014-08-24T04:25:02Z</time>
      </trkpt>
      <trkpt lat="42.736240" lon="0.310301">
        <ele>1423.6</ele>
        <time>2014-08-24T04:25:12Z</time>
      </trkpt>
      <trkpt lat="42.736116" lon="0.310348">
        <ele>1425.0</ele>
        <time>2014-08-24T04:25:21Z</time>
      </trkpt>
      <trkpt lat="42.736012" lon="0.310381">
        <ele>1426.4</ele>
        <time>2014-08-24T04:25:31Z</time>
      </trkpt>
      <trkpt lat="42.735894" lon="0.310386">
        <ele>1427.7</ele>
        <time>2014-08-24T04:25:39Z</time>
      </trkpt>
      <trkpt lat="42.735801" lon="0.310425">
        <ele>1429.0</ele>
        <time>2014-08-24T04:25:48Z</time>
      </trkpt>
      <trkpt lat="42.735788" lon="0.310618">
        <ele>1431.0</ele>
        <time>2014-08-24T04:26:01Z</time>
      </trkpt>
      <trkpt lat="42.735676" lon="0.310684">
        <ele>1432.9</ele>
        <time>2014-08-24T04:26:13Z</time>
      </trkpt>
      <trkpt lat="42.735560" lon="0.310703">
        <ele>1434.3</ele>
        <time>2014-08-24T04:26:23Z</time>
      </trkpt>
      <trkpt lat="42.735465" lon="0.310709">
        <ele>1435.8</ele>
        <time>2014-08-24T04:26:33Z</time>
      </trkpt>
      <trkpt lat="42.735371" lon="0.310757">
        <ele>1437.4</ele>
        <time>2014-08-24T04:26:43Z</time>
      </trkpt>
      <trkpt lat="42.735267" lon="0.310833">
        <ele>1439.0</ele>
        <time>2014-08-24T04:26:54Z</time>
      </trkpt>
      <trkpt lat="42.735165" lon="0.310918">
        <ele>1440.5</ele>
        <time>2014-08-24T04:27:05Z</time>
      </trkpt>
      <trkpt lat="42.735077" lon="0.310981">
        <ele>1442.0</ele>
        <time>2014-08-24T04:27:16Z</time>
      </trkpt>
      <trkpt lat="42.734980" lon="0.311040">
        <ele>1443.6</ele>
        <time>2014-08-24T04:27:26Z</time>
      </trkpt>
      <trkpt lat="42.734877" lon="0.311067">
        <ele>1444.9</ele>
        <time>2014-08-24T04:27:35Z</time>
      </trkpt>
      <trkpt lat="42.734794" lon="0.311153">
        <ele>1446.2</ele>
        <time>2014-08-24T04:27:45Z</time>
      </trkpt>
      <trkpt lat="42.734720" lon="0.311250">
        <ele>1447.7</ele>
        <time>2014-08-24T04:27:56Z</time>
      </trkpt>
      <trkpt lat="42.734653" lon="0.311347">
        <ele>1449.9</ele>
        <time>2014-08-24T04:28:13Z</time>
      </trkpt>
      <trkpt lat="42.734627" lon="0.311564">
        <ele>1451.2</ele>
        <time>2014-08-24T04:28:25Z</time>
      </trkpt>
      <trkpt lat="42.734626" lon="0.311702">
        <ele>1452.8</ele>
        <time>2014-08-24T04:28:36Z</time>
      </trkpt>
      <trkpt lat="42.734572" lon="0.311817">
        <ele>1454.1</ele>
        <time>2014-08-24T04:28:46Z</time>
      </trkpt>
      <trkpt lat="42.734515" lon="0.311924">
        <ele>1455.4</ele>
        <time>2014-08-24T04:28:58Z</time>
      </trkpt>
      <trkpt lat="42.734476" lon="0.312055">
        <ele>1457.0</ele>
        <time>2014-08-24T04:29:10Z</time>
      </trkpt>
      <trkpt lat="42.734443" lon="0.312192">
        <ele>1458.7</ele>
        <time>2014-08-24T04:29:21Z</time>
      </trkpt>
      <trkpt lat="42.734479" lon="0.312312">
        <ele>1460.2</ele>
        <time>2014-08-24T04:29:30Z</time>
      </trkpt>
      <trkpt lat="42.734520" lon="0.312462">
        <ele>1461.4</ele>
        <time>2014-08-24T04:29:41Z</time>
      </trkpt>
      <trkpt lat="42.734573" lon="0.312604">
        <ele>1462.8</ele>
        <time>2014-08-24T04:29:51Z</time>
      </trkpt>
      <trkpt lat="42.734609" lon="0.312777">
        <ele>1463.8</ele>
        <time>2014-08-24T04:30:01Z</time>
      </trkpt>
      <trkpt lat="42.734612" lon="0.312918">
        <ele>1464.7</ele>
        <time>2014-08-24T04:30:10Z</time>
      </trkpt>
      <trkpt lat="42.734565" lon="0.313003">
        <ele>1465.8</ele>
        <time>2014-08-24T04:30:21Z</time>
      </trkpt>
      <trkpt lat="42.734542" lon="0.313156">
        <ele>1466.8</ele>
        <time>2014-08-24T04:30:31Z</time>
      </trkpt>
      <trkpt lat="42.734672" lon="0.313423">
        <ele>1467.4</ele>
        <time>2014-08-24T04:30:39Z</time>
      </trkpt>
      <trkpt lat="42.734709" lon="0.313602">
        <ele>1468.0</ele>
        <time>2014-08-24T04:30:48Z</time>
      </trkpt>
      <trkpt lat="42.734689" lon="0.313733">
        <ele>1468.6</ele>
        <time>2014-08-24T04:30:57Z</time>
      </trkpt>
      <trkpt lat="42.734604" lon="0.313820">
        <ele>1469.6</ele>
        <time>2014-08-24T04:31:07Z</time>
      </trkpt>
      <trkpt lat="42.734559" lon="0.313945">
        <ele>1470.4</ele>
        <time>2014-08-24T04:31:16Z</time>
      </trkpt>
      <trkpt lat="42.734510" lon="0.314069">
        <ele>1471.2</ele>
        <time>2014-08-24T04:31:26Z</time>
      </trkpt>
      <trkpt lat="42.734472" lon="0.314199">
        <ele>1472.0</ele>
        <time>2014-08-24T04:31:36Z</time>
      </trkpt>
      <trkpt lat="42.734406" lon="0.314326">
        <ele>1473.2</ele>
        <time>2014-08-24T04:31:46Z</time>
      </trkpt>
      <trkpt lat="42.734348" lon="0.314445">
        <ele>1474.1</ele>
        <time>2014-08-24T04:31:57Z</time>
      </trkpt>
      <trkpt lat="42.734315" lon="0.314578">
        <ele>1474.9</ele>
        <time>2014-08-24T04:32:08Z</time>
      </trkpt>
      <trkpt lat="42.734276" lon="0.314717">
        <ele>1476.0</ele>
        <time>2014-08-24T04:32:18Z</time>
      </trkpt>
      <trkpt lat="42.734211" lon="0.314867">
        <ele>1477.0</ele>
        <time>2014-08-24T04:32:27Z</time>
      </trkpt>
      <trkpt lat="42.734170" lon="0.315036">
        <ele>1477.6</ele>
        <time>2014-08-24T04:32:36Z</time>
      </trkpt>
      <trkpt lat="42.734128" lon="0.315172">
        <ele>1477.8</ele>
        <time>2014-08-24T04:32:45Z</time>
      </trkpt>
      <trkpt lat="42.734086" lon="0.315303">
        <ele>1478.3</ele>
        <time>2014-08-24T04:32:54Z</time>
      </trkpt>
      <trkpt lat="42.734052" lon="0.315472">
        <ele>1479.0</ele>
        <time>2014-08-24T04:33:04Z</time>
      </trkpt>
      <trkpt lat="42.734034" lon="0.315739">
        <ele>1480.7</ele>
        <time>2014-08-24T04:33:20Z</time>
      </trkpt>
      <trkpt lat="42.734131" lon="0.315972">
        <ele>1481.6</ele>
        <time>2014-08-24T04:33:29Z</time>
      </trkpt>
      <trkpt lat="42.734117" lon="0.316128">
        <ele>1482.4</ele>
        <time>2014-08-24T04:33:38Z</time>
      </trkpt>
      <trkpt lat="42.734115" lon="0.316239">
        <ele>1483.2</ele>
        <time>2014-08-24T04:33:47Z</time>
      </trkpt>
      <trkpt lat="42.734108" lon="0.316353">
        <ele>1484.0</ele>
        <time>2014-08-24T04:33:56Z</time>
      </trkpt>
      <trkpt lat="42.734045" lon="0.316480">
        <ele>1484.7</ele>
        <time>2014-08-24T04:34:06Z</time>
      </trkpt>
      <trkpt lat="42.733955" lon="0.316619">
        <ele>1485.6</ele>
        <time>2014-08-24T04:34:16Z</time>
      </trkpt>
      <trkpt lat="42.733884" lon="0.316733">
        <ele>1486.2</ele>
        <time>2014-08-24T04:34:25Z</time>
      </trkpt>
      <trkpt lat="42.733855" lon="0.316852">
        <ele>1487.1</ele>
        <time>2014-08-24T04:34:34Z</time>
      </trkpt>
      <trkpt lat="42.733818" lon="0.316979">
        <ele>1487.7</ele>
        <time>2014-08-24T04:34:42Z</time>
      </trkpt>
      <trkpt lat="42.733817" lon="0.317128">
        <ele>1488.2</ele>
        <time>2014-08-24T04:34:50Z</time>
      </trkpt>
      <trkpt lat="42.733815" lon="0.317271">
        <ele>1488.9</ele>
        <time>2014-08-24T04:34:59Z</time>
      </trkpt>
      <trkpt lat="42.733807" lon="0.317412">
        <ele>1489.5</ele>
        <time>2014-08-24T04:35:07Z</time>
      </trkpt>
      <trkpt lat="42.733819" lon="0.317557">
        <ele>1490.2</ele>
        <time>2014-08-24T04:35:15Z</time>
      </trkpt>
      <trkpt lat="42.733845" lon="0.317695">
        <ele>1490.6</ele>
        <time>2014-08-24T04:35:23Z</time>
      </trkpt>
      <trkpt lat="42.733846" lon="0.317842">
        <ele>1491.1</ele>
        <time>2014-08-24T04:35:31Z</time>
      </trkpt>
      <trkpt lat="42.733806" lon="0.317973">
        <ele>1491.5</ele>
        <time>2014-08-24T04:35:40Z</time>
      </trkpt>
      <trkpt lat="42.733770" lon="0.318077">
        <ele>1492.1</ele>
        <time>2014-08-24T04:35:48Z</time>
      </trkpt>
      <trkpt lat="42.733814" lon="0.318209">
        <ele>1492.7</ele>
        <time>2014-08-24T04:35:57Z</time>
      </trkpt>
      <trkpt lat="42.733785" lon="0.318329">
        <ele>1492.8</ele>
        <time>2014-08-24T04:36:05Z</time>
      </trkpt>
      <trkpt lat="42.733739" lon="0.318456">
        <ele>1493.1</ele>
        <time>2014-08-24T04:36:13Z</time>
      </trkpt>
      <trkpt lat="42.733674" lon="0.318565">
        <ele>1493.2</ele>
        <time>2014-08-24T04:36:22Z</time>
      </trkpt>
      <trkpt lat="42.733603" lon="0.318673">
        <ele>1493.2</ele>
        <time>2014-08-24T04:36:30Z</time>
      </trkpt>
      <trkpt lat="42.733544" lon="0.318788">
        <ele>1493.8</ele>
        <time>2014-08-24T04:36:39Z</time>
      </trkpt>
      <trkpt lat="42.733477" lon="0.318899">
        <ele>1494.5</ele>
        <time>2014-08-24T04:36:49Z</time>
      </trkpt>
      <trkpt lat="42.733426" lon="0.319044">
        <ele>1494.9</ele>
        <time>2014-08-24T04:36:57Z</time>
      </trkpt>
      <trkpt lat="42.733379" lon="0.319181">
        <ele>1495.4</ele>
        <time>2014-08-24T04:37:06Z</time>
      </trkpt>
      <trkpt lat="42.733297" lon="0.319294">
        <ele>1496.1</ele>
        <time>2014-08-24T04:37:15Z</time>
      </trkpt>
      <trkpt lat="42.733223" lon="0.319444">
        <ele>1496.5</ele>
        <time>2014-08-24T04:37:24Z</time>
      </trkpt>
      <trkpt lat="42.733136" lon="0.319551">
        <ele>1496.9</ele>
        <time>2014-08-24T04:37:33Z</time>
      </trkpt>
      <trkpt lat="42.733147" lon="0.319691">
        <ele>1497.1</ele>
        <time>2014-08-24T04:37:40Z</time>
      </trkpt>
      <trkpt lat="42.733118" lon="0.319926">
        <ele>1497.6</ele>
        <time>2014-08-24T04:37:52Z</time>
      </trkpt>
      <trkpt lat="42.733121" lon="0.320101">
        <ele>1498.0</ele>
        <time>2014-08-24T04:38:00Z</time>
      </trkpt>
      <trkpt lat="42.733120" lon="0.320233">
        <ele>1498.7</ele>
        <time>2014-08-24T04:38:08Z</time>
      </trkpt>
      <trkpt lat="42.733160" lon="0.320363">
        <ele>1498.9</ele>
        <time>2014-08-24T04:38:16Z</time>
      </trkpt>
      <trkpt lat="42.733178" lon="0.320484">
        <ele>1499.1</ele>
        <time>2014-08-24T04:38:23Z</time>
      </trkpt>
      <trkpt lat="42.733100" lon="0.320578">
        <ele>1499.5</ele>
        <time>2014-08-24T04:38:32Z</time>
      </trkpt>
      <trkpt lat="42.732984" lon="0.320659">
        <ele>1500.2</ele>
        <time>2014-08-24T04:38:40Z</time>
      </trkpt>
      <trkpt lat="42.732887" lon="0.320741">
        <ele>1501.1</ele>
        <time>2014-08-24T04:38:49Z</time>
      </trkpt>
      <trkpt lat="42.732750" lon="0.320748">
        <ele>1501.4</ele>
        <time>2014-08-24T04:39:00Z</time>
      </trkpt>
      <trkpt lat="42.732648" lon="0.320964">
        <ele>1503.7</ele>
        <time>2014-08-24T04:39:20Z</time>
      </trkpt>
      <trkpt lat="42.732627" lon="0.321108">
        <ele>1505.5</ele>
        <time>2014-08-24T04:39:31Z</time>
      </trkpt>
      <trkpt lat="42.732646" lon="0.321238">
        <ele>1506.8</ele>
        <time>2014-08-24T04:39:39Z</time>
      </trkpt>
      <trkpt lat="42.732647" lon="0.321375">
        <ele>1508.4</ele>
        <time>2014-08-24T04:39:49Z</time>
      </trkpt>
      <trkpt lat="42.732584" lon="0.321476">
        <ele>1509.7</ele>
        <time>2014-08-24T04:39:59Z</time>
      </trkpt>
      <trkpt lat="42.732503" lon="0.321562">
        <ele>1511.3</ele>
        <time>2014-08-24T04:40:09Z</time>
      </trkpt>
      <trkpt lat="42.732446" lon="0.321678">
        <ele>1512.7</ele>
        <time>2014-08-24T04:40:19Z</time>
      </trkpt>
      <trkpt lat="42.732405" lon="0.321819">
        <ele>1514.0</ele>
        <time>2014-08-24T04:40:31Z</time>
      </trkpt>
      <trkpt lat="42.732327" lon="0.321937">
        <ele>1515.4</ele>
        <time>2014-08-24T04:40:41Z</time>
      </trkpt>
      <trkpt lat="42.732233" lon="0.322033">
        <ele>1516.9</ele>
        <time>2014-08-24T04:40:51Z</time>
      </trkpt>
      <trkpt lat="42.732144" lon="0.322099">
        <ele>1518.1</ele>
        <time>2014-08-24T04:41:00Z</time>
      </trkpt>
      <trkpt lat="42.732035" lon="0.322126">
        <ele>1519.5</ele>
        <time>2014-08-24T04:41:10Z</time>
      </trkpt>
      <trkpt lat="42.731947" lon="0.322148">
        <ele>1520.7</ele>
        <time>2014-08-24T04:41:19Z</time>
      </trkpt>
      <trkpt lat="42.731841" lon="0.322160">
        <ele>1521.6</ele>
        <time>2014-08-24T04:41:28Z</time>
      </trkpt>
      <trkpt lat="42.731740" lon="0.322184">
        <ele>1522.5</ele>
        <time>2014-08-24T04:41:39Z</time>
      </trkpt>
      <trkpt lat="42.731603" lon="0.322272">
        <ele>1524.1</ele>
        <time>2014-08-24T04:41:55Z</time>
      </trkpt>
      <trkpt lat="42.731487" lon="0.322375">
        <ele>1524.8</ele>
        <time>2014-08-24T04:42:05Z</time>
      </trkpt>
      <trkpt lat="42.731400" lon="0.322433">
        <ele>1525.5</ele>
        <time>2014-08-24T04:42:14Z</time>
      </trkpt>
      <trkpt lat="42.731304" lon="0.322534">
        <ele>1526.7</ele>
        <time>2014-08-24T04:42:25Z</time>
      </trkpt>
      <trkpt lat="42.731227" lon="0.322454">
        <ele>1529.4</ele>
        <time>2014-08-24T04:42:39Z</time>
      </trkpt>
      <trkpt lat="42.731285" lon="0.322316">
        <ele>1532.2</ele>
        <time>2014-08-24T04:42:54Z</time>
      </trkpt>
      <trkpt lat="42.731365" lon="0.322219">
        <ele>1533.9</ele>
        <time>2014-08-24T04:43:06Z</time>
      </trkpt>
      <trkpt lat="42.731485" lon="0.322102">
        <ele>1535.8</ele>
        <time>2014-08-24T04:43:18Z</time>
      </trkpt>
      <trkpt lat="42.731581" lon="0.321996">
        <ele>1537.4</ele>
        <time>2014-08-24T04:43:30Z</time>
      </trkpt>
      <trkpt lat="42.731667" lon="0.321902">
        <ele>1539.3</ele>
        <time>2014-08-24T04:43:41Z</time>
      </trkpt>
      <trkpt lat="42.731739" lon="0.321754">
        <ele>1541.0</ele>
        <time>2014-08-24T04:43:52Z</time>
      </trkpt>
      <trkpt lat="42.731769" lon="0.321591">
        <ele>1542.8</ele>
        <time>2014-08-24T04:44:03Z</time>
      </trkpt>
      <trkpt lat="42.731739" lon="0.321449">
        <ele>1544.2</ele>
        <time>2014-08-24T04:44:15Z</time>
      </trkpt>
      <trkpt lat="42.731720" lon="0.321283">
        <ele>1546.3</ele>
        <time>2014-08-24T04:44:29Z</time>
      </trkpt>
      <trkpt lat="42.731702" lon="0.321108">
        <ele>1548.9</ele>
        <time>2014-08-24T04:44:45Z</time>
      </trkpt>
      <trkpt lat="42.731624" lon="0.320904">
        <ele>1551.9</ele>
        <time>2014-08-24T04:45:02Z</time>
      </trkpt>
      <trkpt lat="42.731596" lon="0.320738">
        <ele>1554.1</ele>
        <time>2014-08-24T04:45:16Z</time>
      </trkpt>
      <trkpt lat="42.731517" lon="0.320576">
        <ele>1556.9</ele>
        <time>2014-08-24T04:45:31Z</time>
      </trkpt>
      <trkpt lat="42.731455" lon="0.320360">
        <ele>1560.0</ele>
        <time>2014-08-24T04:45:49Z</time>
      </trkpt>
      <trkpt lat="42.731440" lon="0.320184">
        <ele>1562.6</ele>
        <time>2014-08-24T04:46:03Z</time>
      </trkpt>
      <trkpt lat="42.731406" lon="0.320019">
        <ele>1565.2</ele>
        <time>2014-08-24T04:46:17Z</time>
      </trkpt>
      <trkpt lat="42.731355" lon="0.319861">
        <ele>1568.0</ele>
        <time>2014-08-24T04:46:32Z</time>
      </trkpt>
      <trkpt lat="42.731309" lon="0.319728">
        <ele>1570.5</ele>
        <time>2014-08-24T04:46:47Z</time>
      </trkpt>
      <trkpt lat="42.731302" lon="0.319568">
        <ele>1572.2</ele>
        <time>2014-08-24T04:47:00Z</time>
      </trkpt>
      <trkpt lat="42.731249" lon="0.319511">
        <ele>1573.7</ele>
        <time>2014-08-24T04:47:14Z</time>
      </trkpt>
      <trkpt lat="42.731207" lon="0.319665">
        <ele>1575.1</ele>
        <time>2014-08-24T04:47:27Z</time>
      </trkpt>
      <trkpt lat="42.731198" lon="0.319812">
        <ele>1576.7</ele>
        <time>2014-08-24T04:47:38Z</time>
      </trkpt>
      <trkpt lat="42.731164" lon="0.319957">
        <ele>1578.6</ele>
        <time>2014-08-24T04:47:50Z</time>
      </trkpt>
      <trkpt lat="42.731091" lon="0.320107">
        <ele>1580.7</ele>
        <time>2014-08-24T04:48:01Z</time>
      </trkpt>
      <trkpt lat="42.731046" lon="0.320228">
        <ele>1582.4</ele>
        <time>2014-08-24T04:48:12Z</time>
      </trkpt>
      <trkpt lat="42.730967" lon="0.320341">
        <ele>1584.4</ele>
        <time>2014-08-24T04:48:25Z</time>
      </trkpt>
      <trkpt lat="42.730898" lon="0.320460">
        <ele>1586.2</ele>
        <time>2014-08-24T04:48:36Z</time>
      </trkpt>
      <trkpt lat="42.730833" lon="0.320578">
        <ele>1588.2</ele>
        <time>2014-08-24T04:48:49Z</time>
      </trkpt>
      <trkpt lat="42.730748" lon="0.320707">
        <ele>1590.2</ele>
        <time>2014-08-24T04:49:03Z</time>
      </trkpt>
      <trkpt lat="42.730674" lon="0.320833">
        <ele>1592.2</ele>
        <time>2014-08-24T04:49:15Z</time>
      </trkpt>
      <trkpt lat="42.730607" lon="0.320936">
        <ele>1594.3</ele>
        <time>2014-08-24T04:49:26Z</time>
      </trkpt>
      <trkpt lat="42.730551" lon="0.321039">
        <ele>1596.5</ele>
        <time>2014-08-24T04:49:40Z</time>
      </trkpt>
      <trkpt lat="42.730472" lon="0.321138">
        <ele>1598.8</ele>
        <time>2014-08-24T04:49:53Z</time>
      </trkpt>
      <trkpt lat="42.730403" lon="0.321227">
        <ele>1600.6</ele>
        <time>2014-08-24T04:50:04Z</time>
      </trkpt>
      <trkpt lat="42.730333" lon="0.321323">
        <ele>1603.0</ele>
        <time>2014-08-24T04:50:18Z</time>
      </trkpt>
      <trkpt lat="42.730248" lon="0.321415">
        <ele>1605.7</ele>
        <time>2014-08-24T04:50:33Z</time>
      </trkpt>
      <trkpt lat="42.730149" lon="0.321464">
        <ele>1608.1</ele>
        <time>2014-08-24T04:50:49Z</time>
      </trkpt>
      <trkpt lat="42.730036" lon="0.321567">
        <ele>1610.4</ele>
        <time>2014-08-24T04:51:02Z</time>
      </trkpt>
      <trkpt lat="42.729945" lon="0.321694">
        <ele>1612.1</ele>
        <time>2014-08-24T04:51:14Z</time>
      </trkpt>
      <trkpt lat="42.729860" lon="0.321854">
        <ele>1613.9</ele>
        <time>2014-08-24T04:51:25Z</time>
      </trkpt>
      <trkpt lat="42.729780" lon="0.322009">
        <ele>1615.2</ele>
        <time>2014-08-24T04:51:36Z</time>
      </trkpt>
      <trkpt lat="42.729736" lon="0.322149">
        <ele>1616.9</ele>
        <time>2014-08-24T04:51:47Z</time>
      </trkpt>
      <trkpt lat="42.729631" lon="0.322210">
        <ele>1619.8</ele>
        <time>2014-08-24T04:52:02Z</time>
      </trkpt>
      <trkpt lat="42.729617" lon="0.322085">
        <ele>1622.8</ele>
        <time>2014-08-24T04:52:17Z</time>
      </trkpt>
      <trkpt lat="42.729673" lon="0.321962">
        <ele>1625.2</ele>
        <time>2014-08-24T04:52:31Z</time>
      </trkpt>
      <trkpt lat="42.729659" lon="0.321822">
        <ele>1627.2</ele>
        <time>2014-08-24T04:52:45Z</time>
      </trkpt>
      <trkpt lat="42.729644" lon="0.321644">
        <ele>1629.0</ele>
        <time>2014-08-24T04:52:58Z</time>
      </trkpt>
      <trkpt lat="42.729682" lon="0.321483">
        <ele>1630.8</ele>
        <time>2014-08-24T04:53:10Z</time>
      </trkpt>
      <trkpt lat="42.729762" lon="0.321330">
        <ele>1632.3</ele>
        <time>2014-08-24T04:53:20Z</time>
      </trkpt>
      <trkpt lat="42.729817" lon="0.321210">
        <ele>1634.1</ele>
        <time>2014-08-24T04:53:31Z</time>
      </trkpt>
      <trkpt lat="42.729859" lon="0.321074">
        <ele>1635.4</ele>
        <time>2014-08-24T04:53:42Z</time>
      </trkpt>
      <trkpt lat="42.729916" lon="0.320946">
        <ele>1637.4</ele>
        <time>2014-08-24T04:53:54Z</time>
      </trkpt>
      <trkpt lat="42.729962" lon="0.320832">
        <ele>1639.0</ele>
        <time>2014-08-24T04:54:05Z</time>
      </trkpt>
      <trkpt lat="42.730000" lon="0.320687">
        <ele>1640.5</ele>
        <time>2014-08-24T04:54:16Z</time>
      </trkpt>
      <trkpt lat="42.730025" lon="0.320548">
        <ele>1641.7</ele>
        <time>2014-08-24T04:54:26Z</time>
      </trkpt>
      <trkpt lat="42.730047" lon="0.320422">
        <ele>1643.0</ele>
        <time>2014-08-24T04:54:35Z</time>
      </trkpt>
      <trkpt lat="42.730060" lon="0.320298">
        <ele>1644.8</ele>
        <time>2014-08-24T04:54:47Z</time>
      </trkpt>
      <trkpt lat="42.730058" lon="0.320157">
        <ele>1646.4</ele>
        <time>2014-08-24T04:54:59Z</time>
      </trkpt>
      <trkpt lat="42.730062" lon="0.320019">
        <ele>1648.2</ele>
        <time>2014-08-24T04:55:11Z</time>
      </trkpt>
      <trkpt lat="42.730076" lon="0.319863">
        <ele>1649.8</ele>
        <time>2014-08-24T04:55:22Z</time>
      </trkpt>
      <trkpt lat="42.730054" lon="0.319742">
        <ele>1651.8</ele>
        <time>2014-08-24T04:55:36Z</time>
      </trkpt>
      <trkpt lat="42.730014" lon="0.319791">
        <ele>1651.6</ele>
        <time>2014-08-24T04:57:23Z</time>
      </trkpt>
      <trkpt lat="42.729949" lon="0.319881">
        <ele>1654.5</ele>
        <time>2014-08-24T04:57:46Z</time>
      </trkpt>
      <trkpt lat="42.729877" lon="0.319983">
        <ele>1658.0</ele>
        <time>2014-08-24T04:58:01Z</time>
      </trkpt>
      <trkpt lat="42.729770" lon="0.320119">
        <ele>1664.9</ele>
        <time>2014-08-24T04:59:47Z</time>
      </trkpt>
      <trkpt lat="42.729774" lon="0.320135">
        <ele>1666.0</ele>
        <time>2014-08-24T05:04:22Z</time>
      </trkpt>
      <trkpt lat="42.729698" lon="0.320276">
        <ele>1668.4</ele>
        <time>2014-08-24T05:04:39Z</time>
      </trkpt>
      <trkpt lat="42.729615" lon="0.320378">
        <ele>1671.9</ele>
        <time>2014-08-24T05:04:56Z</time>
      </trkpt>
      <trkpt lat="42.729504" lon="0.320425">
        <ele>1674.5</ele>
        <time>2014-08-24T05:05:13Z</time>
      </trkpt>
      <trkpt lat="42.729458" lon="0.320300">
        <ele>1678.4</ele>
        <time>2014-08-24T05:05:34Z</time>
      </trkpt>
      <trkpt lat="42.729467" lon="0.320177">
        <ele>1682.8</ele>
        <time>2014-08-24T05:05:55Z</time>
      </trkpt>
      <trkpt lat="42.729444" lon="0.320025">
        <ele>1686.5</ele>
        <time>2014-08-24T05:06:17Z</time>
      </trkpt>
      <trkpt lat="42.729415" lon="0.319863">
        <ele>1689.4</ele>
        <time>2014-08-24T05:06:38Z</time>
      </trkpt>
      <trkpt lat="42.729348" lon="0.319739">
        <ele>1693.1</ele>
        <time>2014-08-24T05:07:02Z</time>
      </trkpt>
      <trkpt lat="42.729252" lon="0.319782">
        <ele>1696.7</ele>
        <time>2014-08-24T05:07:22Z</time>
      </trkpt>
      <trkpt lat="42.729115" lon="0.319872">
        <ele>1698.9</ele>
        <time>2014-08-24T05:07:37Z</time>
      </trkpt>
      <trkpt lat="42.729056" lon="0.319753">
        <ele>1701.6</ele>
        <time>2014-08-24T05:07:54Z</time>
      </trkpt>
      <trkpt lat="42.728948" lon="0.319772">
        <ele>1704.4</ele>
        <time>2014-08-24T05:08:09Z</time>
      </trkpt>
      <trkpt lat="42.728887" lon="0.319803">
        <ele>1708.2</ele>
        <time>2014-08-24T05:08:30Z</time>
      </trkpt>
      <trkpt lat="42.728849" lon="0.319932">
        <ele>1711.1</ele>
        <time>2014-08-24T05:08:46Z</time>
      </trkpt>
      <trkpt lat="42.728820" lon="0.319894">
        <ele>1713.5</ele>
        <time>2014-08-24T05:09:03Z</time>
      </trkpt>
      <trkpt lat="42.728738" lon="0.319900">
        <ele>1717.0</ele>
        <time>2014-08-24T05:09:23Z</time>
      </trkpt>
      <trkpt lat="42.728695" lon="0.319881">
        <ele>1720.8</ele>
        <time>2014-08-24T05:09:42Z</time>
      </trkpt>
      <trkpt lat="42.728616" lon="0.319895">
        <ele>1724.2</ele>
        <time>2014-08-24T05:10:00Z</time>
      </trkpt>
      <trkpt lat="42.728520" lon="0.319895">
        <ele>1728.1</ele>
        <time>2014-08-24T05:10:22Z</time>
      </trkpt>
      <trkpt lat="42.728458" lon="0.319936">
        <ele>1734.3</ele>
        <time>2014-08-24T05:10:57Z</time>
      </trkpt>
      <trkpt lat="42.728333" lon="0.320022">
        <ele>1736.8</ele>
        <time>2014-08-24T05:11:15Z</time>
      </trkpt>
      <trkpt lat="42.728238" lon="0.320019">
        <ele>1739.5</ele>
        <time>2014-08-24T05:11:32Z</time>
      </trkpt>
      <trkpt lat="42.728214" lon="0.319959">
        <ele>1743.0</ele>
        <time>2014-08-24T05:11:53Z</time>
      </trkpt>
      <trkpt lat="42.728132" lon="0.319914">
        <ele>1746.1</ele>
        <time>2014-08-24T05:12:09Z</time>
      </trkpt>
      <trkpt lat="42.728093" lon="0.319833">
        <ele>1748.9</ele>
        <time>2014-08-24T05:12:25Z</time>
      </trkpt>
      <trkpt lat="42.728035" lon="0.319878">
        <ele>1753.0</ele>
        <time>2014-08-24T05:12:50Z</time>
      </trkpt>
      <trkpt lat="42.727980" lon="0.319848">
        <ele>1755.8</ele>
        <time>2014-08-24T05:13:08Z</time>
      </trkpt>
      <trkpt lat="42.727985" lon="0.319727">
        <ele>1759.2</ele>
        <time>2014-08-24T05:13:26Z</time>
      </trkpt>
      <trkpt lat="42.727944" lon="0.319680">
        <ele>1762.4</ele>
        <time>2014-08-24T05:13:42Z</time>
      </trkpt>
      <trkpt lat="42.727882" lon="0.319686">
        <ele>1765.2</ele>
        <time>2014-08-24T05:13:58Z</time>
      </trkpt>
      <trkpt lat="42.727830" lon="0.319678">
        <ele>1769.2</ele>
        <time>2014-08-24T05:14:21Z</time>
      </trkpt>
      <trkpt lat="42.727733" lon="0.319743">
        <ele>1772.6</ele>
        <time>2014-08-24T05:14:41Z</time>
      </trkpt>
      <trkpt lat="42.727692" lon="0.319859">
        <ele>1776.0</ele>
        <time>2014-08-24T05:14:58Z</time>
      </trkpt>
      <trkpt lat="42.727625" lon="0.319950">
        <ele>1779.1</ele>
        <time>2014-08-24T05:15:14Z</time>
      </trkpt>
      <trkpt lat="42.727577" lon="0.320028">
        <ele>1783.8</ele>
        <time>2014-08-24T05:15:39Z</time>
      </trkpt>
      <trkpt lat="42.727519" lon="0.320103">
        <ele>1786.2</ele>
        <time>2014-08-24T05:15:57Z</time>
      </trkpt>
      <trkpt lat="42.727477" lon="0.320281">
        <ele>1787.9</ele>
        <time>2014-08-24T05:16:11Z</time>
      </trkpt>
      <trkpt lat="42.727397" lon="0.320379">
        <ele>1789.5</ele>
        <time>2014-08-24T05:16:22Z</time>
      </trkpt>
      <trkpt lat="42.727336" lon="0.320434">
        <ele>1791.1</ele>
        <time>2014-08-24T05:16:35Z</time>
      </trkpt>
      <trkpt lat="42.727251" lon="0.320582">
        <ele>1793.7</ele>
        <time>2014-08-24T05:16:49Z</time>
      </trkpt>
      <trkpt lat="42.727238" lon="0.320705">
        <ele>1796.5</ele>
        <time>2014-08-24T05:17:03Z</time>
      </trkpt>
      <trkpt lat="42.727204" lon="0.320846">
        <ele>1799.8</ele>
        <time>2014-08-24T05:17:21Z</time>
      </trkpt>
      <trkpt lat="42.727153" lon="0.320951">
        <ele>1803.0</ele>
        <time>2014-08-24T05:17:38Z</time>
      </trkpt>
      <trkpt lat="42.727080" lon="0.321045">
        <ele>1805.3</ele>
        <time>2014-08-24T05:17:53Z</time>
      </trkpt>
      <trkpt lat="42.727021" lon="0.321136">
        <ele>1807.9</ele>
        <time>2014-08-24T05:18:08Z</time>
      </trkpt>
      <trkpt lat="42.727015" lon="0.321193">
        <ele>1812.0</ele>
        <time>2014-08-24T05:18:30Z</time>
      </trkpt>
      <trkpt lat="42.726863" lon="0.321263">
        <ele>1815.2</ele>
        <time>2014-08-24T05:18:48Z</time>
      </trkpt>
      <trkpt lat="42.726843" lon="0.321369">
        <ele>1818.3</ele>
        <time>2014-08-24T05:19:06Z</time>
      </trkpt>
      <trkpt lat="42.726781" lon="0.321459">
        <ele>1820.7</ele>
        <time>2014-08-24T05:19:21Z</time>
      </trkpt>
      <trkpt lat="42.726792" lon="0.321572">
        <ele>1824.2</ele>
        <time>2014-08-24T05:19:42Z</time>
      </trkpt>
      <trkpt lat="42.726800" lon="0.321686">
        <ele>1827.3</ele>
        <time>2014-08-24T05:20:03Z</time>
      </trkpt>
      <trkpt lat="42.726715" lon="0.321773">
        <ele>1830.6</ele>
        <time>2014-08-24T05:20:20Z</time>
      </trkpt>
      <trkpt lat="42.726667" lon="0.321819">
        <ele>1833.9</ele>
        <time>2014-08-24T05:20:41Z</time>
      </trkpt>
      <trkpt lat="42.726671" lon="0.321910">
        <ele>1836.4</ele>
        <time>2014-08-24T05:20:57Z</time>
      </trkpt>
      <trkpt lat="42.726630" lon="0.321995">
        <ele>1839.4</ele>
        <time>2014-08-24T05:21:20Z</time>
      </trkpt>
      <trkpt lat="42.726546" lon="0.322021">
        <ele>1843.1</ele>
        <time>2014-08-24T05:21:42Z</time>
      </trkpt>
      <trkpt lat="42.726385" lon="0.322046">
        <ele>1846.6</ele>
        <time>2014-08-24T05:22:02Z</time>
      </trkpt>
      <trkpt lat="42.726369" lon="0.322104">
        <ele>1850.1</ele>
        <time>2014-08-24T05:22:24Z</time>
      </trkpt>
      <trkpt lat="42.726209" lon="0.322174">
        <ele>1854.8</ele>
        <time>2014-08-24T05:22:50Z</time>
      </trkpt>
      <trkpt lat="42.726113" lon="0.322195">
        <ele>1855.2</ele>
        <time>2014-08-24T05:23:06Z</time>
      </trkpt>
      <trkpt lat="42.726009" lon="0.322186">
        <ele>1854.8</ele>
        <time>2014-08-24T05:23:20Z</time>
      </trkpt>
      <trkpt lat="42.725935" lon="0.322165">
        <ele>1856.5</ele>
        <time>2014-08-24T05:23:35Z</time>
      </trkpt>
      <trkpt lat="42.725812" lon="0.322054">
        <ele>1856.9</ele>
        <time>2014-08-24T05:23:50Z</time>
      </trkpt>
      <trkpt lat="42.725714" lon="0.322038">
        <ele>1857.2</ele>
        <time>2014-08-24T05:24:01Z</time>
      </trkpt>
      <trkpt lat="42.725573" lon="0.321999">
        <ele>1858.8</ele>
        <time>2014-08-24T05:24:15Z</time>
      </trkpt>
      <trkpt lat="42.725458" lon="0.322018">
        <ele>1859.3</ele>
        <time>2014-08-24T05:24:26Z</time>
      </trkpt>
      <trkpt lat="42.725381" lon="0.322051">
        <ele>1860.8</ele>
        <time>2014-08-24T05:24:40Z</time>
      </trkpt>
      <trkpt lat="42.725247" lon="0.322130">
        <ele>1862.1</ele>
        <time>2014-08-24T05:24:56Z</time>
      </trkpt>
      <trkpt lat="42.725074" lon="0.322264">
        <ele>1862.8</ele>
        <time>2014-08-24T05:25:13Z</time>
      </trkpt>
      <trkpt lat="42.724971" lon="0.322272">
        <ele>1864.6</ele>
        <time>2014-08-24T05:25:29Z</time>
      </trkpt>
      <trkpt lat="42.724855" lon="0.322267">
        <ele>1866.3</ele>
        <time>2014-08-24T05:25:45Z</time>
      </trkpt>
      <trkpt lat="42.724701" lon="0.322232">
        <ele>1866.9</ele>
        <time>2014-08-24T05:25:59Z</time>
      </trkpt>
      <trkpt lat="42.724519" lon="0.322338">
        <ele>1868.9</ele>
        <time>2014-08-24T05:26:14Z</time>
      </trkpt>
      <trkpt lat="42.724383" lon="0.322411">
        <ele>1872.3</ele>
        <time>2014-08-24T05:26:30Z</time>
      </trkpt>
      <trkpt lat="42.724258" lon="0.322476">
        <ele>1875.9</ele>
        <time>2014-08-24T05:26:49Z</time>
      </trkpt>
      <trkpt lat="42.724141" lon="0.322630">
        <ele>1878.4</ele>
        <time>2014-08-24T05:27:05Z</time>
      </trkpt>
      <trkpt lat="42.724115" lon="0.322624">
        <ele>1879.8</ele>
        <time>2014-08-24T05:27:29Z</time>
      </trkpt>
      <trkpt lat="42.724066" lon="0.322587">
        <ele>1883.4</ele>
        <time>2014-08-24T05:27:47Z</time>
      </trkpt>
      <trkpt lat="42.723968" lon="0.322556">
        <ele>1885.6</ele>
        <time>2014-08-24T05:28:01Z</time>
      </trkpt>
      <trkpt lat="42.723830" lon="0.322597">
        <ele>1887.3</ele>
        <time>2014-08-24T05:28:17Z</time>
      </trkpt>
      <trkpt lat="42.723755" lon="0.322578">
        <ele>1887.0</ele>
        <time>2014-08-24T05:28:35Z</time>
      </trkpt>
      <trkpt lat="42.723675" lon="0.322514">
        <ele>1887.2</ele>
        <time>2014-08-24T05:28:50Z</time>
      </trkpt>
      <trkpt lat="42.723480" lon="0.322447">
        <ele>1888.4</ele>
        <time>2014-08-24T05:29:06Z</time>
      </trkpt>
      <trkpt lat="42.723303" lon="0.322544">
        <ele>1891.9</ele>
        <time>2014-08-24T05:29:25Z</time>
      </trkpt>
      <trkpt lat="42.723234" lon="0.322453">
        <ele>1896.1</ele>
        <time>2014-08-24T05:29:43Z</time>
      </trkpt>
      <trkpt lat="42.723168" lon="0.322429">
        <ele>1898.6</ele>
        <time>2014-08-24T05:30:00Z</time>
      </trkpt>
      <trkpt lat="42.723073" lon="0.322554">
        <ele>1896.9</ele>
        <time>2014-08-24T05:30:21Z</time>
      </trkpt>
      <trkpt lat="42.722933" lon="0.322587">
        <ele>1896.8</ele>
        <time>2014-08-24T05:30:34Z</time>
      </trkpt>
      <trkpt lat="42.722830" lon="0.322589">
        <ele>1895.6</ele>
        <time>2014-08-24T05:30:48Z</time>
      </trkpt>
      <trkpt lat="42.722748" lon="0.322644">
        <ele>1894.9</ele>
        <time>2014-08-24T05:31:04Z</time>
      </trkpt>
      <trkpt lat="42.722708" lon="0.322862">
        <ele>1894.9</ele>
        <time>2014-08-24T05:32:56Z</time>
      </trkpt>
      <trkpt lat="42.722623" lon="0.322896">
        <ele>1894.7</ele>
        <time>2014-08-24T05:33:14Z</time>
      </trkpt>
      <trkpt lat="42.722484" lon="0.322952">
        <ele>1893.0</ele>
        <time>2014-08-24T05:33:25Z</time>
      </trkpt>
      <trkpt lat="42.722358" lon="0.322983">
        <ele>1891.5</ele>
        <time>2014-08-24T05:33:35Z</time>
      </trkpt>
      <trkpt lat="42.722280" lon="0.323003">
        <ele>1889.9</ele>
        <time>2014-08-24T05:34:01Z</time>
      </trkpt>
      <trkpt lat="42.722150" lon="0.323051">
        <ele>1889.5</ele>
        <time>2014-08-24T05:34:12Z</time>
      </trkpt>
      <trkpt lat="42.722042" lon="0.323119">
        <ele>1889.5</ele>
        <time>2014-08-24T05:34:21Z</time>
      </trkpt>
      <trkpt lat="42.721959" lon="0.323176">
        <ele>1889.7</ele>
        <time>2014-08-24T05:34:30Z</time>
      </trkpt>
      <trkpt lat="42.721878" lon="0.323226">
        <ele>1889.1</ele>
        <time>2014-08-24T05:34:39Z</time>
      </trkpt>
      <trkpt lat="42.721778" lon="0.323231">
        <ele>1888.6</ele>
        <time>2014-08-24T05:34:48Z</time>
      </trkpt>
      <trkpt lat="42.721677" lon="0.323249">
        <ele>1887.6</ele>
        <time>2014-08-24T05:34:59Z</time>
      </trkpt>
      <trkpt lat="42.721585" lon="0.323240">
        <ele>1886.9</ele>
        <time>2014-08-24T05:35:09Z</time>
      </trkpt>
      <trkpt lat="42.721475" lon="0.323251">
        <ele>1886.7</ele>
        <time>2014-08-24T05:35:21Z</time>
      </trkpt>
      <trkpt lat="42.721372" lon="0.323302">
        <ele>1886.1</ele>
        <time>2014-08-24T05:35:30Z</time>
      </trkpt>
      <trkpt lat="42.721299" lon="0.323379">
        <ele>1886.2</ele>
        <time>2014-08-24T05:35:39Z</time>
      </trkpt>
      <trkpt lat="42.721226" lon="0.323419">
        <ele>1887.3</ele>
        <time>2014-08-24T05:35:48Z</time>
      </trkpt>
      <trkpt lat="42.721118" lon="0.323460">
        <ele>1888.4</ele>
        <time>2014-08-24T05:35:57Z</time>
      </trkpt>
      <trkpt lat="42.721028" lon="0.323467">
        <ele>1889.7</ele>
        <time>2014-08-24T05:36:06Z</time>
      </trkpt>
      <trkpt lat="42.720935" lon="0.323478">
        <ele>1891.0</ele>
        <time>2014-08-24T05:36:15Z</time>
      </trkpt>
      <trkpt lat="42.720855" lon="0.323471">
        <ele>1891.7</ele>
        <time>2014-08-24T05:36:25Z</time>
      </trkpt>
      <trkpt lat="42.720738" lon="0.323504">
        <ele>1892.5</ele>
        <time>2014-08-24T05:36:36Z</time>
      </trkpt>
      <trkpt lat="42.720631" lon="0.323515">
        <ele>1893.2</ele>
        <time>2014-08-24T05:36:46Z</time>
      </trkpt>
      <trkpt lat="42.720545" lon="0.323497">
        <ele>1894.1</ele>
        <time>2014-08-24T05:36:56Z</time>
      </trkpt>
      <trkpt lat="42.720453" lon="0.323468">
        <ele>1894.8</ele>
        <time>2014-08-24T05:37:07Z</time>
      </trkpt>
      <trkpt lat="42.720337" lon="0.323502">
        <ele>1895.5</ele>
        <time>2014-08-24T05:37:18Z</time>
      </trkpt>
      <trkpt lat="42.720245" lon="0.323499">
        <ele>1896.4</ele>
        <time>2014-08-24T05:37:29Z</time>
      </trkpt>
      <trkpt lat="42.720139" lon="0.323516">
        <ele>1896.7</ele>
        <time>2014-08-24T05:37:39Z</time>
      </trkpt>
      <trkpt lat="42.720062" lon="0.323500">
        <ele>1897.6</ele>
        <time>2014-08-24T05:37:49Z</time>
      </trkpt>
      <trkpt lat="42.719960" lon="0.323432">
        <ele>1899.6</ele>
        <time>2014-08-24T05:39:09Z</time>
      </trkpt>
      <trkpt lat="42.719825" lon="0.323459">
        <ele>1900.3</ele>
        <time>2014-08-24T05:39:22Z</time>
      </trkpt>
      <trkpt lat="42.719707" lon="0.323488">
        <ele>1901.8</ele>
        <time>2014-08-24T05:39:32Z</time>
      </trkpt>
      <trkpt lat="42.719613" lon="0.323464">
        <ele>1903.0</ele>
        <time>2014-08-24T05:39:43Z</time>
      </trkpt>
      <trkpt lat="42.719497" lon="0.323457">
        <ele>1904.3</ele>
        <time>2014-08-24T05:39:54Z</time>
      </trkpt>
      <trkpt lat="42.719387" lon="0.323467">
        <ele>1905.3</ele>
        <time>2014-08-24T05:40:04Z</time>
      </trkpt>
      <trkpt lat="42.719270" lon="0.323485">
        <ele>1906.5</ele>
        <time>2014-08-24T05:40:13Z</time>
      </trkpt>
      <trkpt lat="42.719209" lon="0.323417">
        <ele>1907.9</ele>
        <time>2014-08-24T05:40:24Z</time>
      </trkpt>
      <trkpt lat="42.719107" lon="0.323386">
        <ele>1909.2</ele>
        <time>2014-08-24T05:40:37Z</time>
      </trkpt>
      <trkpt lat="42.719014" lon="0.323363">
        <ele>1910.5</ele>
        <time>2014-08-24T05:40:49Z</time>
      </trkpt>
      <trkpt lat="42.718913" lon="0.323370">
        <ele>1912.8</ele>
        <time>2014-08-24T05:41:01Z</time>
      </trkpt>
      <trkpt lat="42.718826" lon="0.323345">
        <ele>1913.9</ele>
        <time>2014-08-24T05:41:11Z</time>
      </trkpt>
      <trkpt lat="42.718754" lon="0.323344">
        <ele>1915.6</ele>
        <time>2014-08-24T05:41:24Z</time>
      </trkpt>
      <trkpt lat="42.718649" lon="0.323368">
        <ele>1917.4</ele>
        <time>2014-08-24T05:41:37Z</time>
      </trkpt>
      <trkpt lat="42.718565" lon="0.323396">
        <ele>1918.8</ele>
        <time>2014-08-24T05:41:49Z</time>
      </trkpt>
      <trkpt lat="42.718466" lon="0.323370">
        <ele>1920.4</ele>
        <time>2014-08-24T05:42:03Z</time>
      </trkpt>
      <trkpt lat="42.718353" lon="0.323469">
        <ele>1922.9</ele>
        <time>2014-08-24T05:42:23Z</time>
      </trkpt>
      <trkpt lat="42.718242" lon="0.323490">
        <ele>1925.2</ele>
        <time>2014-08-24T05:42:43Z</time>
      </trkpt>
      <trkpt lat="42.718174" lon="0.323462">
        <ele>1928.4</ele>
        <time>2014-08-24T05:43:06Z</time>
      </trkpt>
      <trkpt lat="42.718066" lon="0.323563">
        <ele>1931.5</ele>
        <time>2014-08-24T05:43:25Z</time>
      </trkpt>
      <trkpt lat="42.717999" lon="0.323643">
        <ele>1934.3</ele>
        <time>2014-08-24T05:43:44Z</time>
      </trkpt>
      <trkpt lat="42.717901" lon="0.323753">
        <ele>1937.6</ele>
        <time>2014-08-24T05:44:01Z</time>
      </trkpt>
      <trkpt lat="42.717799" lon="0.323782">
        <ele>1939.9</ele>
        <time>2014-08-24T05:44:17Z</time>
      </trkpt>
      <trkpt lat="42.717724" lon="0.323804">
        <ele>1941.7</ele>
        <time>2014-08-24T05:44:33Z</time>
      </trkpt>
      <trkpt lat="42.717626" lon="0.323841">
        <ele>1943.5</ele>
        <time>2014-08-24T05:44:45Z</time>
      </trkpt>
      <trkpt lat="42.717544" lon="0.323824">
        <ele>1945.4</ele>
        <time>2014-08-24T05:44:59Z</time>
      </trkpt>
      <trkpt lat="42.717456" lon="0.323834">
        <ele>1947.4</ele>
        <time>2014-08-24T05:45:17Z</time>
      </trkpt>
      <trkpt lat="42.717439" lon="0.323707">
        <ele>1949.3</ele>
        <time>2014-08-24T05:45:32Z</time>
      </trkpt>
      <trkpt lat="42.717387" lon="0.323607">
        <ele>1952.1</ele>
        <time>2014-08-24T05:45:47Z</time>
      </trkpt>
      <trkpt lat="42.717334" lon="0.323514">
        <ele>1953.7</ele>
        <time>2014-08-24T05:45:59Z</time>
      </trkpt>
      <trkpt lat="42.717221" lon="0.323483">
        <ele>1956.5</ele>
        <time>2014-08-24T05:46:15Z</time>
      </trkpt>
      <trkpt lat="42.717143" lon="0.323379">
        <ele>1959.8</ele>
        <time>2014-08-24T05:46:33Z</time>
      </trkpt>
      <trkpt lat="42.717037" lon="0.323319">
        <ele>1962.8</ele>
        <time>2014-08-24T05:46:49Z</time>
      </trkpt>
      <trkpt lat="42.716934" lon="0.323289">
        <ele>1966.2</ele>
        <time>2014-08-24T05:47:05Z</time>
      </trkpt>
      <trkpt lat="42.716864" lon="0.323223">
        <ele>1969.1</ele>
        <time>2014-08-24T05:47:20Z</time>
      </trkpt>
      <trkpt lat="42.716774" lon="0.323189">
        <ele>1973.1</ele>
        <time>2014-08-24T05:47:41Z</time>
      </trkpt>
      <trkpt lat="42.716667" lon="0.323192">
        <ele>1976.5</ele>
        <time>2014-08-24T05:48:00Z</time>
      </trkpt>
      <trkpt lat="42.716595" lon="0.323205">
        <ele>1980.4</ele>
        <time>2014-08-24T05:48:18Z</time>
      </trkpt>
      <trkpt lat="42.716512" lon="0.323176">
        <ele>1984.9</ele>
        <time>2014-08-24T05:48:40Z</time>
      </trkpt>
      <trkpt lat="42.716388" lon="0.323138">
        <ele>1989.5</ele>
        <time>2014-08-24T05:49:03Z</time>
      </trkpt>
      <trkpt lat="42.716299" lon="0.323123">
        <ele>1992.9</ele>
        <time>2014-08-24T05:49:20Z</time>
      </trkpt>
      <trkpt lat="42.716223" lon="0.323084">
        <ele>1996.6</ele>
        <time>2014-08-24T05:49:40Z</time>
      </trkpt>
      <trkpt lat="42.716162" lon="0.323040">
        <ele>2000.4</ele>
        <time>2014-08-24T05:50:05Z</time>
      </trkpt>
      <trkpt lat="42.716092" lon="0.322954">
        <ele>2004.3</ele>
        <time>2014-08-24T05:50:26Z</time>
      </trkpt>
      <trkpt lat="42.716000" lon="0.322852">
        <ele>2009.6</ele>
        <time>2014-08-24T05:50:52Z</time>
      </trkpt>
      <trkpt lat="42.716022" lon="0.322838">
        <ele>2011.4</ele>
        <time>2014-08-24T05:51:22Z</time>
      </trkpt>
      <trkpt lat="42.715956" lon="0.322813">
        <ele>2012.9</ele>
        <time>2014-08-24T05:51:45Z</time>
      </trkpt>
      <trkpt lat="42.715830" lon="0.322815">
        <ele>2016.6</ele>
        <time>2014-08-24T05:52:03Z</time>
      </trkpt>
      <trkpt lat="42.715736" lon="0.322779">
        <ele>2020.0</ele>
        <time>2014-08-24T05:52:17Z</time>
      </trkpt>
      <trkpt lat="42.715683" lon="0.322728">
        <ele>2023.6</ele>
        <time>2014-08-24T05:52:38Z</time>
      </trkpt>
      <trkpt lat="42.715615" lon="0.322632">
        <ele>2027.1</ele>
        <time>2014-08-24T05:52:58Z</time>
      </trkpt>
      <trkpt lat="42.715553" lon="0.322575">
        <ele>2031.6</ele>
        <time>2014-08-24T05:53:24Z</time>
      </trkpt>
      <trkpt lat="42.715514" lon="0.322530">
        <ele>2037.1</ele>
        <time>2014-08-24T05:53:55Z</time>
      </trkpt>
      <trkpt lat="42.715432" lon="0.322519">
        <ele>2040.8</ele>
        <time>2014-08-24T05:54:16Z</time>
      </trkpt>
      <trkpt lat="42.715406" lon="0.322385">
        <ele>2045.6</ele>
        <time>2014-08-24T05:54:59Z</time>
      </trkpt>
      <trkpt lat="42.715436" lon="0.322317">
        <ele>2048.5</ele>
        <time>2014-08-24T05:55:47Z</time>
      </trkpt>
      <trkpt lat="42.715390" lon="0.322255">
        <ele>2052.1</ele>
        <time>2014-08-24T05:56:09Z</time>
      </trkpt>
      <trkpt lat="42.715366" lon="0.322219">
        <ele>2057.6</ele>
        <time>2014-08-24T05:56:41Z</time>
      </trkpt>
      <trkpt lat="42.715358" lon="0.322094">
        <ele>2065.1</ele>
        <time>2014-08-24T05:57:30Z</time>
      </trkpt>
      <trkpt lat="42.715453" lon="0.322043">
        <ele>2068.3</ele>
        <time>2014-08-24T05:57:53Z</time>
      </trkpt>
      <trkpt lat="42.715509" lon="0.322000">
        <ele>2071.3</ele>
        <time>2014-08-24T05:58:19Z</time>
      </trkpt>
      <trkpt lat="42.715537" lon="0.321998">
        <ele>2070.1</ele>
        <time>2014-08-24T05:58:46Z</time>
      </trkpt>
      <trkpt lat="42.715616" lon="0.321884">
        <ele>2073.5</ele>
        <time>2014-08-24T05:59:05Z</time>
      </trkpt>
      <trkpt lat="42.715615" lon="0.321805">
        <ele>2077.5</ele>
        <time>2014-08-24T05:59:23Z</time>
      </trkpt>
      <trkpt lat="42.715605" lon="0.321712">
        <ele>2082.6</ele>
        <time>2014-08-24T06:00:39Z</time>
      </trkpt>
      <trkpt lat="42.715672" lon="0.321590">
        <ele>2087.2</ele>
        <time>2014-08-24T06:01:00Z</time>
      </trkpt>
      <trkpt lat="42.715762" lon="0.321489">
        <ele>2091.6</ele>
        <time>2014-08-24T06:01:20Z</time>
      </trkpt>
      <trkpt lat="42.715825" lon="0.321439">
        <ele>2096.4</ele>
        <time>2014-08-24T06:01:43Z</time>
      </trkpt>
      <trkpt lat="42.715827" lon="0.321324">
        <ele>2101.1</ele>
        <time>2014-08-24T06:02:06Z</time>
      </trkpt>
      <trkpt lat="42.715856" lon="0.321223">
        <ele>2105.5</ele>
        <time>2014-08-24T06:02:30Z</time>
      </trkpt>
      <trkpt lat="42.715861" lon="0.321117">
        <ele>2110.3</ele>
        <time>2014-08-24T06:02:59Z</time>
      </trkpt>
      <trkpt lat="42.715847" lon="0.321126">
        <ele>2112.6</ele>
        <time>2014-08-24T06:03:40Z</time>
      </trkpt>
      <trkpt lat="42.715737" lon="0.321135">
        <ele>2115.4</ele>
        <time>2014-08-24T06:03:55Z</time>
      </trkpt>
      <trkpt lat="42.715653" lon="0.321111">
        <ele>2118.5</ele>
        <time>2014-08-24T06:04:11Z</time>
      </trkpt>
      <trkpt lat="42.715561" lon="0.321049">
        <ele>2122.7</ele>
        <time>2014-08-24T06:04:33Z</time>
      </trkpt>
      <trkpt lat="42.715505" lon="0.320976">
        <ele>2126.5</ele>
        <time>2014-08-24T06:04:53Z</time>
      </trkpt>
      <trkpt lat="42.715428" lon="0.320963">
        <ele>2129.8</ele>
        <time>2014-08-24T06:05:11Z</time>
      </trkpt>
      <trkpt lat="42.715356" lon="0.320927">
        <ele>2132.6</ele>
        <time>2014-08-24T06:05:30Z</time>
      </trkpt>
      <trkpt lat="42.715257" lon="0.320892">
        <ele>2135.9</ele>
        <time>2014-08-24T06:05:51Z</time>
      </trkpt>
      <trkpt lat="42.715146" lon="0.320948">
        <ele>2139.7</ele>
        <time>2014-08-24T06:06:12Z</time>
      </trkpt>
      <trkpt lat="42.715064" lon="0.320954">
        <ele>2143.2</ele>
        <time>2014-08-24T06:06:33Z</time>
      </trkpt>
      <trkpt lat="42.714983" lon="0.320950">
        <ele>2146.9</ele>
        <time>2014-08-24T06:06:56Z</time>
      </trkpt>
      <trkpt lat="42.714939" lon="0.320845">
        <ele>2151.0</ele>
        <time>2014-08-24T06:07:22Z</time>
      </trkpt>
      <trkpt lat="42.714848" lon="0.320844">
        <ele>2152.8</ele>
        <time>2014-08-24T06:07:41Z</time>
      </trkpt>
      <trkpt lat="42.714767" lon="0.320900">
        <ele>2153.7</ele>
        <time>2014-08-24T06:07:57Z</time>
      </trkpt>
      <trkpt lat="42.714681" lon="0.320919">
        <ele>2155.6</ele>
        <time>2014-08-24T06:08:14Z</time>
      </trkpt>
      <trkpt lat="42.714594" lon="0.320966">
        <ele>2158.3</ele>
        <time>2014-08-24T06:08:29Z</time>
      </trkpt>
      <trkpt lat="42.714548" lon="0.320967">
        <ele>2159.3</ele>
        <time>2014-08-24T06:08:53Z</time>
      </trkpt>
      <trkpt lat="42.714454" lon="0.320927">
        <ele>2159.0</ele>
        <time>2014-08-24T06:09:10Z</time>
      </trkpt>
      <trkpt lat="42.714352" lon="0.321070">
        <ele>2159.8</ele>
        <time>2014-08-24T06:09:24Z</time>
      </trkpt>
      <trkpt lat="42.714286" lon="0.321225">
        <ele>2160.5</ele>
        <time>2014-08-24T06:09:37Z</time>
      </trkpt>
      <trkpt lat="42.714207" lon="0.321331">
        <ele>2161.4</ele>
        <time>2014-08-24T06:09:51Z</time>
      </trkpt>
      <trkpt lat="42.714157" lon="0.321477">
        <ele>2163.0</ele>
        <time>2014-08-24T06:10:10Z</time>
      </trkpt>
      <trkpt lat="42.714094" lon="0.321628">
        <ele>2165.6</ele>
        <time>2014-08-24T06:10:24Z</time>
      </trkpt>
      <trkpt lat="42.714048" lon="0.321703">
        <ele>2169.5</ele>
        <time>2014-08-24T06:10:47Z</time>
      </trkpt>
      <trkpt lat="42.714015" lon="0.321737">
        <ele>2171.8</ele>
        <time>2014-08-24T06:11:19Z</time>
      </trkpt>
      <trkpt lat="42.713953" lon="0.321738">
        <ele>2174.6</ele>
        <time>2014-08-24T06:11:49Z</time>
      </trkpt>
      <trkpt lat="42.713912" lon="0.321846">
        <ele>2177.2</ele>
        <time>2014-08-24T06:12:12Z</time>
      </trkpt>
      <trkpt lat="42.713847" lon="0.321897">
        <ele>2181.4</ele>
        <time>2014-08-24T06:12:55Z</time>
      </trkpt>
      <trkpt lat="42.713810" lon="0.321985">
        <ele>2184.3</ele>
        <time>2014-08-24T06:13:27Z</time>
      </trkpt>
      <trkpt lat="42.713790" lon="0.322102">
        <ele>2188.4</ele>
        <time>2014-08-24T06:13:50Z</time>
      </trkpt>
      <trkpt lat="42.713745" lon="0.322217">
        <ele>2194.6</ele>
        <time>2014-08-24T06:14:21Z</time>
      </trkpt>
      <trkpt lat="42.713727" lon="0.322355">
        <ele>2198.3</ele>
        <time>2014-08-24T06:14:43Z</time>
      </trkpt>
      <trkpt lat="42.713673" lon="0.322457">
        <ele>2201.2</ele>
        <time>2014-08-24T06:15:04Z</time>
      </trkpt>
      <trkpt lat="42.713609" lon="0.322577">
        <ele>2204.1</ele>
        <time>2014-08-24T06:15:23Z</time>
      </trkpt>
      <trkpt lat="42.713553" lon="0.322657">
        <ele>2206.9</ele>
        <time>2014-08-24T06:15:48Z</time>
      </trkpt>
      <trkpt lat="42.713511" lon="0.322836">
        <ele>2209.3</ele>
        <time>2014-08-24T06:16:48Z</time>
      </trkpt>
      <trkpt lat="42.713486" lon="0.322959">
        <ele>2210.6</ele>
        <time>2014-08-24T06:17:02Z</time>
      </trkpt>
      <trkpt lat="42.713444" lon="0.323092">
        <ele>2211.7</ele>
        <time>2014-08-24T06:17:16Z</time>
      </trkpt>
      <trkpt lat="42.713404" lon="0.323212">
        <ele>2211.8</ele>
        <time>2014-08-24T06:17:30Z</time>
      </trkpt>
      <trkpt lat="42.713364" lon="0.323270">
        <ele>2209.5</ele>
        <time>2014-08-24T06:17:53Z</time>
      </trkpt>
      <trkpt lat="42.713277" lon="0.323346">
        <ele>2208.4</ele>
        <time>2014-08-24T06:18:13Z</time>
      </trkpt>
      <trkpt lat="42.713232" lon="0.323458">
        <ele>2208.4</ele>
        <time>2014-08-24T06:18:30Z</time>
      </trkpt>
      <trkpt lat="42.713168" lon="0.323550">
        <ele>2210.1</ele>
        <time>2014-08-24T06:18:52Z</time>
      </trkpt>
      <trkpt lat="42.713090" lon="0.323655">
        <ele>2212.7</ele>
        <time>2014-08-24T06:19:12Z</time>
      </trkpt>
      <trkpt lat="42.713045" lon="0.323763">
        <ele>2213.1</ele>
        <time>2014-08-24T06:19:25Z</time>
      </trkpt>
      <trkpt lat="42.713000" lon="0.323858">
        <ele>2214.5</ele>
        <time>2014-08-24T06:19:45Z</time>
      </trkpt>
      <trkpt lat="42.712980" lon="0.323984">
        <ele>2216.1</ele>
        <time>2014-08-24T06:19:59Z</time>
      </trkpt>
      <trkpt lat="42.712962" lon="0.324126">
        <ele>2216.6</ele>
        <time>2014-08-24T06:20:13Z</time>
      </trkpt>
      <trkpt lat="42.712924" lon="0.324201">
        <ele>2218.4</ele>
        <time>2014-08-24T06:20:33Z</time>
      </trkpt>
      <trkpt lat="42.712848" lon="0.324269">
        <ele>2217.6</ele>
        <time>2014-08-24T06:21:03Z</time>
      </trkpt>
      <trkpt lat="42.712829" lon="0.324420">
        <ele>2218.8</ele>
        <time>2014-08-24T06:21:16Z</time>
      </trkpt>
      <trkpt lat="42.712781" lon="0.324564">
        <ele>2220.6</ele>
        <time>2014-08-24T06:21:31Z</time>
      </trkpt>
      <trkpt lat="42.712347" lon="0.324756">
        <ele>2249.2</ele>
        <time>2014-08-24T06:36:28Z</time>
      </trkpt>
      <trkpt lat="42.712293" lon="0.324746">
        <ele>2253.0</ele>
        <time>2014-08-24T06:36:50Z</time>
      </trkpt>
      <trkpt lat="42.712276" lon="0.324655">
        <ele>2256.3</ele>
        <time>2014-08-24T06:37:14Z</time>
      </trkpt>
      <trkpt lat="42.712224" lon="0.324651">
        <ele>2260.2</ele>
        <time>2014-08-24T06:37:39Z</time>
      </trkpt>
      <trkpt lat="42.712132" lon="0.324651">
        <ele>2265.6</ele>
        <time>2014-08-24T06:38:26Z</time>
      </trkpt>
      <trkpt lat="42.712063" lon="0.324677">
        <ele>2270.1</ele>
        <time>2014-08-24T06:38:52Z</time>
      </trkpt>
      <trkpt lat="42.711986" lon="0.324658">
        <ele>2274.3</ele>
        <time>2014-08-24T06:39:19Z</time>
      </trkpt>
      <trkpt lat="42.711911" lon="0.324654">
        <ele>2279.9</ele>
        <time>2014-08-24T06:39:53Z</time>
      </trkpt>
      <trkpt lat="42.711845" lon="0.324639">
        <ele>2284.1</ele>
        <time>2014-08-24T06:40:30Z</time>
      </trkpt>
      <trkpt lat="42.711781" lon="0.324622">
        <ele>2289.7</ele>
        <time>2014-08-24T06:40:59Z</time>
      </trkpt>
      <trkpt lat="42.711708" lon="0.324664">
        <ele>2295.9</ele>
        <time>2014-08-24T06:41:30Z</time>
      </trkpt>
      <trkpt lat="42.711642" lon="0.324648">
        <ele>2299.3</ele>
        <time>2014-08-24T06:42:00Z</time>
      </trkpt>
      <trkpt lat="42.711570" lon="0.324621">
        <ele>2303.3</ele>
        <time>2014-08-24T06:42:26Z</time>
      </trkpt>
      <trkpt lat="42.711516" lon="0.324618">
        <ele>2306.3</ele>
        <time>2014-08-24T06:42:48Z</time>
      </trkpt>
      <trkpt lat="42.711434" lon="0.324644">
        <ele>2313.1</ele>
        <time>2014-08-24T06:43:31Z</time>
      </trkpt>
      <trkpt lat="42.711362" lon="0.324665">
        <ele>2316.6</ele>
        <time>2014-08-24T06:43:53Z</time>
      </trkpt>
      <trkpt lat="42.711300" lon="0.324654">
        <ele>2320.9</ele>
        <time>2014-08-24T06:44:23Z</time>
      </trkpt>
      <trkpt lat="42.711234" lon="0.324571">
        <ele>2324.0</ele>
        <time>2014-08-24T06:44:45Z</time>
      </trkpt>
      <trkpt lat="42.711172" lon="0.324485">
        <ele>2326.8</ele>
        <time>2014-08-24T06:45:06Z</time>
      </trkpt>
      <trkpt lat="42.711109" lon="0.324391">
        <ele>2328.9</ele>
        <time>2014-08-24T06:45:28Z</time>
      </trkpt>
      <trkpt lat="42.711060" lon="0.324283">
        <ele>2330.6</ele>
        <time>2014-08-24T06:45:46Z</time>
      </trkpt>
      <trkpt lat="42.711007" lon="0.324194">
        <ele>2332.6</ele>
        <time>2014-08-24T06:46:06Z</time>
      </trkpt>
      <trkpt lat="42.710948" lon="0.324142">
        <ele>2335.4</ele>
        <time>2014-08-24T06:46:34Z</time>
      </trkpt>
      <trkpt lat="42.710872" lon="0.324149">
        <ele>2338.9</ele>
        <time>2014-08-24T06:47:09Z</time>
      </trkpt>
      <trkpt lat="42.710795" lon="0.324159">
        <ele>2342.9</ele>
        <time>2014-08-24T06:47:38Z</time>
      </trkpt>
      <trkpt lat="42.710741" lon="0.324046">
        <ele>2347.1</ele>
        <time>2014-08-24T06:48:09Z</time>
      </trkpt>
      <trkpt lat="42.710692" lon="0.324010">
        <ele>2350.0</ele>
        <time>2014-08-24T06:48:29Z</time>
      </trkpt>
      <trkpt lat="42.710674" lon="0.323896">
        <ele>2354.2</ele>
        <time>2014-08-24T06:48:59Z</time>
      </trkpt>
      <trkpt lat="42.710636" lon="0.323780">
        <ele>2354.7</ele>
        <time>2014-08-24T06:49:15Z</time>
      </trkpt>
      <trkpt lat="42.710593" lon="0.323689">
        <ele>2356.8</ele>
        <time>2014-08-24T06:49:33Z</time>
      </trkpt>
      <trkpt lat="42.710526" lon="0.323609">
        <ele>2360.3</ele>
        <time>2014-08-24T06:49:56Z</time>
      </trkpt>
      <trkpt lat="42.710475" lon="0.323505">
        <ele>2363.5</ele>
        <time>2014-08-24T06:50:23Z</time>
      </trkpt>
      <trkpt lat="42.710482" lon="0.323522">
        <ele>2363.9</ele>
        <time>2014-08-24T06:51:13Z</time>
      </trkpt>
      <trkpt lat="42.710422" lon="0.323533">
        <ele>2366.1</ele>
        <time>2014-08-24T06:52:18Z</time>
      </trkpt>
      <trkpt lat="42.710335" lon="0.323516">
        <ele>2370.5</ele>
        <time>2014-08-24T06:52:47Z</time>
      </trkpt>
      <trkpt lat="42.710296" lon="0.323421">
        <ele>2375.3</ele>
        <time>2014-08-24T06:53:21Z</time>
      </trkpt>
      <trkpt lat="42.710205" lon="0.323412">
        <ele>2380.5</ele>
        <time>2014-08-24T06:53:54Z</time>
      </trkpt>
      <trkpt lat="42.710125" lon="0.323412">
        <ele>2385.4</ele>
        <time>2014-08-24T06:54:28Z</time>
      </trkpt>
      <trkpt lat="42.710079" lon="0.323325">
        <ele>2388.8</ele>
        <time>2014-08-24T06:54:57Z</time>
      </trkpt>
      <trkpt lat="42.710008" lon="0.323346">
        <ele>2392.5</ele>
        <time>2014-08-24T06:55:24Z</time>
      </trkpt>
      <trkpt lat="42.709953" lon="0.323302">
        <ele>2397.2</ele>
        <time>2014-08-24T06:55:55Z</time>
      </trkpt>
      <trkpt lat="42.709870" lon="0.323326">
        <ele>2402.5</ele>
        <time>2014-08-24T06:56:42Z</time>
      </trkpt>
      <trkpt lat="42.709809" lon="0.323275">
        <ele>2406.2</ele>
        <time>2014-08-24T06:57:15Z</time>
      </trkpt>
      <trkpt lat="42.709763" lon="0.323315">
        <ele>2410.4</ele>
        <time>2014-08-24T06:57:42Z</time>
      </trkpt>
      <trkpt lat="42.709693" lon="0.323299">
        <ele>2414.4</ele>
        <time>2014-08-24T06:58:11Z</time>
      </trkpt>
      <trkpt lat="42.709644" lon="0.323330">
        <ele>2418.7</ele>
        <time>2014-08-24T06:58:48Z</time>
      </trkpt>
      <trkpt lat="42.709610" lon="0.323247">
        <ele>2422.3</ele>
        <time>2014-08-24T06:59:17Z</time>
      </trkpt>
      <trkpt lat="42.709561" lon="0.323146">
        <ele>2426.1</ele>
        <time>2014-08-24T06:59:46Z</time>
      </trkpt>
      <trkpt lat="42.709515" lon="0.323036">
        <ele>2429.7</ele>
        <time>2014-08-24T07:00:13Z</time>
      </trkpt>
      <trkpt lat="42.709447" lon="0.322929">
        <ele>2434.9</ele>
        <time>2014-08-24T07:00:49Z</time>
      </trkpt>
      <trkpt lat="42.709413" lon="0.322810">
        <ele>2439.0</ele>
        <time>2014-08-24T07:01:20Z</time>
      </trkpt>
      <trkpt lat="42.709373" lon="0.322713">
        <ele>2442.1</ele>
        <time>2014-08-24T07:01:43Z</time>
      </trkpt>
      <trkpt lat="42.709290" lon="0.322746">
        <ele>2448.5</ele>
        <time>2014-08-24T07:02:22Z</time>
      </trkpt>
      <trkpt lat="42.709242" lon="0.322696">
        <ele>2451.7</ele>
        <time>2014-08-24T07:02:54Z</time>
      </trkpt>
      <trkpt lat="42.709187" lon="0.322590">
        <ele>2454.8</ele>
        <time>2014-08-24T07:03:19Z</time>
      </trkpt>
      <trkpt lat="42.709144" lon="0.322488">
        <ele>2458.6</ele>
        <time>2014-08-24T07:03:48Z</time>
      </trkpt>
      <trkpt lat="42.709086" lon="0.322394">
        <ele>2462.2</ele>
        <time>2014-08-24T07:04:18Z</time>
      </trkpt>
      <trkpt lat="42.709000" lon="0.322454">
        <ele>2465.6</ele>
        <time>2014-08-24T07:04:45Z</time>
      </trkpt>
      <trkpt lat="42.708936" lon="0.322543">
        <ele>2469.8</ele>
        <time>2014-08-24T07:05:17Z</time>
      </trkpt>
      <trkpt lat="42.708859" lon="0.322580">
        <ele>2474.1</ele>
        <time>2014-08-24T07:05:55Z</time>
      </trkpt>
      <trkpt lat="42.708778" lon="0.322639">
        <ele>2478.1</ele>
        <time>2014-08-24T07:06:29Z</time>
      </trkpt>
      <trkpt lat="42.708704" lon="0.322695">
        <ele>2483.3</ele>
        <time>2014-08-24T07:07:03Z</time>
      </trkpt>
      <trkpt lat="42.708670" lon="0.322700">
        <ele>2484.7</ele>
        <time>2014-08-24T07:07:49Z</time>
      </trkpt>
      <trkpt lat="42.708689" lon="0.322616">
        <ele>2486.3</ele>
        <time>2014-08-24T07:08:23Z</time>
      </trkpt>
      <trkpt lat="42.708631" lon="0.322537">
        <ele>2490.0</ele>
        <time>2014-08-24T07:08:50Z</time>
      </trkpt>
      <trkpt lat="42.708554" lon="0.322492">
        <ele>2494.1</ele>
        <time>2014-08-24T07:09:23Z</time>
      </trkpt>
      <trkpt lat="42.708486" lon="0.322552">
        <ele>2497.7</ele>
        <time>2014-08-24T07:09:50Z</time>
      </trkpt>
      <trkpt lat="42.708426" lon="0.322640">
        <ele>2501.5</ele>
        <time>2014-08-24T07:10:23Z</time>
      </trkpt>
      <trkpt lat="42.708343" lon="0.322702">
        <ele>2505.9</ele>
        <time>2014-08-24T07:10:56Z</time>
      </trkpt>
      <trkpt lat="42.708273" lon="0.322640">
        <ele>2509.2</ele>
        <time>2014-08-24T07:11:23Z</time>
      </trkpt>
      <trkpt lat="42.708217" lon="0.322578">
        <ele>2513.0</ele>
        <time>2014-08-24T07:11:50Z</time>
      </trkpt>
      <trkpt lat="42.708180" lon="0.322490">
        <ele>2516.3</ele>
        <time>2014-08-24T07:12:17Z</time>
      </trkpt>
      <trkpt lat="42.708096" lon="0.322423">
        <ele>2523.5</ele>
        <time>2014-08-24T07:13:18Z</time>
      </trkpt>
      <trkpt lat="42.708047" lon="0.322325">
        <ele>2526.1</ele>
        <time>2014-08-24T07:13:43Z</time>
      </trkpt>
      <trkpt lat="42.707988" lon="0.322233">
        <ele>2529.2</ele>
        <time>2014-08-24T07:14:08Z</time>
      </trkpt>
      <trkpt lat="42.707935" lon="0.322133">
        <ele>2532.9</ele>
        <time>2014-08-24T07:14:40Z</time>
      </trkpt>
      <trkpt lat="42.707885" lon="0.322051">
        <ele>2535.9</ele>
        <time>2014-08-24T07:15:10Z</time>
      </trkpt>
      <trkpt lat="42.707841" lon="0.321956">
        <ele>2539.4</ele>
        <time>2014-08-24T07:15:44Z</time>
      </trkpt>
      <trkpt lat="42.707790" lon="0.321874">
        <ele>2543.6</ele>
        <time>2014-08-24T07:16:17Z</time>
      </trkpt>
      <trkpt lat="42.707736" lon="0.321791">
        <ele>2545.8</ele>
        <time>2014-08-24T07:16:45Z</time>
      </trkpt>
      <trkpt lat="42.707700" lon="0.321738">
        <ele>2549.0</ele>
        <time>2014-08-24T07:17:23Z</time>
      </trkpt>
      <trkpt lat="42.707658" lon="0.321683">
        <ele>2552.9</ele>
        <time>2014-08-24T07:17:51Z</time>
      </trkpt>
      <trkpt lat="42.707587" lon="0.321631">
        <ele>2554.8</ele>
        <time>2014-08-24T07:18:21Z</time>
      </trkpt>
      <trkpt lat="42.707553" lon="0.321521">
        <ele>2557.8</ele>
        <time>2014-08-24T07:18:48Z</time>
      </trkpt>
      <trkpt lat="42.707519" lon="0.321434">
        <ele>2560.0</ele>
        <time>2014-08-24T07:19:16Z</time>
      </trkpt>
      <trkpt lat="42.707470" lon="0.321331">
        <ele>2564.7</ele>
        <time>2014-08-24T07:19:59Z</time>
      </trkpt>
      <trkpt lat="42.707491" lon="0.321269">
        <ele>2566.2</ele>
        <time>2014-08-24T07:21:51Z</time>
      </trkpt>
      <trkpt lat="42.707451" lon="0.321185">
        <ele>2569.1</ele>
        <time>2014-08-24T07:22:14Z</time>
      </trkpt>
      <trkpt lat="42.707422" lon="0.321065">
        <ele>2571.7</ele>
        <time>2014-08-24T07:22:38Z</time>
      </trkpt>
      <trkpt lat="42.707408" lon="0.320954">
        <ele>2573.8</ele>
        <time>2014-08-24T07:23:04Z</time>
      </trkpt>
      <trkpt lat="42.707365" lon="0.320902">
        <ele>2577.6</ele>
        <time>2014-08-24T07:23:41Z</time>
      </trkpt>
      <trkpt lat="42.707307" lon="0.320799">
        <ele>2581.0</ele>
        <time>2014-08-24T07:24:07Z</time>
      </trkpt>
      <trkpt lat="42.707265" lon="0.320724">
        <ele>2583.7</ele>
        <time>2014-08-24T07:24:29Z</time>
      </trkpt>
      <trkpt lat="42.707251" lon="0.320643">
        <ele>2586.2</ele>
        <time>2014-08-24T07:24:52Z</time>
      </trkpt>
      <trkpt lat="42.707241" lon="0.320573">
        <ele>2589.3</ele>
        <time>2014-08-24T07:25:18Z</time>
      </trkpt>
      <trkpt lat="42.707181" lon="0.320477">
        <ele>2601.2</ele>
        <time>2014-08-24T07:27:19Z</time>
      </trkpt>
      <trkpt lat="42.707173" lon="0.320405">
        <ele>2603.8</ele>
        <time>2014-08-24T07:27:41Z</time>
      </trkpt>
      <trkpt lat="42.707148" lon="0.320339">
        <ele>2607.0</ele>
        <time>2014-08-24T07:28:14Z</time>
      </trkpt>
      <trkpt lat="42.707084" lon="0.320308">
        <ele>2610.0</ele>
        <time>2014-08-24T07:28:39Z</time>
      </trkpt>
      <trkpt lat="42.707023" lon="0.320303">
        <ele>2616.4</ele>
        <time>2014-08-24T07:29:30Z</time>
      </trkpt>
      <trkpt lat="42.706981" lon="0.320293">
        <ele>2619.7</ele>
        <time>2014-08-24T07:30:07Z</time>
      </trkpt>
      <trkpt lat="42.706964" lon="0.320215">
        <ele>2622.2</ele>
        <time>2014-08-24T07:30:37Z</time>
      </trkpt>
      <trkpt lat="42.706925" lon="0.320187">
        <ele>2625.4</ele>
        <time>2014-08-24T07:31:10Z</time>
      </trkpt>
      <trkpt lat="42.706927" lon="0.320093">
        <ele>2632.6</ele>
        <time>2014-08-24T07:32:05Z</time>
      </trkpt>
      <trkpt lat="42.706904" lon="0.320003">
        <ele>2635.1</ele>
        <time>2014-08-24T07:32:30Z</time>
      </trkpt>
      <trkpt lat="42.706901" lon="0.319944">
        <ele>2638.5</ele>
        <time>2014-08-24T07:32:56Z</time>
      </trkpt>
      <trkpt lat="42.706819" lon="0.319907">
        <ele>2641.7</ele>
        <time>2014-08-24T07:33:26Z</time>
      </trkpt>
      <trkpt lat="42.706724" lon="0.319889">
        <ele>2649.1</ele>
        <time>2014-08-24T07:34:29Z</time>
      </trkpt>
      <trkpt lat="42.706635" lon="0.319835">
        <ele>2652.0</ele>
        <time>2014-08-24T07:46:51Z</time>
      </trkpt>
      <trkpt lat="42.706597" lon="0.319888">
        <ele>2654.0</ele>
        <time>2014-08-24T07:48:04Z</time>
      </trkpt>
      <trkpt lat="42.706541" lon="0.319997">
        <ele>2654.4</ele>
        <time>2014-08-24T07:48:19Z</time>
      </trkpt>
      <trkpt lat="42.706461" lon="0.320101">
        <ele>2655.7</ele>
        <time>2014-08-24T07:48:33Z</time>
      </trkpt>
      <trkpt lat="42.706398" lon="0.320216">
        <ele>2658.4</ele>
        <time>2014-08-24T07:48:49Z</time>
      </trkpt>
      <trkpt lat="42.706352" lon="0.320334">
        <ele>2660.6</ele>
        <time>2014-08-24T07:49:08Z</time>
      </trkpt>
      <trkpt lat="42.706350" lon="0.320459">
        <ele>2664.4</ele>
        <time>2014-08-24T07:49:27Z</time>
      </trkpt>
      <trkpt lat="42.706320" lon="0.320574">
        <ele>2667.3</ele>
        <time>2014-08-24T07:49:42Z</time>
      </trkpt>
      <trkpt lat="42.706259" lon="0.320670">
        <ele>2668.5</ele>
        <time>2014-08-24T07:49:57Z</time>
      </trkpt>
      <trkpt lat="42.706208" lon="0.320779">
        <ele>2670.0</ele>
        <time>2014-08-24T07:50:14Z</time>
      </trkpt>
      <trkpt lat="42.706166" lon="0.320897">
        <ele>2672.8</ele>
        <time>2014-08-24T07:50:31Z</time>
      </trkpt>
      <trkpt lat="42.706105" lon="0.321002">
        <ele>2675.9</ele>
        <time>2014-08-24T07:50:53Z</time>
      </trkpt>
      <trkpt lat="42.706119" lon="0.321106">
        <ele>2680.4</ele>
        <time>2014-08-24T07:51:16Z</time>
      </trkpt>
      <trkpt lat="42.706134" lon="0.321214">
        <ele>2684.3</ele>
        <time>2014-08-24T07:51:38Z</time>
      </trkpt>
      <trkpt lat="42.706107" lon="0.321312">
        <ele>2688.7</ele>
        <time>2014-08-24T07:52:05Z</time>
      </trkpt>
      <trkpt lat="42.706148" lon="0.321402">
        <ele>2691.2</ele>
        <time>2014-08-24T07:52:33Z</time>
      </trkpt>
      <trkpt lat="42.706124" lon="0.321489">
        <ele>2694.5</ele>
        <time>2014-08-24T07:52:57Z</time>
      </trkpt>
      <trkpt lat="42.706093" lon="0.321594">
        <ele>2699.6</ele>
        <time>2014-08-24T07:53:29Z</time>
      </trkpt>
      <trkpt lat="42.706067" lon="0.321714">
        <ele>2702.8</ele>
        <time>2014-08-24T07:53:54Z</time>
      </trkpt>
      <trkpt lat="42.706040" lon="0.321827">
        <ele>2708.7</ele>
        <time>2014-08-24T07:54:28Z</time>
      </trkpt>
      <trkpt lat="42.706054" lon="0.321914">
        <ele>2713.7</ele>
        <time>2014-08-24T07:54:59Z</time>
      </trkpt>
      <trkpt lat="42.706019" lon="0.321989">
        <ele>2718.1</ele>
        <time>2014-08-24T07:55:26Z</time>
      </trkpt>
      <trkpt lat="42.705994" lon="0.322074">
        <ele>2722.8</ele>
        <time>2014-08-24T07:55:53Z</time>
      </trkpt>
      <trkpt lat="42.705983" lon="0.322181">
        <ele>2727.0</ele>
        <time>2014-08-24T07:56:26Z</time>
      </trkpt>
      <trkpt lat="42.705980" lon="0.322237">
        <ele>2730.5</ele>
        <time>2014-08-24T07:57:07Z</time>
      </trkpt>
      <trkpt lat="42.706019" lon="0.322313">
        <ele>2733.9</ele>
        <time>2014-08-24T07:57:32Z</time>
      </trkpt>
      <trkpt lat="42.706018" lon="0.322403">
        <ele>2738.2</ele>
        <time>2014-08-24T07:58:01Z</time>
      </trkpt>
      <trkpt lat="42.705979" lon="0.322511">
        <ele>2743.6</ele>
        <time>2014-08-24T07:58:32Z</time>
      </trkpt>
      <trkpt lat="42.705948" lon="0.322596">
        <ele>2747.2</ele>
        <time>2014-08-24T07:58:57Z</time>
      </trkpt>
      <trkpt lat="42.705928" lon="0.322689">
        <ele>2751.1</ele>
        <time>2014-08-24T07:59:27Z</time>
      </trkpt>
      <trkpt lat="42.705883" lon="0.322769">
        <ele>2754.3</ele>
        <time>2014-08-24T07:59:59Z</time>
      </trkpt>
      <trkpt lat="42.705838" lon="0.322859">
        <ele>2758.9</ele>
        <time>2014-08-24T08:00:32Z</time>
      </trkpt>
      <trkpt lat="42.705788" lon="0.322946">
        <ele>2763.3</ele>
        <time>2014-08-24T08:00:59Z</time>
      </trkpt>
      <trkpt lat="42.705824" lon="0.323021">
        <ele>2767.6</ele>
        <time>2014-08-24T08:01:31Z</time>
      </trkpt>
      <trkpt lat="42.705783" lon="0.323108">
        <ele>2772.3</ele>
        <time>2014-08-24T08:02:09Z</time>
      </trkpt>
      <trkpt lat="42.705761" lon="0.323226">
        <ele>2776.3</ele>
        <time>2014-08-24T08:02:38Z</time>
      </trkpt>
      <trkpt lat="42.705746" lon="0.323325">
        <ele>2778.8</ele>
        <time>2014-08-24T08:03:06Z</time>
      </trkpt>
      <trkpt lat="42.705750" lon="0.323420">
        <ele>2785.4</ele>
        <time>2014-08-24T08:03:38Z</time>
      </trkpt>
      <trkpt lat="42.705732" lon="0.323503">
        <ele>2787.9</ele>
        <time>2014-08-24T08:04:04Z</time>
      </trkpt>
      <trkpt lat="42.705734" lon="0.323562">
        <ele>2790.7</ele>
        <time>2014-08-24T08:04:28Z</time>
      </trkpt>
      <trkpt lat="42.705686" lon="0.323643">
        <ele>2793.8</ele>
        <time>2014-08-24T08:04:57Z</time>
      </trkpt>
      <trkpt lat="42.705684" lon="0.323743">
        <ele>2800.2</ele>
        <time>2014-08-24T08:05:36Z</time>
      </trkpt>
      <trkpt lat="42.705626" lon="0.323836">
        <ele>2804.1</ele>
        <time>2014-08-24T08:05:58Z</time>
      </trkpt>
      <trkpt lat="42.705632" lon="0.323895">
        <ele>2806.2</ele>
        <time>2014-08-24T08:06:22Z</time>
      </trkpt>
      <trkpt lat="42.705578" lon="0.323957">
        <ele>2811.9</ele>
        <time>2014-08-24T08:06:54Z</time>
      </trkpt>
      <trkpt lat="42.705540" lon="0.324064">
        <ele>2815.5</ele>
        <time>2014-08-24T08:07:21Z</time>
      </trkpt>
      <trkpt lat="42.705500" lon="0.324165">
        <ele>2817.7</ele>
        <time>2014-08-24T08:07:47Z</time>
      </trkpt>
      <trkpt lat="42.705467" lon="0.324260">
        <ele>2821.5</ele>
        <time>2014-08-24T08:08:13Z</time>
      </trkpt>
      <trkpt lat="42.705419" lon="0.324343">
        <ele>2823.8</ele>
        <time>2014-08-24T08:08:37Z</time>
      </trkpt>
      <trkpt lat="42.705410" lon="0.324428">
        <ele>2827.3</ele>
        <time>2014-08-24T08:09:06Z</time>
      </trkpt>
      <trkpt lat="42.705388" lon="0.324502">
        <ele>2833.0</ele>
        <time>2014-08-24T08:09:37Z</time>
      </trkpt>
      <trkpt lat="42.705339" lon="0.324603">
        <ele>2836.2</ele>
        <time>2014-08-24T08:10:00Z</time>
      </trkpt>
      <trkpt lat="42.705303" lon="0.324695">
        <ele>2838.9</ele>
        <time>2014-08-24T08:10:41Z</time>
      </trkpt>
      <trkpt lat="42.705284" lon="0.324790">
        <ele>2842.0</ele>
        <time>2014-08-24T08:11:14Z</time>
      </trkpt>
      <trkpt lat="42.705281" lon="0.324911">
        <ele>2844.9</ele>
        <time>2014-08-24T08:11:35Z</time>
      </trkpt>
      <trkpt lat="42.705299" lon="0.325007">
        <ele>2850.3</ele>
        <time>2014-08-24T08:12:07Z</time>
      </trkpt>
      <trkpt lat="42.705278" lon="0.325106">
        <ele>2855.0</ele>
        <time>2014-08-24T08:12:38Z</time>
      </trkpt>
      <trkpt lat="42.705238" lon="0.325220">
        <ele>2857.8</ele>
        <time>2014-08-24T08:13:03Z</time>
      </trkpt>
      <trkpt lat="42.705234" lon="0.325348">
        <ele>2861.2</ele>
        <time>2014-08-24T08:13:24Z</time>
      </trkpt>
      <trkpt lat="42.705233" lon="0.325480">
        <ele>2862.0</ele>
        <time>2014-08-24T08:13:43Z</time>
      </trkpt>
      <trkpt lat="42.705228" lon="0.325563">
        <ele>2861.6</ele>
        <time>2014-08-24T08:17:15Z</time>
      </trkpt>
      <trkpt lat="42.705243" lon="0.325693">
        <ele>2860.6</ele>
        <time>2014-08-24T08:17:29Z</time>
      </trkpt>
      <trkpt lat="42.705260" lon="0.325821">
        <ele>2859.0</ele>
        <time>2014-08-24T08:17:46Z</time>
      </trkpt>
      <trkpt lat="42.705250" lon="0.325944">
        <ele>2857.4</ele>
        <time>2014-08-24T08:18:15Z</time>
      </trkpt>
      <trkpt lat="42.705262" lon="0.326066">
        <ele>2856.5</ele>
        <time>2014-08-24T08:18:30Z</time>
      </trkpt>
      <trkpt lat="42.705268" lon="0.326179">
        <ele>2854.5</ele>
        <time>2014-08-24T08:18:43Z</time>
      </trkpt>
      <trkpt lat="42.705304" lon="0.326266">
        <ele>2852.6</ele>
        <time>2014-08-24T08:19:03Z</time>
      </trkpt>
      <trkpt lat="42.705318" lon="0.326390">
        <ele>2850.7</ele>
        <time>2014-08-24T08:19:17Z</time>
      </trkpt>
      <trkpt lat="42.705324" lon="0.326535">
        <ele>2849.6</ele>
        <time>2014-08-24T08:19:29Z</time>
      </trkpt>
      <trkpt lat="42.705334" lon="0.326668">
        <ele>2847.5</ele>
        <time>2014-08-24T08:19:40Z</time>
      </trkpt>
      <trkpt lat="42.705345" lon="0.326800">
        <ele>2845.0</ele>
        <time>2014-08-24T08:19:50Z</time>
      </trkpt>
      <trkpt lat="42.705363" lon="0.326939">
        <ele>2842.5</ele>
        <time>2014-08-24T08:20:00Z</time>
      </trkpt>
      <trkpt lat="42.705348" lon="0.327063">
        <ele>2840.7</ele>
        <time>2014-08-24T08:20:09Z</time>
      </trkpt>
      <trkpt lat="42.705344" lon="0.327197">
        <ele>2837.8</ele>
        <time>2014-08-24T08:20:19Z</time>
      </trkpt>
      <trkpt lat="42.705352" lon="0.327326">
        <ele>2834.8</ele>
        <time>2014-08-24T08:20:29Z</time>
      </trkpt>
      <trkpt lat="42.705357" lon="0.327438">
        <ele>2831.2</ele>
        <time>2014-08-24T08:21:19Z</time>
      </trkpt>
      <trkpt lat="42.705383" lon="0.327558">
        <ele>2829.3</ele>
        <time>2014-08-24T08:21:28Z</time>
      </trkpt>
      <trkpt lat="42.705410" lon="0.327670">
        <ele>2826.4</ele>
        <time>2014-08-24T08:21:36Z</time>
      </trkpt>
      <trkpt lat="42.705444" lon="0.327801">
        <ele>2824.2</ele>
        <time>2014-08-24T08:21:44Z</time>
      </trkpt>
      <trkpt lat="42.705461" lon="0.327936">
        <ele>2822.5</ele>
        <time>2014-08-24T08:21:52Z</time>
      </trkpt>
      <trkpt lat="42.705483" lon="0.328060">
        <ele>2821.4</ele>
        <time>2014-08-24T08:22:00Z</time>
      </trkpt>
      <trkpt lat="42.705529" lon="0.328178">
        <ele>2819.7</ele>
        <time>2014-08-24T08:22:08Z</time>
      </trkpt>
      <trkpt lat="42.705566" lon="0.328293">
        <ele>2818.1</ele>
        <time>2014-08-24T08:22:15Z</time>
      </trkpt>
      <trkpt lat="42.705601" lon="0.328430">
        <ele>2816.3</ele>
        <time>2014-08-24T08:22:23Z</time>
      </trkpt>
      <trkpt lat="42.705649" lon="0.328544">
        <ele>2815.1</ele>
        <time>2014-08-24T08:22:31Z</time>
      </trkpt>
      <trkpt lat="42.705700" lon="0.328649">
        <ele>2815.0</ele>
        <time>2014-08-24T08:22:41Z</time>
      </trkpt>
      <trkpt lat="42.705745" lon="0.328774">
        <ele>2815.8</ele>
        <time>2014-08-24T08:22:54Z</time>
      </trkpt>
      <trkpt lat="42.705792" lon="0.328889">
        <ele>2816.0</ele>
        <time>2014-08-24T08:23:06Z</time>
      </trkpt>
      <trkpt lat="42.705849" lon="0.329022">
        <ele>2816.7</ele>
        <time>2014-08-24T08:23:18Z</time>
      </trkpt>
      <trkpt lat="42.705910" lon="0.329150">
        <ele>2817.6</ele>
        <time>2014-08-24T08:23:31Z</time>
      </trkpt>
      <trkpt lat="42.705925" lon="0.329274">
        <ele>2816.8</ele>
        <time>2014-08-24T08:23:41Z</time>
      </trkpt>
      <trkpt lat="42.705979" lon="0.329375">
        <ele>2816.8</ele>
        <time>2014-08-24T08:23:54Z</time>
      </trkpt>
      <trkpt lat="42.706024" lon="0.329483">
        <ele>2818.8</ele>
        <time>2014-08-24T08:24:06Z</time>
      </trkpt>
      <trkpt lat="42.706067" lon="0.329606">
        <ele>2820.2</ele>
        <time>2014-08-24T08:24:22Z</time>
      </trkpt>
      <trkpt lat="42.706108" lon="0.329735">
        <ele>2820.6</ele>
        <time>2014-08-24T08:24:32Z</time>
      </trkpt>
      <trkpt lat="42.706146" lon="0.329858">
        <ele>2820.8</ele>
        <time>2014-08-24T08:24:45Z</time>
      </trkpt>
      <trkpt lat="42.706213" lon="0.329938">
        <ele>2822.9</ele>
        <time>2014-08-24T08:25:01Z</time>
      </trkpt>
      <trkpt lat="42.706256" lon="0.330049">
        <ele>2825.4</ele>
        <time>2014-08-24T08:25:14Z</time>
      </trkpt>
      <trkpt lat="42.706268" lon="0.330176">
        <ele>2826.4</ele>
        <time>2014-08-24T08:25:26Z</time>
      </trkpt>
      <trkpt lat="42.706288" lon="0.330283">
        <ele>2827.5</ele>
        <time>2014-08-24T08:25:43Z</time>
      </trkpt>
      <trkpt lat="42.706338" lon="0.330381">
        <ele>2830.0</ele>
        <time>2014-08-24T08:26:04Z</time>
      </trkpt>
      <trkpt lat="42.706406" lon="0.330418">
        <ele>2833.7</ele>
        <time>2014-08-24T08:26:25Z</time>
      </trkpt>
      <trkpt lat="42.706445" lon="0.330524">
        <ele>2836.8</ele>
        <time>2014-08-24T08:26:44Z</time>
      </trkpt>
      <trkpt lat="42.706527" lon="0.330562">
        <ele>2840.2</ele>
        <time>2014-08-24T08:27:05Z</time>
      </trkpt>
      <trkpt lat="42.706609" lon="0.330608">
        <ele>2842.8</ele>
        <time>2014-08-24T08:27:24Z</time>
      </trkpt>
      <trkpt lat="42.706675" lon="0.330698">
        <ele>2845.4</ele>
        <time>2014-08-24T08:27:46Z</time>
      </trkpt>
      <trkpt lat="42.706723" lon="0.330785">
        <ele>2849.0</ele>
        <time>2014-08-24T08:28:12Z</time>
      </trkpt>
      <trkpt lat="42.706783" lon="0.330781">
        <ele>2852.4</ele>
        <time>2014-08-24T08:28:33Z</time>
      </trkpt>
      <trkpt lat="42.706812" lon="0.330864">
        <ele>2856.3</ele>
        <time>2014-08-24T08:29:07Z</time>
      </trkpt>
      <trkpt lat="42.706856" lon="0.330901">
        <ele>2860.6</ele>
        <time>2014-08-24T08:29:37Z</time>
      </trkpt>
      <trkpt lat="42.706823" lon="0.331025">
        <ele>2862.4</ele>
        <time>2014-08-24T08:30:56Z</time>
      </trkpt>
      <trkpt lat="42.706884" lon="0.331092">
        <ele>2867.0</ele>
        <time>2014-08-24T08:31:23Z</time>
      </trkpt>
      <trkpt lat="42.706959" lon="0.331165">
        <ele>2870.8</ele>
        <time>2014-08-24T08:31:50Z</time>
      </trkpt>
      <trkpt lat="42.707023" lon="0.331221">
        <ele>2874.1</ele>
        <time>2014-08-24T08:32:15Z</time>
      </trkpt>
      <trkpt lat="42.707089" lon="0.331162">
        <ele>2877.8</ele>
        <time>2014-08-24T08:32:40Z</time>
      </trkpt>
      <trkpt lat="42.707140" lon="0.331230">
        <ele>2882.3</ele>
        <time>2014-08-24T08:33:08Z</time>
      </trkpt>
      <trkpt lat="42.707169" lon="0.331337">
        <ele>2885.7</ele>
        <time>2014-08-24T08:33:34Z</time>
      </trkpt>
      <trkpt lat="42.707179" lon="0.331459">
        <ele>2890.1</ele>
        <time>2014-08-24T08:33:56Z</time>
      </trkpt>
      <trkpt lat="42.707198" lon="0.331595">
        <ele>2890.5</ele>
        <time>2014-08-24T08:34:10Z</time>
      </trkpt>
      <trkpt lat="42.707162" lon="0.331706">
        <ele>2890.6</ele>
        <time>2014-08-24T08:34:28Z</time>
      </trkpt>
      <trkpt lat="42.707192" lon="0.331817">
        <ele>2886.6</ele>
        <time>2014-08-24T08:34:49Z</time>
      </trkpt>
      <trkpt lat="42.707196" lon="0.331903">
        <ele>2885.1</ele>
        <time>2014-08-24T08:35:10Z</time>
      </trkpt>
      <trkpt lat="42.707200" lon="0.332022">
        <ele>2885.7</ele>
        <time>2014-08-24T08:35:28Z</time>
      </trkpt>
      <trkpt lat="42.707218" lon="0.332125">
        <ele>2885.1</ele>
        <time>2014-08-24T08:35:44Z</time>
      </trkpt>
      <trkpt lat="42.707244" lon="0.332206">
        <ele>2885.2</ele>
        <time>2014-08-24T08:35:58Z</time>
      </trkpt>
      <trkpt lat="42.707253" lon="0.332316">
        <ele>2884.9</ele>
        <time>2014-08-24T08:36:12Z</time>
      </trkpt>
      <trkpt lat="42.707249" lon="0.332432">
        <ele>2885.5</ele>
        <time>2014-08-24T08:36:24Z</time>
      </trkpt>
      <trkpt lat="42.707267" lon="0.332582">
        <ele>2885.6</ele>
        <time>2014-08-24T08:36:38Z</time>
      </trkpt>
      <trkpt lat="42.707290" lon="0.332705">
        <ele>2885.2</ele>
        <time>2014-08-24T08:36:51Z</time>
      </trkpt>
      <trkpt lat="42.707302" lon="0.332858">
        <ele>2884.6</ele>
        <time>2014-08-24T08:37:04Z</time>
      </trkpt>
      <trkpt lat="42.707357" lon="0.332964">
        <ele>2885.6</ele>
        <time>2014-08-24T08:37:27Z</time>
      </trkpt>
      <trkpt lat="42.707384" lon="0.333088">
        <ele>2883.9</ele>
        <time>2014-08-24T08:37:41Z</time>
      </trkpt>
      <trkpt lat="42.707369" lon="0.333205">
        <ele>2882.0</ele>
        <time>2014-08-24T08:37:54Z</time>
      </trkpt>
      <trkpt lat="42.707362" lon="0.333351">
        <ele>2882.5</ele>
        <time>2014-08-24T08:38:08Z</time>
      </trkpt>
      <trkpt lat="42.707415" lon="0.333438">
        <ele>2885.3</ele>
        <time>2014-08-24T08:38:27Z</time>
      </trkpt>
      <trkpt lat="42.707455" lon="0.333377">
        <ele>2888.1</ele>
        <time>2014-08-24T08:38:49Z</time>
      </trkpt>
      <trkpt lat="42.707467" lon="0.333297">
        <ele>2890.9</ele>
        <time>2014-08-24T08:39:08Z</time>
      </trkpt>
      <trkpt lat="42.707505" lon="0.333222">
        <ele>2894.5</ele>
        <time>2014-08-24T08:39:31Z</time>
      </trkpt>
      <trkpt lat="42.707541" lon="0.333114">
        <ele>2899.6</ele>
        <time>2014-08-24T08:40:05Z</time>
      </trkpt>
      <trkpt lat="42.707499" lon="0.333024">
        <ele>2903.2</ele>
        <time>2014-08-24T08:40:26Z</time>
      </trkpt>
      <trkpt lat="42.707525" lon="0.333105">
        <ele>2903.6</ele>
        <time>2014-08-24T08:40:51Z</time>
      </trkpt>
      <trkpt lat="42.707520" lon="0.333216">
        <ele>2904.8</ele>
        <time>2014-08-24T08:41:56Z</time>
      </trkpt>
      <trkpt lat="42.707559" lon="0.333316">
        <ele>2905.5</ele>
        <time>2014-08-24T08:42:14Z</time>
      </trkpt>
      <trkpt lat="42.707601" lon="0.333436">
        <ele>2908.2</ele>
        <time>2014-08-24T08:42:35Z</time>
      </trkpt>
      <trkpt lat="42.707628" lon="0.333545">
        <ele>2909.8</ele>
        <time>2014-08-24T08:42:49Z</time>
      </trkpt>
      <trkpt lat="42.707665" lon="0.333641">
        <ele>2912.8</ele>
        <time>2014-08-24T08:43:07Z</time>
      </trkpt>
      <trkpt lat="42.707687" lon="0.333762">
        <ele>2915.4</ele>
        <time>2014-08-24T08:43:25Z</time>
      </trkpt>
      <trkpt lat="42.707713" lon="0.333883">
        <ele>2919.9</ele>
        <time>2014-08-24T08:43:50Z</time>
      </trkpt>
      <trkpt lat="42.707753" lon="0.333993">
        <ele>2925.0</ele>
        <time>2014-08-24T08:44:24Z</time>
      </trkpt>
      <trkpt lat="42.707738" lon="0.334102">
        <ele>2927.2</ele>
        <time>2014-08-24T08:45:18Z</time>
      </trkpt>
      <trkpt lat="42.707772" lon="0.334151">
        <ele>2928.0</ele>
        <time>2014-08-24T08:45:41Z</time>
      </trkpt>
      <trkpt lat="42.707760" lon="0.334257">
        <ele>2935.1</ele>
        <time>2014-08-24T08:46:20Z</time>
      </trkpt>
      <trkpt lat="42.707799" lon="0.334376">
        <ele>2940.8</ele>
        <time>2014-08-24T08:46:49Z</time>
      </trkpt>
      <trkpt lat="42.707807" lon="0.334496">
        <ele>2944.7</ele>
        <time>2014-08-24T08:47:24Z</time>
      </trkpt>
      <trkpt lat="42.707846" lon="0.334611">
        <ele>2946.9</ele>
        <time>2014-08-24T08:47:47Z</time>
      </trkpt>
      <trkpt lat="42.707918" lon="0.334662">
        <ele>2946.1</ele>
        <time>2014-08-24T08:48:15Z</time>
      </trkpt>
      <trkpt lat="42.707933" lon="0.334746">
        <ele>2948.7</ele>
        <time>2014-08-24T08:48:39Z</time>
      </trkpt>
      <trkpt lat="42.708000" lon="0.334836">
        <ele>2950.1</ele>
        <time>2014-08-24T08:48:54Z</time>
      </trkpt>
      <trkpt lat="42.708069" lon="0.334926">
        <ele>2950.6</ele>
        <time>2014-08-24T08:49:08Z</time>
      </trkpt>
      <trkpt lat="42.708100" lon="0.335023">
        <ele>2955.5</ele>
        <time>2014-08-24T08:49:38Z</time>
      </trkpt>
      <trkpt lat="42.708137" lon="0.335137">
        <ele>2959.1</ele>
        <time>2014-08-24T08:49:58Z</time>
      </trkpt>
      <trkpt lat="42.708154" lon="0.335241">
        <ele>2961.4</ele>
        <time>2014-08-24T08:50:21Z</time>
      </trkpt>
      <trkpt lat="42.708207" lon="0.335332">
        <ele>2964.1</ele>
        <time>2014-08-24T08:50:40Z</time>
      </trkpt>
      <trkpt lat="42.708278" lon="0.335398">
        <ele>2965.3</ele>
        <time>2014-08-24T08:51:00Z</time>
      </trkpt>
      <trkpt lat="42.708294" lon="0.335498">
        <ele>2970.1</ele>
        <time>2014-08-24T08:51:27Z</time>
      </trkpt>
      <trkpt lat="42.708341" lon="0.335597">
        <ele>2971.9</ele>
        <time>2014-08-24T08:51:47Z</time>
      </trkpt>
      <trkpt lat="42.708339" lon="0.335707">
        <ele>2974.2</ele>
        <time>2014-08-24T08:52:06Z</time>
      </trkpt>
      <trkpt lat="42.708359" lon="0.335827">
        <ele>2976.7</ele>
        <time>2014-08-24T08:52:31Z</time>
      </trkpt>
      <trkpt lat="42.708383" lon="0.335913">
        <ele>2980.3</ele>
        <time>2014-08-24T08:53:15Z</time>
      </trkpt>
      <trkpt lat="42.708414" lon="0.336033">
        <ele>2982.9</ele>
        <time>2014-08-24T08:53:32Z</time>
      </trkpt>
      <trkpt lat="42.708479" lon="0.336118">
        <ele>2984.1</ele>
        <time>2014-08-24T08:53:48Z</time>
      </trkpt>
      <trkpt lat="42.708564" lon="0.336147">
        <ele>2985.1</ele>
        <time>2014-08-24T08:54:04Z</time>
      </trkpt>
      <trkpt lat="42.708653" lon="0.336199">
        <ele>2987.6</ele>
        <time>2014-08-24T08:54:22Z</time>
      </trkpt>
      <trkpt lat="42.708645" lon="0.336199">
        <ele>2988.4</ele>
        <time>2014-08-24T08:59:18Z</time>
      </trkpt>
      <trkpt lat="42.708686" lon="0.336290">
        <ele>2988.4</ele>
        <time>2014-08-24T09:00:07Z</time>
      </trkpt>
      <trkpt lat="42.708762" lon="0.336384">
        <ele>2988.2</ele>
        <time>2014-08-24T09:00:19Z</time>
      </trkpt>
      <trkpt lat="42.708840" lon="0.336446">
        <ele>2987.5</ele>
        <time>2014-08-24T09:00:30Z</time>
      </trkpt>
      <trkpt lat="42.708906" lon="0.336552">
        <ele>2986.1</ele>
        <time>2014-08-24T09:00:41Z</time>
      </trkpt>
      <trkpt lat="42.708977" lon="0.336656">
        <ele>2985.0</ele>
        <time>2014-08-24T09:00:53Z</time>
      </trkpt>
      <trkpt lat="42.709053" lon="0.336741">
        <ele>2983.1</ele>
        <time>2014-08-24T09:01:06Z</time>
      </trkpt>
      <trkpt lat="42.709089" lon="0.336851">
        <ele>2980.2</ele>
        <time>2014-08-24T09:01:22Z</time>
      </trkpt>
      <trkpt lat="42.709097" lon="0.336936">
        <ele>2976.7</ele>
        <time>2014-08-24T09:01:38Z</time>
      </trkpt>
      <trkpt lat="42.709127" lon="0.337027">
        <ele>2971.0</ele>
        <time>2014-08-24T09:02:00Z</time>
      </trkpt>
      <trkpt lat="42.709172" lon="0.337079">
        <ele>2966.8</ele>
        <time>2014-08-24T09:02:23Z</time>
      </trkpt>
      <trkpt lat="42.709245" lon="0.337142">
        <ele>2963.4</ele>
        <time>2014-08-24T09:02:44Z</time>
      </trkpt>
      <trkpt lat="42.709255" lon="0.337200">
        <ele>2959.5</ele>
        <time>2014-08-24T09:03:14Z</time>
      </trkpt>
      <trkpt lat="42.709324" lon="0.337271">
        <ele>2958.7</ele>
        <time>2014-08-24T09:03:29Z</time>
      </trkpt>
      <trkpt lat="42.709402" lon="0.337312">
        <ele>2959.6</ele>
        <time>2014-08-24T09:03:52Z</time>
      </trkpt>
      <trkpt lat="42.709477" lon="0.337382">
        <ele>2960.7</ele>
        <time>2014-08-24T09:04:08Z</time>
      </trkpt>
      <trkpt lat="42.709551" lon="0.337464">
        <ele>2960.8</ele>
        <time>2014-08-24T09:04:24Z</time>
      </trkpt>
      <trkpt lat="42.709591" lon="0.337490">
        <ele>2963.1</ele>
        <time>2014-08-24T09:04:54Z</time>
      </trkpt>
      <trkpt lat="42.709655" lon="0.337578">
        <ele>2967.9</ele>
        <time>2014-08-24T09:05:24Z</time>
      </trkpt>
      <trkpt lat="42.709721" lon="0.337638">
        <ele>2972.5</ele>
        <time>2014-08-24T09:06:01Z</time>
      </trkpt>
      <trkpt lat="42.709789" lon="0.337708">
        <ele>2976.9</ele>
        <time>2014-08-24T09:06:33Z</time>
      </trkpt>
      <trkpt lat="42.709805" lon="0.337747">
        <ele>2980.0</ele>
        <time>2014-08-24T09:07:09Z</time>
      </trkpt>
      <trkpt lat="42.709862" lon="0.337872">
        <ele>2981.2</ele>
        <time>2014-08-24T09:08:02Z</time>
      </trkpt>
      <trkpt lat="42.709894" lon="0.337985">
        <ele>2980.9</ele>
        <time>2014-08-24T09:08:20Z</time>
      </trkpt>
      <trkpt lat="42.709946" lon="0.338087">
        <ele>2983.4</ele>
        <time>2014-08-24T09:08:36Z</time>
      </trkpt>
      <trkpt lat="42.709973" lon="0.338257">
        <ele>2983.1</ele>
        <time>2014-08-24T09:11:20Z</time>
      </trkpt>
      <trkpt lat="42.709979" lon="0.338399">
        <ele>2982.1</ele>
        <time>2014-08-24T09:12:36Z</time>
      </trkpt>
      <trkpt lat="42.709991" lon="0.338527">
        <ele>2980.9</ele>
        <time>2014-08-24T09:12:54Z</time>
      </trkpt>
      <trkpt lat="42.710023" lon="0.338629">
        <ele>2978.2</ele>
        <time>2014-08-24T09:13:15Z</time>
      </trkpt>
      <trkpt lat="42.710045" lon="0.338734">
        <ele>2974.9</ele>
        <time>2014-08-24T09:13:32Z</time>
      </trkpt>
      <trkpt lat="42.710120" lon="0.338811">
        <ele>2977.1</ele>
        <time>2014-08-24T09:14:07Z</time>
      </trkpt>
      <trkpt lat="42.710153" lon="0.338913">
        <ele>2977.5</ele>
        <time>2014-08-24T09:14:31Z</time>
      </trkpt>
      <trkpt lat="42.710223" lon="0.338987">
        <ele>2980.8</ele>
        <time>2014-08-24T09:14:55Z</time>
      </trkpt>
      <trkpt lat="42.710303" lon="0.339009">
        <ele>2982.4</ele>
        <time>2014-08-24T09:15:14Z</time>
      </trkpt>
      <trkpt lat="42.710363" lon="0.339112">
        <ele>2984.1</ele>
        <time>2014-08-24T09:15:30Z</time>
      </trkpt>
      <trkpt lat="42.710406" lon="0.339242">
        <ele>2985.0</ele>
        <time>2014-08-24T09:15:47Z</time>
      </trkpt>
      <trkpt lat="42.710448" lon="0.339450">
        <ele>2987.5</ele>
        <time>2014-08-24T09:31:09Z</time>
      </trkpt>
      <trkpt lat="42.710482" lon="0.339543">
        <ele>2987.7</ele>
        <time>2014-08-24T09:32:10Z</time>
      </trkpt>
      <trkpt lat="42.710494" lon="0.339635">
        <ele>2985.5</ele>
        <time>2014-08-24T09:33:08Z</time>
      </trkpt>
      <trkpt lat="42.710495" lon="0.339670">
        <ele>2987.2</ele>
        <time>2014-08-24T09:34:03Z</time>
      </trkpt>
      <trkpt lat="42.710520" lon="0.339806">
        <ele>2984.5</ele>
        <time>2014-08-24T09:34:19Z</time>
      </trkpt>
      <trkpt lat="42.710556" lon="0.339920">
        <ele>2982.9</ele>
        <time>2014-08-24T09:34:32Z</time>
      </trkpt>
      <trkpt lat="42.710612" lon="0.340022">
        <ele>2982.0</ele>
        <time>2014-08-24T09:34:45Z</time>
      </trkpt>
      <trkpt lat="42.710661" lon="0.340132">
        <ele>2979.0</ele>
        <time>2014-08-24T09:34:59Z</time>
      </trkpt>
      <trkpt lat="42.710691" lon="0.340240">
        <ele>2974.7</ele>
        <time>2014-08-24T09:35:17Z</time>
      </trkpt>
      <trkpt lat="42.710695" lon="0.340324">
        <ele>2972.0</ele>
        <time>2014-08-24T09:35:59Z</time>
      </trkpt>
      <trkpt lat="42.710720" lon="0.340410">
        <ele>2967.6</ele>
        <time>2014-08-24T09:36:40Z</time>
      </trkpt>
      <trkpt lat="42.710690" lon="0.340498">
        <ele>2963.8</ele>
        <time>2014-08-24T09:37:04Z</time>
      </trkpt>
      <trkpt lat="42.710635" lon="0.340541">
        <ele>2957.7</ele>
        <time>2014-08-24T09:37:32Z</time>
      </trkpt>
      <trkpt lat="42.710669" lon="0.340632">
        <ele>2954.5</ele>
        <time>2014-08-24T09:38:13Z</time>
      </trkpt>
      <trkpt lat="42.710679" lon="0.340707">
        <ele>2947.9</ele>
        <time>2014-08-24T09:39:00Z</time>
      </trkpt>
      <trkpt lat="42.710659" lon="0.340773">
        <ele>2942.4</ele>
        <time>2014-08-24T09:39:37Z</time>
      </trkpt>
      <trkpt lat="42.710651" lon="0.340829">
        <ele>2938.8</ele>
        <time>2014-08-24T09:41:01Z</time>
      </trkpt>
      <trkpt lat="42.710636" lon="0.340903">
        <ele>2933.0</ele>
        <time>2014-08-24T09:41:42Z</time>
      </trkpt>
      <trkpt lat="42.710649" lon="0.340989">
        <ele>2928.3</ele>
        <time>2014-08-24T09:42:30Z</time>
      </trkpt>
      <trkpt lat="42.710635" lon="0.341104">
        <ele>2920.8</ele>
        <time>2014-08-24T09:43:10Z</time>
      </trkpt>
      <trkpt lat="42.710605" lon="0.341190">
        <ele>2915.4</ele>
        <time>2014-08-24T09:44:01Z</time>
      </trkpt>
      <trkpt lat="42.710599" lon="0.341306">
        <ele>2907.7</ele>
        <time>2014-08-24T09:45:15Z</time>
      </trkpt>
      <trkpt lat="42.710570" lon="0.341396">
        <ele>2899.1</ele>
        <time>2014-08-24T09:49:26Z</time>
      </trkpt>
      <trkpt lat="42.710525" lon="0.341495">
        <ele>2891.8</ele>
        <time>2014-08-24T09:51:27Z</time>
      </trkpt>
      <trkpt lat="42.710544" lon="0.341572">
        <ele>2882.5</ele>
        <time>2014-08-24T09:54:50Z</time>
      </trkpt>
      <trkpt lat="42.710604" lon="0.341574">
        <ele>2880.1</ele>
        <time>2014-08-24T09:55:20Z</time>
      </trkpt>
      <trkpt lat="42.710683" lon="0.341571">
        <ele>2880.0</ele>
        <time>2014-08-24T09:58:54Z</time>
      </trkpt>
      <trkpt lat="42.710702" lon="0.341712">
        <ele>2877.0</ele>
        <time>2014-08-24T09:59:10Z</time>
      </trkpt>
      <trkpt lat="42.710735" lon="0.341826">
        <ele>2875.1</ele>
        <time>2014-08-24T09:59:29Z</time>
      </trkpt>
      <trkpt lat="42.710782" lon="0.341901">
        <ele>2871.4</ele>
        <time>2014-08-24T10:01:18Z</time>
      </trkpt>
      <trkpt lat="42.710794" lon="0.342026">
        <ele>2868.7</ele>
        <time>2014-08-24T10:01:42Z</time>
      </trkpt>
      <trkpt lat="42.710812" lon="0.342124">
        <ele>2866.3</ele>
        <time>2014-08-24T10:02:03Z</time>
      </trkpt>
      <trkpt lat="42.710805" lon="0.342218">
        <ele>2862.9</ele>
        <time>2014-08-24T10:02:22Z</time>
      </trkpt>
      <trkpt lat="42.710805" lon="0.342280">
        <ele>2858.9</ele>
        <time>2014-08-24T10:02:41Z</time>
      </trkpt>
      <trkpt lat="42.710779" lon="0.342366">
        <ele>2854.9</ele>
        <time>2014-08-24T10:03:19Z</time>
      </trkpt>
      <trkpt lat="42.710752" lon="0.342435">
        <ele>2850.9</ele>
        <time>2014-08-24T10:03:46Z</time>
      </trkpt>
      <trkpt lat="42.710705" lon="0.342489">
        <ele>2845.5</ele>
        <time>2014-08-24T10:04:14Z</time>
      </trkpt>
      <trkpt lat="42.710674" lon="0.342546">
        <ele>2841.4</ele>
        <time>2014-08-24T10:04:43Z</time>
      </trkpt>
      <trkpt lat="42.710702" lon="0.342687">
        <ele>2833.6</ele>
        <time>2014-08-24T10:05:30Z</time>
      </trkpt>
      <trkpt lat="42.710740" lon="0.342705">
        <ele>2831.7</ele>
        <time>2014-08-24T10:08:10Z</time>
      </trkpt>
      <trkpt lat="42.710767" lon="0.342790">
        <ele>2828.3</ele>
        <time>2014-08-24T10:08:29Z</time>
      </trkpt>
      <trkpt lat="42.710740" lon="0.342912">
        <ele>2824.0</ele>
        <time>2014-08-24T10:08:57Z</time>
      </trkpt>
      <trkpt lat="42.710730" lon="0.343027">
        <ele>2823.4</ele>
        <time>2014-08-24T10:09:19Z</time>
      </trkpt>
      <trkpt lat="42.710711" lon="0.343124">
        <ele>2819.2</ele>
        <time>2014-08-24T10:10:09Z</time>
      </trkpt>
      <trkpt lat="42.710729" lon="0.343210">
        <ele>2817.0</ele>
        <time>2014-08-24T10:11:10Z</time>
      </trkpt>
      <trkpt lat="42.710721" lon="0.343293">
        <ele>2817.9</ele>
        <time>2014-08-24T10:11:30Z</time>
      </trkpt>
      <trkpt lat="42.710748" lon="0.343381">
        <ele>2819.3</ele>
        <time>2014-08-24T10:12:15Z</time>
      </trkpt>
      <trkpt lat="42.710742" lon="0.343451">
        <ele>2811.9</ele>
        <time>2014-08-24T10:22:11Z</time>
      </trkpt>
      <trkpt lat="42.710749" lon="0.343548">
        <ele>2814.5</ele>
        <time>2014-08-24T10:22:48Z</time>
      </trkpt>
      <trkpt lat="42.710748" lon="0.343662">
        <ele>2814.6</ele>
        <time>2014-08-24T10:23:44Z</time>
      </trkpt>
      <trkpt lat="42.710695" lon="0.343761">
        <ele>2811.9</ele>
        <time>2014-08-24T10:24:58Z</time>
      </trkpt>
      <trkpt lat="42.710660" lon="0.343878">
        <ele>2814.1</ele>
        <time>2014-08-24T10:25:24Z</time>
      </trkpt>
      <trkpt lat="42.710619" lon="0.343962">
        <ele>2812.8</ele>
        <time>2014-08-24T10:26:22Z</time>
      </trkpt>
      <trkpt lat="42.710593" lon="0.344072">
        <ele>2811.4</ele>
        <time>2014-08-24T10:26:46Z</time>
      </trkpt>
      <trkpt lat="42.710587" lon="0.344066">
        <ele>2812.2</ele>
        <time>2014-08-24T10:27:42Z</time>
      </trkpt>
      <trkpt lat="42.710576" lon="0.344138">
        <ele>2812.5</ele>
        <time>2014-08-24T10:28:16Z</time>
      </trkpt>
      <trkpt lat="42.710616" lon="0.344249">
        <ele>2817.5</ele>
        <time>2014-08-24T10:29:02Z</time>
      </trkpt>
      <trkpt lat="42.710603" lon="0.344318">
        <ele>2817.5</ele>
        <time>2014-08-24T10:30:04Z</time>
      </trkpt>
      <trkpt lat="42.710595" lon="0.344355">
        <ele>2816.2</ele>
        <time>2014-08-24T10:31:09Z</time>
      </trkpt>
      <trkpt lat="42.710570" lon="0.344389">
        <ele>2813.8</ele>
        <time>2014-08-24T10:32:01Z</time>
      </trkpt>
      <trkpt lat="42.710585" lon="0.344456">
        <ele>2813.6</ele>
        <time>2014-08-24T10:32:44Z</time>
      </trkpt>
      <trkpt lat="42.710583" lon="0.344560">
        <ele>2821.5</ele>
        <time>2014-08-24T10:35:28Z</time>
      </trkpt>
      <trkpt lat="42.710572" lon="0.344655">
        <ele>2823.6</ele>
        <time>2014-08-24T10:36:18Z</time>
      </trkpt>
      <trkpt lat="42.710572" lon="0.344646">
        <ele>2823.7</ele>
        <time>2014-08-24T10:38:09Z</time>
      </trkpt>
      <trkpt lat="42.710572" lon="0.344680">
        <ele>2824.9</ele>
        <time>2014-08-24T10:39:33Z</time>
      </trkpt>
      <trkpt lat="42.710558" lon="0.344793">
        <ele>2825.6</ele>
        <time>2014-08-24T10:40:41Z</time>
      </trkpt>
      <trkpt lat="42.710529" lon="0.344892">
        <ele>2824.5</ele>
        <time>2014-08-24T10:41:48Z</time>
      </trkpt>
      <trkpt lat="42.710556" lon="0.344926">
        <ele>2820.6</ele>
        <time>2014-08-24T10:42:43Z</time>
      </trkpt>
      <trkpt lat="42.710583" lon="0.344999">
        <ele>2816.5</ele>
        <time>2014-08-24T10:43:10Z</time>
      </trkpt>
      <trkpt lat="42.710582" lon="0.345051">
        <ele>2809.3</ele>
        <time>2014-08-24T10:44:23Z</time>
      </trkpt>
      <trkpt lat="42.710564" lon="0.345103">
        <ele>2806.0</ele>
        <time>2014-08-24T10:45:21Z</time>
      </trkpt>
      <trkpt lat="42.710607" lon="0.345169">
        <ele>2790.3</ele>
        <time>2014-08-24T11:07:07Z</time>
      </trkpt>
      <trkpt lat="42.710565" lon="0.345253">
        <ele>2787.9</ele>
        <time>2014-08-24T11:10:45Z</time>
      </trkpt>
      <trkpt lat="42.710565" lon="0.345307">
        <ele>2786.1</ele>
        <time>2014-08-24T11:11:44Z</time>
      </trkpt>
      <trkpt lat="42.710612" lon="0.345411">
        <ele>2784.3</ele>
        <time>2014-08-24T11:17:01Z</time>
      </trkpt>
      <trkpt lat="42.710684" lon="0.345406">
        <ele>2788.4</ele>
        <time>2014-08-24T11:17:58Z</time>
      </trkpt>
      <trkpt lat="42.710767" lon="0.345463">
        <ele>2791.7</ele>
        <time>2014-08-24T11:18:21Z</time>
      </trkpt>
      <trkpt lat="42.710808" lon="0.345547">
        <ele>2787.2</ele>
        <time>2014-08-24T11:18:48Z</time>
      </trkpt>
      <trkpt lat="42.710897" lon="0.345620">
        <ele>2785.5</ele>
        <time>2014-08-24T11:19:02Z</time>
      </trkpt>
      <trkpt lat="42.710988" lon="0.345670">
        <ele>2784.9</ele>
        <time>2014-08-24T11:19:11Z</time>
      </trkpt>
      <trkpt lat="42.711088" lon="0.345697">
        <ele>2784.7</ele>
        <time>2014-08-24T11:19:21Z</time>
      </trkpt>
      <trkpt lat="42.711174" lon="0.345659">
        <ele>2784.2</ele>
        <time>2014-08-24T11:19:34Z</time>
      </trkpt>
      <trkpt lat="42.711187" lon="0.345658">
        <ele>2783.9</ele>
        <time>2014-08-24T11:20:11Z</time>
      </trkpt>
      <trkpt lat="42.711240" lon="0.345753">
        <ele>2782.6</ele>
        <time>2014-08-24T11:20:30Z</time>
      </trkpt>
      <trkpt lat="42.711269" lon="0.345852">
        <ele>2778.9</ele>
        <time>2014-08-24T11:20:45Z</time>
      </trkpt>
      <trkpt lat="42.711342" lon="0.345899">
        <ele>2775.4</ele>
        <time>2014-08-24T11:22:50Z</time>
      </trkpt>
      <trkpt lat="42.711421" lon="0.345971">
        <ele>2770.4</ele>
        <time>2014-08-24T11:23:17Z</time>
      </trkpt>
      <trkpt lat="42.711499" lon="0.345951">
        <ele>2768.1</ele>
        <time>2014-08-24T11:23:29Z</time>
      </trkpt>
      <trkpt lat="42.711558" lon="0.345941">
        <ele>2766.3</ele>
        <time>2014-08-24T11:25:57Z</time>
      </trkpt>
      <trkpt lat="42.711665" lon="0.346007">
        <ele>2763.9</ele>
        <time>2014-08-24T11:26:10Z</time>
      </trkpt>
      <trkpt lat="42.711757" lon="0.346089">
        <ele>2761.4</ele>
        <time>2014-08-24T11:26:23Z</time>
      </trkpt>
      <trkpt lat="42.711847" lon="0.346171">
        <ele>2759.1</ele>
        <time>2014-08-24T11:26:34Z</time>
      </trkpt>
      <trkpt lat="42.711923" lon="0.346256">
        <ele>2758.0</ele>
        <time>2014-08-24T11:26:42Z</time>
      </trkpt>
      <trkpt lat="42.712011" lon="0.346317">
        <ele>2759.8</ele>
        <time>2014-08-24T11:26:56Z</time>
      </trkpt>
      <trkpt lat="42.712079" lon="0.346323">
        <ele>2764.1</ele>
        <time>2014-08-24T11:27:15Z</time>
      </trkpt>
      <trkpt lat="42.712167" lon="0.346333">
        <ele>2770.1</ele>
        <time>2014-08-24T11:27:41Z</time>
      </trkpt>
      <trkpt lat="42.712247" lon="0.346320">
        <ele>2773.5</ele>
        <time>2014-08-24T11:28:01Z</time>
      </trkpt>
      <trkpt lat="42.712331" lon="0.346297">
        <ele>2777.1</ele>
        <time>2014-08-24T11:28:30Z</time>
      </trkpt>
      <trkpt lat="42.712376" lon="0.346392">
        <ele>2780.1</ele>
        <time>2014-08-24T11:28:48Z</time>
      </trkpt>
      <trkpt lat="42.712441" lon="0.346442">
        <ele>2783.9</ele>
        <time>2014-08-24T11:29:08Z</time>
      </trkpt>
      <trkpt lat="42.712482" lon="0.346507">
        <ele>2787.6</ele>
        <time>2014-08-24T11:29:34Z</time>
      </trkpt>
      <trkpt lat="42.712554" lon="0.346553">
        <ele>2791.4</ele>
        <time>2014-08-24T11:29:58Z</time>
      </trkpt>
      <trkpt lat="42.712600" lon="0.346670">
        <ele>2793.7</ele>
        <time>2014-08-24T11:30:16Z</time>
      </trkpt>
      <trkpt lat="42.712661" lon="0.346716">
        <ele>2796.3</ele>
        <time>2014-08-24T11:30:39Z</time>
      </trkpt>
      <trkpt lat="42.712739" lon="0.346713">
        <ele>2799.8</ele>
        <time>2014-08-24T11:31:04Z</time>
      </trkpt>
      <trkpt lat="42.712840" lon="0.346726">
        <ele>2804.3</ele>
        <time>2014-08-24T11:31:38Z</time>
      </trkpt>
      <trkpt lat="42.712926" lon="0.346699">
        <ele>2807.0</ele>
        <time>2014-08-24T11:31:57Z</time>
      </trkpt>
      <trkpt lat="42.713011" lon="0.346742">
        <ele>2808.8</ele>
        <time>2014-08-24T11:32:15Z</time>
      </trkpt>
      <trkpt lat="42.713102" lon="0.346785">
        <ele>2810.3</ele>
        <time>2014-08-24T11:32:32Z</time>
      </trkpt>
      <trkpt lat="42.713206" lon="0.346819">
        <ele>2812.9</ele>
        <time>2014-08-24T11:32:49Z</time>
      </trkpt>
      <trkpt lat="42.713265" lon="0.346901">
        <ele>2815.8</ele>
        <time>2014-08-24T11:33:09Z</time>
      </trkpt>
      <trkpt lat="42.713348" lon="0.346892">
        <ele>2819.5</ele>
        <time>2014-08-24T11:33:30Z</time>
      </trkpt>
      <trkpt lat="42.713441" lon="0.346936">
        <ele>2822.8</ele>
        <time>2014-08-24T11:33:51Z</time>
      </trkpt>
      <trkpt lat="42.713481" lon="0.347014">
        <ele>2825.2</ele>
        <time>2014-08-24T11:34:06Z</time>
      </trkpt>
      <trkpt lat="42.713535" lon="0.346989">
        <ele>2828.7</ele>
        <time>2014-08-24T11:34:27Z</time>
      </trkpt>
      <trkpt lat="42.713599" lon="0.347079">
        <ele>2832.8</ele>
        <time>2014-08-24T11:34:51Z</time>
      </trkpt>
      <trkpt lat="42.713662" lon="0.347150">
        <ele>2836.2</ele>
        <time>2014-08-24T11:35:13Z</time>
      </trkpt>
      <trkpt lat="42.713708" lon="0.347254">
        <ele>2840.7</ele>
        <time>2014-08-24T11:35:38Z</time>
      </trkpt>
      <trkpt lat="42.713790" lon="0.347326">
        <ele>2843.4</ele>
        <time>2014-08-24T11:36:00Z</time>
      </trkpt>
      <trkpt lat="42.713834" lon="0.347341">
        <ele>2847.8</ele>
        <time>2014-08-24T11:36:27Z</time>
      </trkpt>
      <trkpt lat="42.713907" lon="0.347426">
        <ele>2850.7</ele>
        <time>2014-08-24T11:36:48Z</time>
      </trkpt>
      <trkpt lat="42.713969" lon="0.347446">
        <ele>2854.3</ele>
        <time>2014-08-24T11:37:14Z</time>
      </trkpt>
      <trkpt lat="42.714020" lon="0.347558">
        <ele>2856.6</ele>
        <time>2014-08-24T11:37:36Z</time>
      </trkpt>
      <trkpt lat="42.714059" lon="0.347665">
        <ele>2859.1</ele>
        <time>2014-08-24T11:37:53Z</time>
      </trkpt>
      <trkpt lat="42.714115" lon="0.347758">
        <ele>2861.6</ele>
        <time>2014-08-24T11:38:12Z</time>
      </trkpt>
      <trkpt lat="42.714156" lon="0.347844">
        <ele>2864.6</ele>
        <time>2014-08-24T11:38:31Z</time>
      </trkpt>
      <trkpt lat="42.714202" lon="0.347938">
        <ele>2866.9</ele>
        <time>2014-08-24T11:38:54Z</time>
      </trkpt>
      <trkpt lat="42.714254" lon="0.348018">
        <ele>2869.5</ele>
        <time>2014-08-24T11:39:16Z</time>
      </trkpt>
      <trkpt lat="42.714322" lon="0.348112">
        <ele>2872.4</ele>
        <time>2014-08-24T11:39:40Z</time>
      </trkpt>
      <trkpt lat="42.714416" lon="0.348205">
        <ele>2875.4</ele>
        <time>2014-08-24T11:40:04Z</time>
      </trkpt>
      <trkpt lat="42.714468" lon="0.348300">
        <ele>2879.4</ele>
        <time>2014-08-24T11:40:31Z</time>
      </trkpt>
      <trkpt lat="42.714530" lon="0.348367">
        <ele>2882.5</ele>
        <time>2014-08-24T11:40:56Z</time>
      </trkpt>
      <trkpt lat="42.714600" lon="0.348428">
        <ele>2886.4</ele>
        <time>2014-08-24T11:41:21Z</time>
      </trkpt>
      <trkpt lat="42.714657" lon="0.348474">
        <ele>2889.1</ele>
        <time>2014-08-24T11:41:46Z</time>
      </trkpt>
      <trkpt lat="42.714727" lon="0.348544">
        <ele>2891.1</ele>
        <time>2014-08-24T11:42:06Z</time>
      </trkpt>
      <trkpt lat="42.714791" lon="0.348602">
        <ele>2893.4</ele>
        <time>2014-08-24T11:42:26Z</time>
      </trkpt>
      <trkpt lat="42.714818" lon="0.348534">
        <ele>2894.1</ele>
        <time>2014-08-24T11:43:04Z</time>
      </trkpt>
      <trkpt lat="42.714899" lon="0.348596">
        <ele>2892.7</ele>
        <time>2014-08-24T11:43:42Z</time>
      </trkpt>
      <trkpt lat="42.714983" lon="0.348611">
        <ele>2897.2</ele>
        <time>2014-08-24T11:44:08Z</time>
      </trkpt>
      <trkpt lat="42.715064" lon="0.348652">
        <ele>2901.6</ele>
        <time>2014-08-24T11:44:32Z</time>
      </trkpt>
      <trkpt lat="42.715109" lon="0.348710">
        <ele>2906.1</ele>
        <time>2014-08-24T11:44:59Z</time>
      </trkpt>
      <trkpt lat="42.715151" lon="0.348826">
        <ele>2908.9</ele>
        <time>2014-08-24T11:45:23Z</time>
      </trkpt>
      <trkpt lat="42.715188" lon="0.348938">
        <ele>2911.5</ele>
        <time>2014-08-24T11:45:41Z</time>
      </trkpt>
      <trkpt lat="42.715224" lon="0.349040">
        <ele>2913.1</ele>
        <time>2014-08-24T11:45:58Z</time>
      </trkpt>
      <trkpt lat="42.715281" lon="0.349132">
        <ele>2915.2</ele>
        <time>2014-08-24T11:46:14Z</time>
      </trkpt>
      <trkpt lat="42.715352" lon="0.349213">
        <ele>2917.1</ele>
        <time>2014-08-24T11:46:31Z</time>
      </trkpt>
      <trkpt lat="42.715374" lon="0.349271">
        <ele>2917.0</ele>
        <time>2014-08-24T11:47:52Z</time>
      </trkpt>
      <trkpt lat="42.715363" lon="0.349253">
        <ele>2916.9</ele>
        <time>2014-08-24T11:48:16Z</time>
      </trkpt>
      <trkpt lat="42.715371" lon="0.349258">
        <ele>2917.1</ele>
        <time>2014-08-24T11:50:00Z</time>
      </trkpt>
      <trkpt lat="42.715372" lon="0.349265">
        <ele>2916.6</ele>
        <time>2014-08-24T12:07:19Z</time>
      </trkpt>
      <trkpt lat="42.715345" lon="0.349257">
        <ele>2917.0</ele>
        <time>2014-08-24T12:17:26Z</time>
      </trkpt>
      <trkpt lat="42.715395" lon="0.349333">
        <ele>2918.3</ele>
        <time>2014-08-24T12:18:18Z</time>
      </trkpt>
      <trkpt lat="42.715487" lon="0.349401">
        <ele>2917.6</ele>
        <time>2014-08-24T12:18:48Z</time>
      </trkpt>
      <trkpt lat="42.715560" lon="0.349498">
        <ele>2916.8</ele>
        <time>2014-08-24T12:19:00Z</time>
      </trkpt>
      <trkpt lat="42.715600" lon="0.349586">
        <ele>2913.8</ele>
        <time>2014-08-24T12:19:17Z</time>
      </trkpt>
      <trkpt lat="42.715675" lon="0.349592">
        <ele>2908.7</ele>
        <time>2014-08-24T12:19:56Z</time>
      </trkpt>
      <trkpt lat="42.715730" lon="0.349670">
        <ele>2906.8</ele>
        <time>2014-08-24T12:21:35Z</time>
      </trkpt>
      <trkpt lat="42.715814" lon="0.349742">
        <ele>2904.5</ele>
        <time>2014-08-24T12:21:51Z</time>
      </trkpt>
      <trkpt lat="42.715887" lon="0.349823">
        <ele>2899.9</ele>
        <time>2014-08-24T12:22:12Z</time>
      </trkpt>
      <trkpt lat="42.715955" lon="0.349887">
        <ele>2894.3</ele>
        <time>2014-08-24T12:22:42Z</time>
      </trkpt>
      <trkpt lat="42.716011" lon="0.349971">
        <ele>2889.9</ele>
        <time>2014-08-24T12:23:07Z</time>
      </trkpt>
      <trkpt lat="42.716076" lon="0.350045">
        <ele>2880.5</ele>
        <time>2014-08-24T12:24:18Z</time>
      </trkpt>
      <trkpt lat="42.716130" lon="0.350113">
        <ele>2876.4</ele>
        <time>2014-08-24T12:25:13Z</time>
      </trkpt>
      <trkpt lat="42.716184" lon="0.350203">
        <ele>2872.2</ele>
        <time>2014-08-24T12:25:56Z</time>
      </trkpt>
      <trkpt lat="42.716214" lon="0.350300">
        <ele>2869.4</ele>
        <time>2014-08-24T12:26:31Z</time>
      </trkpt>
      <trkpt lat="42.716260" lon="0.350397">
        <ele>2865.0</ele>
        <time>2014-08-24T12:26:57Z</time>
      </trkpt>
      <trkpt lat="42.716280" lon="0.350496">
        <ele>2861.4</ele>
        <time>2014-08-24T12:27:23Z</time>
      </trkpt>
      <trkpt lat="42.716291" lon="0.350613">
        <ele>2857.6</ele>
        <time>2014-08-24T12:27:41Z</time>
      </trkpt>
      <trkpt lat="42.716325" lon="0.350704">
        <ele>2853.6</ele>
        <time>2014-08-24T12:28:01Z</time>
      </trkpt>
      <trkpt lat="42.716343" lon="0.350792">
        <ele>2849.6</ele>
        <time>2014-08-24T12:28:31Z</time>
      </trkpt>
      <trkpt lat="42.716340" lon="0.350848">
        <ele>2845.9</ele>
        <time>2014-08-24T12:29:03Z</time>
      </trkpt>
      <trkpt lat="42.716412" lon="0.350853">
        <ele>2841.3</ele>
        <time>2014-08-24T12:29:39Z</time>
      </trkpt>
      <trkpt lat="42.716445" lon="0.350894">
        <ele>2839.0</ele>
        <time>2014-08-24T12:30:29Z</time>
      </trkpt>
      <trkpt lat="42.716480" lon="0.350936">
        <ele>2834.2</ele>
        <time>2014-08-24T12:31:19Z</time>
      </trkpt>
      <trkpt lat="42.716527" lon="0.350886">
        <ele>2830.1</ele>
        <time>2014-08-24T12:31:51Z</time>
      </trkpt>
      <trkpt lat="42.716571" lon="0.350978">
        <ele>2824.1</ele>
        <time>2014-08-24T12:32:19Z</time>
      </trkpt>
      <trkpt lat="42.716630" lon="0.350988">
        <ele>2818.6</ele>
        <time>2014-08-24T12:33:45Z</time>
      </trkpt>
      <trkpt lat="42.716667" lon="0.350932">
        <ele>2813.0</ele>
        <time>2014-08-24T12:35:37Z</time>
      </trkpt>
      <trkpt lat="42.716723" lon="0.350966">
        <ele>2810.2</ele>
        <time>2014-08-24T12:36:25Z</time>
      </trkpt>
      <trkpt lat="42.716743" lon="0.350979">
        <ele>2807.4</ele>
        <time>2014-08-24T12:38:17Z</time>
      </trkpt>
      <trkpt lat="42.716761" lon="0.351024">
        <ele>2806.9</ele>
        <time>2014-08-24T12:43:33Z</time>
      </trkpt>
      <trkpt lat="42.716804" lon="0.351066">
        <ele>2813.2</ele>
        <time>2014-08-24T13:02:20Z</time>
      </trkpt>
      <trkpt lat="42.716836" lon="0.351149">
        <ele>2811.1</ele>
        <time>2014-08-24T13:03:53Z</time>
      </trkpt>
      <trkpt lat="42.716871" lon="0.351273">
        <ele>2810.6</ele>
        <time>2014-08-24T13:04:09Z</time>
      </trkpt>
      <trkpt lat="42.716881" lon="0.351308">
        <ele>2807.8</ele>
        <time>2014-08-24T13:05:13Z</time>
      </trkpt>
      <trkpt lat="42.716912" lon="0.351397">
        <ele>2803.2</ele>
        <time>2014-08-24T13:06:15Z</time>
      </trkpt>
      <trkpt lat="42.716962" lon="0.351521">
        <ele>2797.6</ele>
        <time>2014-08-24T13:08:23Z</time>
      </trkpt>
      <trkpt lat="42.716949" lon="0.351607">
        <ele>2792.7</ele>
        <time>2014-08-24T13:09:38Z</time>
      </trkpt>
      <trkpt lat="42.716931" lon="0.351657">
        <ele>2789.4</ele>
        <time>2014-08-24T13:10:42Z</time>
      </trkpt>
      <trkpt lat="42.716976" lon="0.351695">
        <ele>2784.1</ele>
        <time>2014-08-24T13:12:12Z</time>
      </trkpt>
      <trkpt lat="42.716971" lon="0.351772">
        <ele>2779.7</ele>
        <time>2014-08-24T13:13:04Z</time>
      </trkpt>
      <trkpt lat="42.716963" lon="0.351839">
        <ele>2775.4</ele>
        <time>2014-08-24T13:14:19Z</time>
      </trkpt>
      <trkpt lat="42.716984" lon="0.351877">
        <ele>2769.0</ele>
        <time>2014-08-24T13:16:12Z</time>
      </trkpt>
      <trkpt lat="42.717021" lon="0.351907">
        <ele>2764.4</ele>
        <time>2014-08-24T13:17:19Z</time>
      </trkpt>
      <trkpt lat="42.717078" lon="0.351896">
        <ele>2760.9</ele>
        <time>2014-08-24T13:18:38Z</time>
      </trkpt>
      <trkpt lat="42.717144" lon="0.351839">
        <ele>2760.2</ele>
        <time>2014-08-24T13:19:36Z</time>
      </trkpt>
      <trkpt lat="42.717195" lon="0.351747">
        <ele>2762.3</ele>
        <time>2014-08-24T13:20:30Z</time>
      </trkpt>
      <trkpt lat="42.717247" lon="0.351700">
        <ele>2761.7</ele>
        <time>2014-08-24T13:20:55Z</time>
      </trkpt>
      <trkpt lat="42.717325" lon="0.351719">
        <ele>2758.0</ele>
        <time>2014-08-24T13:21:16Z</time>
      </trkpt>
      <trkpt lat="42.717394" lon="0.351813">
        <ele>2753.9</ele>
        <time>2014-08-24T13:21:30Z</time>
      </trkpt>
      <trkpt lat="42.717437" lon="0.351930">
        <ele>2752.6</ele>
        <time>2014-08-24T13:22:08Z</time>
      </trkpt>
      <trkpt lat="42.717477" lon="0.352028">
        <ele>2748.4</ele>
        <time>2014-08-24T13:22:40Z</time>
      </trkpt>
      <trkpt lat="42.717544" lon="0.352115">
        <ele>2742.7</ele>
        <time>2014-08-24T13:23:14Z</time>
      </trkpt>
      <trkpt lat="42.717576" lon="0.352225">
        <ele>2739.8</ele>
        <time>2014-08-24T13:23:40Z</time>
      </trkpt>
      <trkpt lat="42.717623" lon="0.352302">
        <ele>2736.7</ele>
        <time>2014-08-24T13:24:17Z</time>
      </trkpt>
      <trkpt lat="42.717710" lon="0.352329">
        <ele>2733.4</ele>
        <time>2014-08-24T13:25:33Z</time>
      </trkpt>
      <trkpt lat="42.717780" lon="0.352353">
        <ele>2728.9</ele>
        <time>2014-08-24T13:26:30Z</time>
      </trkpt>
      <trkpt lat="42.717836" lon="0.352380">
        <ele>2722.7</ele>
        <time>2014-08-24T13:27:27Z</time>
      </trkpt>
      <trkpt lat="42.717898" lon="0.352476">
        <ele>2782.6</ele>
        <time>2014-08-24T13:33:06Z</time>
      </trkpt>
      <trkpt lat="42.717976" lon="0.352574">
        <ele>2779.3</ele>
        <time>2014-08-24T13:33:23Z</time>
      </trkpt>
      <trkpt lat="42.717981" lon="0.352715">
        <ele>2782.0</ele>
        <time>2014-08-24T13:34:12Z</time>
      </trkpt>
      <trkpt lat="42.718016" lon="0.352831">
        <ele>2782.6</ele>
        <time>2014-08-24T13:34:50Z</time>
      </trkpt>
      <trkpt lat="42.718069" lon="0.352958">
        <ele>2782.4</ele>
        <time>2014-08-24T13:35:49Z</time>
      </trkpt>
      <trkpt lat="42.718086" lon="0.353020">
        <ele>2785.2</ele>
        <time>2014-08-24T13:36:38Z</time>
      </trkpt>
      <trkpt lat="42.718087" lon="0.353123">
        <ele>2791.8</ele>
        <time>2014-08-24T13:37:33Z</time>
      </trkpt>
      <trkpt lat="42.718105" lon="0.353227">
        <ele>2793.7</ele>
        <time>2014-08-24T13:38:26Z</time>
      </trkpt>
      <trkpt lat="42.718156" lon="0.353317">
        <ele>2793.0</ele>
        <time>2014-08-24T13:38:52Z</time>
      </trkpt>
      <trkpt lat="42.718154" lon="0.353404">
        <ele>2790.8</ele>
        <time>2014-08-24T13:41:19Z</time>
      </trkpt>
      <trkpt lat="42.718192" lon="0.353439">
        <ele>2789.3</ele>
        <time>2014-08-24T13:43:58Z</time>
      </trkpt>
      <trkpt lat="42.718253" lon="0.353526">
        <ele>2791.1</ele>
        <time>2014-08-24T13:44:39Z</time>
      </trkpt>
      <trkpt lat="42.718310" lon="0.353606">
        <ele>2794.3</ele>
        <time>2014-08-24T13:45:25Z</time>
      </trkpt>
      <trkpt lat="42.718354" lon="0.353709">
        <ele>2793.7</ele>
        <time>2014-08-24T13:45:56Z</time>
      </trkpt>
      <trkpt lat="42.718406" lon="0.353800">
        <ele>2795.6</ele>
        <time>2014-08-24T13:46:37Z</time>
      </trkpt>
      <trkpt lat="42.718460" lon="0.353882">
        <ele>2796.8</ele>
        <time>2014-08-24T13:47:08Z</time>
      </trkpt>
      <trkpt lat="42.718498" lon="0.353974">
        <ele>2797.5</ele>
        <time>2014-08-24T13:47:40Z</time>
      </trkpt>
      <trkpt lat="42.718566" lon="0.354046">
        <ele>2798.8</ele>
        <time>2014-08-24T13:48:38Z</time>
      </trkpt>
      <trkpt lat="42.718597" lon="0.354174">
        <ele>2801.2</ele>
        <time>2014-08-24T13:49:17Z</time>
      </trkpt>
      <trkpt lat="42.718644" lon="0.354269">
        <ele>2802.9</ele>
        <time>2014-08-24T13:49:55Z</time>
      </trkpt>
      <trkpt lat="42.718702" lon="0.354345">
        <ele>2802.1</ele>
        <time>2014-08-24T13:50:36Z</time>
      </trkpt>
      <trkpt lat="42.718761" lon="0.354338">
        <ele>2797.5</ele>
        <time>2014-08-24T13:51:58Z</time>
      </trkpt>
      <trkpt lat="42.718775" lon="0.354407">
        <ele>2799.9</ele>
        <time>2014-08-24T13:53:49Z</time>
      </trkpt>
      <trkpt lat="42.718857" lon="0.354480">
        <ele>2801.5</ele>
        <time>2014-08-24T13:54:39Z</time>
      </trkpt>
      <trkpt lat="42.718908" lon="0.354514">
        <ele>2807.7</ele>
        <time>2014-08-24T13:55:25Z</time>
      </trkpt>
      <trkpt lat="42.718927" lon="0.354606">
        <ele>2813.4</ele>
        <time>2014-08-24T13:55:50Z</time>
      </trkpt>
      <trkpt lat="42.718958" lon="0.354731">
        <ele>2816.7</ele>
        <time>2014-08-24T13:56:11Z</time>
      </trkpt>
      <trkpt lat="42.718980" lon="0.354836">
        <ele>2817.9</ele>
        <time>2014-08-24T13:56:46Z</time>
      </trkpt>
      <trkpt lat="42.718997" lon="0.354951">
        <ele>2819.8</ele>
        <time>2014-08-24T13:57:10Z</time>
      </trkpt>
      <trkpt lat="42.719027" lon="0.355076">
        <ele>2821.2</ele>
        <time>2014-08-24T13:57:53Z</time>
      </trkpt>
      <trkpt lat="42.719036" lon="0.355192">
        <ele>2823.7</ele>
        <time>2014-08-24T13:58:15Z</time>
      </trkpt>
      <trkpt lat="42.719074" lon="0.355306">
        <ele>2823.4</ele>
        <time>2014-08-24T13:58:50Z</time>
      </trkpt>
      <trkpt lat="42.719104" lon="0.355424">
        <ele>2823.2</ele>
        <time>2014-08-24T13:59:09Z</time>
      </trkpt>
      <trkpt lat="42.719132" lon="0.355513">
        <ele>2822.4</ele>
        <time>2014-08-24T13:59:32Z</time>
      </trkpt>
      <trkpt lat="42.719115" lon="0.355643">
        <ele>2822.4</ele>
        <time>2014-08-24T14:00:50Z</time>
      </trkpt>
      <trkpt lat="42.719139" lon="0.355754">
        <ele>2822.9</ele>
        <time>2014-08-24T14:01:46Z</time>
      </trkpt>
      <trkpt lat="42.719155" lon="0.355839">
        <ele>2824.5</ele>
        <time>2014-08-24T14:02:20Z</time>
      </trkpt>
      <trkpt lat="42.719137" lon="0.355904">
        <ele>2825.0</ele>
        <time>2014-08-24T14:03:02Z</time>
      </trkpt>
      <trkpt lat="42.719138" lon="0.356008">
        <ele>2826.2</ele>
        <time>2014-08-24T14:03:32Z</time>
      </trkpt>
      <trkpt lat="42.719147" lon="0.356056">
        <ele>2825.2</ele>
        <time>2014-08-24T14:04:31Z</time>
      </trkpt>
      <trkpt lat="42.719169" lon="0.356181">
        <ele>2825.9</ele>
        <time>2014-08-24T14:05:06Z</time>
      </trkpt>
      <trkpt lat="42.719178" lon="0.356286">
        <ele>2826.9</ele>
        <time>2014-08-24T14:06:01Z</time>
      </trkpt>
      <trkpt lat="42.719206" lon="0.356387">
        <ele>2828.3</ele>
        <time>2014-08-24T14:06:27Z</time>
      </trkpt>
      <trkpt lat="42.719240" lon="0.356511">
        <ele>2829.8</ele>
        <time>2014-08-24T14:06:51Z</time>
      </trkpt>
      <trkpt lat="42.719288" lon="0.356603">
        <ele>2828.9</ele>
        <time>2014-08-24T14:07:19Z</time>
      </trkpt>
      <trkpt lat="42.719340" lon="0.356681">
        <ele>2830.2</ele>
        <time>2014-08-24T14:07:59Z</time>
      </trkpt>
      <trkpt lat="42.719306" lon="0.356808">
        <ele>2832.6</ele>
        <time>2014-08-24T14:08:42Z</time>
      </trkpt>
      <trkpt lat="42.719358" lon="0.356902">
        <ele>2833.2</ele>
        <time>2014-08-24T14:09:04Z</time>
      </trkpt>
      <trkpt lat="42.719414" lon="0.356982">
        <ele>2835.1</ele>
        <time>2014-08-24T14:09:21Z</time>
      </trkpt>
      <trkpt lat="42.719438" lon="0.357061">
        <ele>2837.1</ele>
        <time>2014-08-24T14:09:34Z</time>
      </trkpt>
      <trkpt lat="42.719428" lon="0.357120">
        <ele>2838.5</ele>
        <time>2014-08-24T14:10:24Z</time>
      </trkpt>
      <trkpt lat="42.719421" lon="0.357250">
        <ele>2841.3</ele>
        <time>2014-08-24T14:10:45Z</time>
      </trkpt>
      <trkpt lat="42.719413" lon="0.357332">
        <ele>2845.1</ele>
        <time>2014-08-24T14:11:10Z</time>
      </trkpt>
      <trkpt lat="42.719451" lon="0.357431">
        <ele>2848.9</ele>
        <time>2014-08-24T14:11:36Z</time>
      </trkpt>
      <trkpt lat="42.719510" lon="0.357447">
        <ele>2853.4</ele>
        <time>2014-08-24T14:12:10Z</time>
      </trkpt>
      <trkpt lat="42.719532" lon="0.357504">
        <ele>2856.7</ele>
        <time>2014-08-24T14:12:36Z</time>
      </trkpt>
      <trkpt lat="42.719595" lon="0.357489">
        <ele>2860.0</ele>
        <time>2014-08-24T14:13:08Z</time>
      </trkpt>
      <trkpt lat="42.719596" lon="0.357523">
        <ele>2864.2</ele>
        <time>2014-08-24T14:13:40Z</time>
      </trkpt>
      <trkpt lat="42.719604" lon="0.357578">
        <ele>2866.4</ele>
        <time>2014-08-24T14:14:10Z</time>
      </trkpt>
      <trkpt lat="42.719668" lon="0.357613">
        <ele>2870.6</ele>
        <time>2014-08-24T14:14:35Z</time>
      </trkpt>
      <trkpt lat="42.719692" lon="0.357643">
        <ele>2875.6</ele>
        <time>2014-08-24T14:15:12Z</time>
      </trkpt>
      <trkpt lat="42.719741" lon="0.357723">
        <ele>2880.4</ele>
        <time>2014-08-24T14:15:45Z</time>
      </trkpt>
      <trkpt lat="42.719729" lon="0.357795">
        <ele>2886.0</ele>
        <time>2014-08-24T14:16:20Z</time>
      </trkpt>
      <trkpt lat="42.719779" lon="0.357850">
        <ele>2888.2</ele>
        <time>2014-08-24T14:17:01Z</time>
      </trkpt>
      <trkpt lat="42.719814" lon="0.357879">
        <ele>2891.9</ele>
        <time>2014-08-24T14:17:35Z</time>
      </trkpt>
      <trkpt lat="42.719809" lon="0.357980">
        <ele>2895.8</ele>
        <time>2014-08-24T14:18:06Z</time>
      </trkpt>
      <trkpt lat="42.719798" lon="0.358039">
        <ele>2902.9</ele>
        <time>2014-08-24T14:18:47Z</time>
      </trkpt>
      <trkpt lat="42.719787" lon="0.358154">
        <ele>2905.4</ele>
        <time>2014-08-24T14:19:25Z</time>
      </trkpt>
      <trkpt lat="42.719801" lon="0.358189">
        <ele>2911.2</ele>
        <time>2014-08-24T14:20:18Z</time>
      </trkpt>
      <trkpt lat="42.719841" lon="0.358204">
        <ele>2912.9</ele>
        <time>2014-08-24T14:21:04Z</time>
      </trkpt>
      <trkpt lat="42.719881" lon="0.358224">
        <ele>2915.1</ele>
        <time>2014-08-24T14:21:41Z</time>
      </trkpt>
      <trkpt lat="42.719925" lon="0.358292">
        <ele>2917.4</ele>
        <time>2014-08-24T14:22:08Z</time>
      </trkpt>
      <trkpt lat="42.719956" lon="0.358391">
        <ele>2918.7</ele>
        <time>2014-08-24T14:22:30Z</time>
      </trkpt>
      <trkpt lat="42.720021" lon="0.358474">
        <ele>2919.5</ele>
        <time>2014-08-24T14:22:47Z</time>
      </trkpt>
      <trkpt lat="42.720071" lon="0.358517">
        <ele>2920.6</ele>
        <time>2014-08-24T14:24:26Z</time>
      </trkpt>
      <trkpt lat="42.720135" lon="0.358555">
        <ele>2925.2</ele>
        <time>2014-08-24T14:24:59Z</time>
      </trkpt>
      <trkpt lat="42.720212" lon="0.358613">
        <ele>2929.6</ele>
        <time>2014-08-24T14:25:27Z</time>
      </trkpt>
      <trkpt lat="42.720246" lon="0.358664">
        <ele>2931.6</ele>
        <time>2014-08-24T14:25:54Z</time>
      </trkpt>
      <trkpt lat="42.720289" lon="0.358713">
        <ele>2938.2</ele>
        <time>2014-08-24T14:26:42Z</time>
      </trkpt>
      <trkpt lat="42.720310" lon="0.358798">
        <ele>2942.4</ele>
        <time>2014-08-24T14:27:13Z</time>
      </trkpt>
      <trkpt lat="42.720372" lon="0.358828">
        <ele>2947.4</ele>
        <time>2014-08-24T14:27:56Z</time>
      </trkpt>
      <trkpt lat="42.720427" lon="0.358885">
        <ele>2950.5</ele>
        <time>2014-08-24T14:28:23Z</time>
      </trkpt>
      <trkpt lat="42.720501" lon="0.358909">
        <ele>2955.2</ele>
        <time>2014-08-24T14:28:47Z</time>
      </trkpt>
      <trkpt lat="42.720544" lon="0.359003">
        <ele>2957.9</ele>
        <time>2014-08-24T14:29:10Z</time>
      </trkpt>
      <trkpt lat="42.720611" lon="0.359042">
        <ele>2958.0</ele>
        <time>2014-08-24T14:30:08Z</time>
      </trkpt>
      <trkpt lat="42.720632" lon="0.359106">
        <ele>2952.9</ele>
        <time>2014-08-24T14:31:11Z</time>
      </trkpt>
      <trkpt lat="42.720731" lon="0.359134">
        <ele>2951.1</ele>
        <time>2014-08-24T14:31:34Z</time>
      </trkpt>
      <trkpt lat="42.720776" lon="0.359219">
        <ele>2952.1</ele>
        <time>2014-08-24T14:31:58Z</time>
      </trkpt>
      <trkpt lat="42.720779" lon="0.359292">
        <ele>2955.8</ele>
        <time>2014-08-24T14:32:54Z</time>
      </trkpt>
      <trkpt lat="42.720849" lon="0.359325">
        <ele>2959.4</ele>
        <time>2014-08-24T14:33:17Z</time>
      </trkpt>
      <trkpt lat="42.720911" lon="0.359271">
        <ele>2963.7</ele>
        <time>2014-08-24T14:33:54Z</time>
      </trkpt>
      <trkpt lat="42.720980" lon="0.359262">
        <ele>2964.5</ele>
        <time>2014-08-24T14:34:15Z</time>
      </trkpt>
      <trkpt lat="42.721068" lon="0.359292">
        <ele>2965.6</ele>
        <time>2014-08-24T14:34:44Z</time>
      </trkpt>
      <trkpt lat="42.721157" lon="0.359323">
        <ele>2966.7</ele>
        <time>2014-08-24T14:35:14Z</time>
      </trkpt>
      <trkpt lat="42.721233" lon="0.359324">
        <ele>2967.9</ele>
        <time>2014-08-24T14:35:38Z</time>
      </trkpt>
      <trkpt lat="42.721325" lon="0.359324">
        <ele>2968.1</ele>
        <time>2014-08-24T14:35:56Z</time>
      </trkpt>
      <trkpt lat="42.721422" lon="0.359331">
        <ele>2967.1</ele>
        <time>2014-08-24T14:36:29Z</time>
      </trkpt>
      <trkpt lat="42.721493" lon="0.359315">
        <ele>2965.9</ele>
        <time>2014-08-24T14:37:03Z</time>
      </trkpt>
      <trkpt lat="42.721552" lon="0.359344">
        <ele>2968.2</ele>
        <time>2014-08-24T14:38:34Z</time>
      </trkpt>
      <trkpt lat="42.721646" lon="0.359410">
        <ele>2967.6</ele>
        <time>2014-08-24T14:39:30Z</time>
      </trkpt>
      <trkpt lat="42.721699" lon="0.359378">
        <ele>2969.4</ele>
        <time>2014-08-24T14:40:26Z</time>
      </trkpt>
      <trkpt lat="42.721787" lon="0.359395">
        <ele>2973.0</ele>
        <time>2014-08-24T14:41:23Z</time>
      </trkpt>
      <trkpt lat="42.721880" lon="0.359387">
        <ele>2974.4</ele>
        <time>2014-08-24T14:42:33Z</time>
      </trkpt>
      <trkpt lat="42.721971" lon="0.359394">
        <ele>2975.1</ele>
        <time>2014-08-24T14:42:53Z</time>
      </trkpt>
      <trkpt lat="42.722056" lon="0.359386">
        <ele>2976.0</ele>
        <time>2014-08-24T14:43:13Z</time>
      </trkpt>
      <trkpt lat="42.722153" lon="0.359390">
        <ele>2976.5</ele>
        <time>2014-08-24T14:43:33Z</time>
      </trkpt>
      <trkpt lat="42.722245" lon="0.359375">
        <ele>2976.0</ele>
        <time>2014-08-24T14:43:50Z</time>
      </trkpt>
      <trkpt lat="42.722329" lon="0.359329">
        <ele>2973.3</ele>
        <time>2014-08-24T14:44:12Z</time>
      </trkpt>
      <trkpt lat="42.722401" lon="0.359355">
        <ele>2970.6</ele>
        <time>2014-08-24T14:44:30Z</time>
      </trkpt>
      <trkpt lat="42.722477" lon="0.359417">
        <ele>2966.7</ele>
        <time>2014-08-24T14:45:05Z</time>
      </trkpt>
      <trkpt lat="42.722555" lon="0.359448">
        <ele>2963.7</ele>
        <time>2014-08-24T14:45:53Z</time>
      </trkpt>
      <trkpt lat="42.722626" lon="0.359447">
        <ele>2961.0</ele>
        <time>2014-08-24T14:46:25Z</time>
      </trkpt>
      <trkpt lat="42.722699" lon="0.359456">
        <ele>2957.2</ele>
        <time>2014-08-24T14:46:43Z</time>
      </trkpt>
      <trkpt lat="42.722752" lon="0.359492">
        <ele>2955.7</ele>
        <time>2014-08-24T14:47:13Z</time>
      </trkpt>
      <trkpt lat="42.722828" lon="0.359520">
        <ele>2957.2</ele>
        <time>2014-08-24T14:47:45Z</time>
      </trkpt>
      <trkpt lat="42.722872" lon="0.359533">
        <ele>2957.9</ele>
        <time>2014-08-24T14:48:23Z</time>
      </trkpt>
      <trkpt lat="42.722919" lon="0.359564">
        <ele>2956.4</ele>
        <time>2014-08-24T14:50:01Z</time>
      </trkpt>
      <trkpt lat="42.722997" lon="0.359615">
        <ele>2956.8</ele>
        <time>2014-08-24T14:51:01Z</time>
      </trkpt>
      <trkpt lat="42.723089" lon="0.359612">
        <ele>2958.9</ele>
        <time>2014-08-24T14:51:28Z</time>
      </trkpt>
      <trkpt lat="42.723158" lon="0.359656">
        <ele>2957.0</ele>
        <time>2014-08-24T14:52:57Z</time>
      </trkpt>
      <trkpt lat="42.723206" lon="0.359707">
        <ele>2961.5</ele>
        <time>2014-08-24T14:53:54Z</time>
      </trkpt>
      <trkpt lat="42.723268" lon="0.359707">
        <ele>2962.5</ele>
        <time>2014-08-24T14:54:26Z</time>
      </trkpt>
      <trkpt lat="42.723340" lon="0.359772">
        <ele>2963.9</ele>
        <time>2014-08-24T14:56:03Z</time>
      </trkpt>
      <trkpt lat="42.723414" lon="0.359789">
        <ele>2965.9</ele>
        <time>2014-08-24T14:57:35Z</time>
      </trkpt>
      <trkpt lat="42.723485" lon="0.359843">
        <ele>2972.5</ele>
        <time>2014-08-24T14:58:37Z</time>
      </trkpt>
      <trkpt lat="42.723538" lon="0.359833">
        <ele>2974.0</ele>
        <time>2014-08-24T14:59:55Z</time>
      </trkpt>
      <trkpt lat="42.723615" lon="0.359888">
        <ele>2972.5</ele>
        <time>2014-08-24T15:01:17Z</time>
      </trkpt>
      <trkpt lat="42.723676" lon="0.359868">
        <ele>2976.7</ele>
        <time>2014-08-24T15:03:14Z</time>
      </trkpt>
      <trkpt lat="42.723767" lon="0.359911">
        <ele>2978.7</ele>
        <time>2014-08-24T15:03:55Z</time>
      </trkpt>
      <trkpt lat="42.723838" lon="0.359993">
        <ele>2980.2</ele>
        <time>2014-08-24T15:04:29Z</time>
      </trkpt>
      <trkpt lat="42.723907" lon="0.360090">
        <ele>2975.9</ele>
        <time>2014-08-24T15:05:10Z</time>
      </trkpt>
      <trkpt lat="42.723958" lon="0.360159">
        <ele>2976.1</ele>
        <time>2014-08-24T15:06:20Z</time>
      </trkpt>
      <trkpt lat="42.724035" lon="0.360149">
        <ele>2979.1</ele>
        <time>2014-08-24T15:06:50Z</time>
      </trkpt>
      <trkpt lat="42.724110" lon="0.360176">
        <ele>2980.1</ele>
        <time>2014-08-24T15:07:16Z</time>
      </trkpt>
      <trkpt lat="42.724162" lon="0.360231">
        <ele>2986.7</ele>
        <time>2014-08-24T15:07:58Z</time>
      </trkpt>
      <trkpt lat="42.724177" lon="0.360220">
        <ele>2989.2</ele>
        <time>2014-08-24T15:09:15Z</time>
      </trkpt>
      <trkpt lat="42.724187" lon="0.360164">
        <ele>2987.6</ele>
        <time>2014-08-24T15:14:19Z</time>
      </trkpt>
      <trkpt lat="42.724233" lon="0.360199">
        <ele>2989.5</ele>
        <time>2014-08-24T15:16:26Z</time>
      </trkpt>
      <trkpt lat="42.724326" lon="0.360167">
        <ele>2988.9</ele>
        <time>2014-08-24T15:16:42Z</time>
      </trkpt>
      <trkpt lat="42.724347" lon="0.360178">
        <ele>2989.2</ele>
        <time>2014-08-24T15:17:40Z</time>
      </trkpt>
      <trkpt lat="42.724413" lon="0.360246">
        <ele>2985.6</ele>
        <time>2014-08-24T15:18:03Z</time>
      </trkpt>
      <trkpt lat="42.724469" lon="0.360230">
        <ele>2982.4</ele>
        <time>2014-08-24T15:18:27Z</time>
      </trkpt>
      <trkpt lat="42.724518" lon="0.360118">
        <ele>2979.9</ele>
        <time>2014-08-24T15:18:51Z</time>
      </trkpt>
      <trkpt lat="42.724601" lon="0.360063">
        <ele>2978.1</ele>
        <time>2014-08-24T15:19:12Z</time>
      </trkpt>
      <trkpt lat="42.724668" lon="0.360001">
        <ele>2976.1</ele>
        <time>2014-08-24T15:19:30Z</time>
      </trkpt>
      <trkpt lat="42.724754" lon="0.359973">
        <ele>2968.3</ele>
        <time>2014-08-24T15:20:29Z</time>
      </trkpt>
      <trkpt lat="42.724791" lon="0.360068">
        <ele>2964.0</ele>
        <time>2014-08-24T15:21:03Z</time>
      </trkpt>
      <trkpt lat="42.724859" lon="0.360078">
        <ele>2961.7</ele>
        <time>2014-08-24T15:21:41Z</time>
      </trkpt>
      <trkpt lat="42.724915" lon="0.360101">
        <ele>2955.6</ele>
        <time>2014-08-24T15:22:06Z</time>
      </trkpt>
      <trkpt lat="42.724956" lon="0.360109">
        <ele>2950.9</ele>
        <time>2014-08-24T15:22:25Z</time>
      </trkpt>
      <trkpt lat="42.725033" lon="0.360121">
        <ele>2949.1</ele>
        <time>2014-08-24T15:22:44Z</time>
      </trkpt>
      <trkpt lat="42.725112" lon="0.360113">
        <ele>2945.2</ele>
        <time>2014-08-24T15:22:59Z</time>
      </trkpt>
      <trkpt lat="42.725195" lon="0.360075">
        <ele>2940.2</ele>
        <time>2014-08-24T15:23:18Z</time>
      </trkpt>
      <trkpt lat="42.725273" lon="0.360034">
        <ele>2938.7</ele>
        <time>2014-08-24T15:23:34Z</time>
      </trkpt>
      <trkpt lat="42.725359" lon="0.360022">
        <ele>2939.8</ele>
        <time>2014-08-24T15:23:58Z</time>
      </trkpt>
      <trkpt lat="42.725436" lon="0.360021">
        <ele>2937.4</ele>
        <time>2014-08-24T15:24:28Z</time>
      </trkpt>
      <trkpt lat="42.725511" lon="0.360017">
        <ele>2934.6</ele>
        <time>2014-08-24T15:24:57Z</time>
      </trkpt>
      <trkpt lat="42.725569" lon="0.360011">
        <ele>2931.9</ele>
        <time>2014-08-24T15:25:20Z</time>
      </trkpt>
      <trkpt lat="42.725637" lon="0.360025">
        <ele>2925.7</ele>
        <time>2014-08-24T15:26:03Z</time>
      </trkpt>
      <trkpt lat="42.725701" lon="0.359971">
        <ele>2922.7</ele>
        <time>2014-08-24T15:26:29Z</time>
      </trkpt>
      <trkpt lat="42.725774" lon="0.359936">
        <ele>2920.9</ele>
        <time>2014-08-24T15:26:45Z</time>
      </trkpt>
      <trkpt lat="42.725840" lon="0.359860">
        <ele>2918.6</ele>
        <time>2014-08-24T15:27:04Z</time>
      </trkpt>
      <trkpt lat="42.725928" lon="0.359861">
        <ele>2917.2</ele>
        <time>2014-08-24T15:27:31Z</time>
      </trkpt>
      <trkpt lat="42.726003" lon="0.359804">
        <ele>2915.4</ele>
        <time>2014-08-24T15:27:46Z</time>
      </trkpt>
      <trkpt lat="42.726083" lon="0.359762">
        <ele>2916.0</ele>
        <time>2014-08-24T15:28:36Z</time>
      </trkpt>
      <trkpt lat="42.726162" lon="0.359716">
        <ele>2913.1</ele>
        <time>2014-08-24T15:28:58Z</time>
      </trkpt>
      <trkpt lat="42.726240" lon="0.359679">
        <ele>2910.0</ele>
        <time>2014-08-24T15:29:35Z</time>
      </trkpt>
      <trkpt lat="42.726276" lon="0.359665">
        <ele>2907.6</ele>
        <time>2014-08-24T15:30:48Z</time>
      </trkpt>
      <trkpt lat="42.726349" lon="0.359615">
        <ele>2905.3</ele>
        <time>2014-08-24T15:31:09Z</time>
      </trkpt>
      <trkpt lat="42.726431" lon="0.359584">
        <ele>2901.9</ele>
        <time>2014-08-24T15:31:33Z</time>
      </trkpt>
      <trkpt lat="42.726505" lon="0.359519">
        <ele>2898.4</ele>
        <time>2014-08-24T15:31:55Z</time>
      </trkpt>
      <trkpt lat="42.726609" lon="0.359532">
        <ele>2899.9</ele>
        <time>2014-08-24T15:32:19Z</time>
      </trkpt>
      <trkpt lat="42.726678" lon="0.359498">
        <ele>2898.8</ele>
        <time>2014-08-24T15:32:40Z</time>
      </trkpt>
      <trkpt lat="42.726769" lon="0.359494">
        <ele>2895.5</ele>
        <time>2014-08-24T15:33:01Z</time>
      </trkpt>
      <trkpt lat="42.726855" lon="0.359451">
        <ele>2893.3</ele>
        <time>2014-08-24T15:33:19Z</time>
      </trkpt>
      <trkpt lat="42.726941" lon="0.359467">
        <ele>2890.4</ele>
        <time>2014-08-24T15:34:36Z</time>
      </trkpt>
      <trkpt lat="42.727038" lon="0.359457">
        <ele>2888.1</ele>
        <time>2014-08-24T15:34:52Z</time>
      </trkpt>
      <trkpt lat="42.727121" lon="0.359402">
        <ele>2887.4</ele>
        <time>2014-08-24T15:35:14Z</time>
      </trkpt>
      <trkpt lat="42.727217" lon="0.359407">
        <ele>2888.3</ele>
        <time>2014-08-24T15:35:39Z</time>
      </trkpt>
      <trkpt lat="42.727320" lon="0.359401">
        <ele>2888.8</ele>
        <time>2014-08-24T15:36:02Z</time>
      </trkpt>
      <trkpt lat="42.727409" lon="0.359411">
        <ele>2888.4</ele>
        <time>2014-08-24T15:36:25Z</time>
      </trkpt>
      <trkpt lat="42.727497" lon="0.359405">
        <ele>2889.8</ele>
        <time>2014-08-24T15:36:55Z</time>
      </trkpt>
      <trkpt lat="42.727591" lon="0.359396">
        <ele>2891.7</ele>
        <time>2014-08-24T15:37:50Z</time>
      </trkpt>
      <trkpt lat="42.727673" lon="0.359393">
        <ele>2894.3</ele>
        <time>2014-08-24T15:38:11Z</time>
      </trkpt>
      <trkpt lat="42.727752" lon="0.359367">
        <ele>2895.1</ele>
        <time>2014-08-24T15:38:58Z</time>
      </trkpt>
      <trkpt lat="42.727824" lon="0.359329">
        <ele>2895.3</ele>
        <time>2014-08-24T15:39:23Z</time>
      </trkpt>
      <trkpt lat="42.727893" lon="0.359307">
        <ele>2895.1</ele>
        <time>2014-08-24T15:40:31Z</time>
      </trkpt>
      <trkpt lat="42.727985" lon="0.359283">
        <ele>2897.9</ele>
        <time>2014-08-24T15:40:51Z</time>
      </trkpt>
      <trkpt lat="42.728078" lon="0.359238">
        <ele>2898.7</ele>
        <time>2014-08-24T15:41:32Z</time>
      </trkpt>
      <trkpt lat="42.728135" lon="0.359229">
        <ele>2895.9</ele>
        <time>2014-08-24T15:42:02Z</time>
      </trkpt>
      <trkpt lat="42.728209" lon="0.359243">
        <ele>2898.6</ele>
        <time>2014-08-24T15:42:27Z</time>
      </trkpt>
      <trkpt lat="42.728297" lon="0.359215">
        <ele>2899.5</ele>
        <time>2014-08-24T15:42:47Z</time>
      </trkpt>
      <trkpt lat="42.728352" lon="0.359216">
        <ele>2900.8</ele>
        <time>2014-08-24T15:44:44Z</time>
      </trkpt>
      <trkpt lat="42.728446" lon="0.359176">
        <ele>2900.4</ele>
        <time>2014-08-24T15:45:02Z</time>
      </trkpt>
      <trkpt lat="42.728521" lon="0.359122">
        <ele>2897.8</ele>
        <time>2014-08-24T15:45:25Z</time>
      </trkpt>
      <trkpt lat="42.728612" lon="0.359131">
        <ele>2898.1</ele>
        <time>2014-08-24T15:45:47Z</time>
      </trkpt>
      <trkpt lat="42.728701" lon="0.359162">
        <ele>2895.4</ele>
        <time>2014-08-24T15:46:34Z</time>
      </trkpt>
      <trkpt lat="42.728781" lon="0.359164">
        <ele>2893.0</ele>
        <time>2014-08-24T15:47:06Z</time>
      </trkpt>
      <trkpt lat="42.728830" lon="0.359105">
        <ele>2893.4</ele>
        <time>2014-08-24T15:47:24Z</time>
      </trkpt>
      <trkpt lat="42.728905" lon="0.359069">
        <ele>2888.2</ele>
        <time>2014-08-24T15:48:00Z</time>
      </trkpt>
      <trkpt lat="42.728983" lon="0.359016">
        <ele>2886.0</ele>
        <time>2014-08-24T15:48:25Z</time>
      </trkpt>
      <trkpt lat="42.729062" lon="0.358979">
        <ele>2883.0</ele>
        <time>2014-08-24T15:48:42Z</time>
      </trkpt>
      <trkpt lat="42.729148" lon="0.358957">
        <ele>2882.5</ele>
        <time>2014-08-24T15:49:09Z</time>
      </trkpt>
      <trkpt lat="42.729219" lon="0.358923">
        <ele>2883.3</ele>
        <time>2014-08-24T15:49:31Z</time>
      </trkpt>
      <trkpt lat="42.729314" lon="0.358936">
        <ele>2884.7</ele>
        <time>2014-08-24T15:50:18Z</time>
      </trkpt>
      <trkpt lat="42.729370" lon="0.358926">
        <ele>2883.9</ele>
        <time>2014-08-24T15:50:47Z</time>
      </trkpt>
      <trkpt lat="42.729424" lon="0.358970">
        <ele>2882.1</ele>
        <time>2014-08-24T15:51:14Z</time>
      </trkpt>
      <trkpt lat="42.729509" lon="0.358989">
        <ele>2880.8</ele>
        <time>2014-08-24T15:51:38Z</time>
      </trkpt>
      <trkpt lat="42.729567" lon="0.358998">
        <ele>2878.4</ele>
        <time>2014-08-24T15:52:14Z</time>
      </trkpt>
      <trkpt lat="42.729612" lon="0.358983">
        <ele>2877.1</ele>
        <time>2014-08-24T15:52:47Z</time>
      </trkpt>
      <trkpt lat="42.729636" lon="0.359024">
        <ele>2876.7</ele>
        <time>2014-08-24T15:53:24Z</time>
      </trkpt>
      <trkpt lat="42.729648" lon="0.359018">
        <ele>2874.3</ele>
        <time>2014-08-24T15:54:03Z</time>
      </trkpt>
      <trkpt lat="42.729643" lon="0.359001">
        <ele>2874.6</ele>
        <time>2014-08-24T15:56:17Z</time>
      </trkpt>
      <trkpt lat="42.729685" lon="0.359074">
        <ele>2877.4</ele>
        <time>2014-08-24T15:57:07Z</time>
      </trkpt>
      <trkpt lat="42.729729" lon="0.359074">
        <ele>2882.0</ele>
        <time>2014-08-24T15:57:43Z</time>
      </trkpt>
      <trkpt lat="42.729769" lon="0.359089">
        <ele>2886.7</ele>
        <time>2014-08-24T15:58:32Z</time>
      </trkpt>
      <trkpt lat="42.729848" lon="0.359014">
        <ele>2889.0</ele>
        <time>2014-08-24T15:59:00Z</time>
      </trkpt>
      <trkpt lat="42.729939" lon="0.359012">
        <ele>2893.5</ele>
        <time>2014-08-24T15:59:26Z</time>
      </trkpt>
      <trkpt lat="42.730005" lon="0.359013">
        <ele>2895.6</ele>
        <time>2014-08-24T15:59:50Z</time>
      </trkpt>
      <trkpt lat="42.730088" lon="0.359035">
        <ele>2899.4</ele>
        <time>2014-08-24T16:00:21Z</time>
      </trkpt>
      <trkpt lat="42.730150" lon="0.359026">
        <ele>2903.7</ele>
        <time>2014-08-24T16:00:55Z</time>
      </trkpt>
      <trkpt lat="42.730223" lon="0.359006">
        <ele>2906.1</ele>
        <time>2014-08-24T16:01:26Z</time>
      </trkpt>
      <trkpt lat="42.730308" lon="0.358962">
        <ele>2908.8</ele>
        <time>2014-08-24T16:02:02Z</time>
      </trkpt>
      <trkpt lat="42.730363" lon="0.358888">
        <ele>2909.4</ele>
        <time>2014-08-24T16:02:53Z</time>
      </trkpt>
      <trkpt lat="42.730442" lon="0.358842">
        <ele>2910.8</ele>
        <time>2014-08-24T16:03:21Z</time>
      </trkpt>
      <trkpt lat="42.730514" lon="0.358849">
        <ele>2911.4</ele>
        <time>2014-08-24T16:04:08Z</time>
      </trkpt>
      <trkpt lat="42.730580" lon="0.358901">
        <ele>2916.4</ele>
        <time>2014-08-24T16:04:50Z</time>
      </trkpt>
      <trkpt lat="42.730607" lon="0.358842">
        <ele>2919.2</ele>
        <time>2014-08-24T16:05:38Z</time>
      </trkpt>
      <trkpt lat="42.730686" lon="0.358836">
        <ele>2924.8</ele>
        <time>2014-08-24T16:06:12Z</time>
      </trkpt>
      <trkpt lat="42.730743" lon="0.358770">
        <ele>2927.2</ele>
        <time>2014-08-24T16:06:47Z</time>
      </trkpt>
      <trkpt lat="42.730813" lon="0.358762">
        <ele>2928.9</ele>
        <time>2014-08-24T16:07:33Z</time>
      </trkpt>
      <trkpt lat="42.730856" lon="0.358671">
        <ele>2930.7</ele>
        <time>2014-08-24T16:07:54Z</time>
      </trkpt>
      <trkpt lat="42.730950" lon="0.358639">
        <ele>2931.6</ele>
        <time>2014-08-24T16:08:36Z</time>
      </trkpt>
      <trkpt lat="42.731045" lon="0.358620">
        <ele>2933.4</ele>
        <time>2014-08-24T16:08:53Z</time>
      </trkpt>
      <trkpt lat="42.731110" lon="0.358671">
        <ele>2939.6</ele>
        <time>2014-08-24T16:09:24Z</time>
      </trkpt>
      <trkpt lat="42.731170" lon="0.358597">
        <ele>2942.2</ele>
        <time>2014-08-24T16:09:51Z</time>
      </trkpt>
      <trkpt lat="42.731260" lon="0.358536">
        <ele>2946.1</ele>
        <time>2014-08-24T16:10:15Z</time>
      </trkpt>
      <trkpt lat="42.731351" lon="0.358506">
        <ele>2947.1</ele>
        <time>2014-08-24T16:10:34Z</time>
      </trkpt>
      <trkpt lat="42.731439" lon="0.358469">
        <ele>2948.0</ele>
        <time>2014-08-24T16:11:19Z</time>
      </trkpt>
      <trkpt lat="42.731510" lon="0.358431">
        <ele>2949.3</ele>
        <time>2014-08-24T16:12:28Z</time>
      </trkpt>
      <trkpt lat="42.731567" lon="0.358430">
        <ele>2948.5</ele>
        <time>2014-08-24T16:12:43Z</time>
      </trkpt>
      <trkpt lat="42.731653" lon="0.358398">
        <ele>2951.2</ele>
        <time>2014-08-24T16:13:11Z</time>
      </trkpt>
      <trkpt lat="42.731731" lon="0.358410">
        <ele>2951.4</ele>
        <time>2014-08-24T16:13:26Z</time>
      </trkpt>
      <trkpt lat="42.731832" lon="0.358416">
        <ele>2951.7</ele>
        <time>2014-08-24T16:13:41Z</time>
      </trkpt>
      <trkpt lat="42.731893" lon="0.358472">
        <ele>2954.4</ele>
        <time>2014-08-24T16:14:29Z</time>
      </trkpt>
      <trkpt lat="42.731977" lon="0.358464">
        <ele>2960.0</ele>
        <time>2014-08-24T16:15:17Z</time>
      </trkpt>
      <trkpt lat="42.732069" lon="0.358471">
        <ele>2962.6</ele>
        <time>2014-08-24T16:15:39Z</time>
      </trkpt>
      <trkpt lat="42.732115" lon="0.358523">
        <ele>2968.3</ele>
        <time>2014-08-24T16:16:08Z</time>
      </trkpt>
      <trkpt lat="42.732212" lon="0.358525">
        <ele>2972.7</ele>
        <time>2014-08-24T16:16:34Z</time>
      </trkpt>
      <trkpt lat="42.732295" lon="0.358549">
        <ele>2972.6</ele>
        <time>2014-08-24T16:17:09Z</time>
      </trkpt>
      <trkpt lat="42.732378" lon="0.358577">
        <ele>2974.3</ele>
        <time>2014-08-24T16:17:29Z</time>
      </trkpt>
      <trkpt lat="42.732442" lon="0.358577">
        <ele>2978.6</ele>
        <time>2014-08-24T16:17:53Z</time>
      </trkpt>
      <trkpt lat="42.732514" lon="0.358567">
        <ele>2981.5</ele>
        <time>2014-08-24T16:18:16Z</time>
      </trkpt>
      <trkpt lat="42.732602" lon="0.358554">
        <ele>2983.7</ele>
        <time>2014-08-24T16:18:36Z</time>
      </trkpt>
      <trkpt lat="42.732681" lon="0.358570">
        <ele>2986.3</ele>
        <time>2014-08-24T16:18:57Z</time>
      </trkpt>
      <trkpt lat="42.732708" lon="0.358612">
        <ele>2986.5</ele>
        <time>2014-08-24T16:20:13Z</time>
      </trkpt>
      <trkpt lat="42.732794" lon="0.358590">
        <ele>2986.9</ele>
        <time>2014-08-24T16:20:45Z</time>
      </trkpt>
      <trkpt lat="42.732883" lon="0.358611">
        <ele>2988.6</ele>
        <time>2014-08-24T16:21:10Z</time>
      </trkpt>
      <trkpt lat="42.732954" lon="0.358668">
        <ele>2990.4</ele>
        <time>2014-08-24T16:21:30Z</time>
      </trkpt>
      <trkpt lat="42.733020" lon="0.358701">
        <ele>2994.2</ele>
        <time>2014-08-24T16:22:10Z</time>
      </trkpt>
      <trkpt lat="42.733096" lon="0.358735">
        <ele>2990.8</ele>
        <time>2014-08-24T16:23:04Z</time>
      </trkpt>
      <trkpt lat="42.733172" lon="0.358809">
        <ele>2987.1</ele>
        <time>2014-08-24T16:23:46Z</time>
      </trkpt>
      <trkpt lat="42.733204" lon="0.358848">
        <ele>2984.6</ele>
        <time>2014-08-24T16:25:13Z</time>
      </trkpt>
      <trkpt lat="42.733224" lon="0.358841">
        <ele>2982.2</ele>
        <time>2014-08-24T16:26:22Z</time>
      </trkpt>
      <trkpt lat="42.733234" lon="0.358855">
        <ele>2980.6</ele>
        <time>2014-08-24T16:28:51Z</time>
      </trkpt>
      <trkpt lat="42.733324" lon="0.358837">
        <ele>2976.4</ele>
        <time>2014-08-24T16:30:15Z</time>
      </trkpt>
      <trkpt lat="42.733344" lon="0.358836">
        <ele>2974.7</ele>
        <time>2014-08-24T16:30:48Z</time>
      </trkpt>
      <trkpt lat="42.733379" lon="0.358817">
        <ele>2973.0</ele>
        <time>2014-08-24T16:31:36Z</time>
      </trkpt>
      <trkpt lat="42.733409" lon="0.358808">
        <ele>2969.6</ele>
        <time>2014-08-24T16:32:51Z</time>
      </trkpt>
      <trkpt lat="42.733446" lon="0.358852">
        <ele>2965.0</ele>
        <time>2014-08-24T16:33:56Z</time>
      </trkpt>
      <trkpt lat="42.733513" lon="0.358864">
        <ele>2963.0</ele>
        <time>2014-08-24T16:35:07Z</time>
      </trkpt>
      <trkpt lat="42.733528" lon="0.358941">
        <ele>2966.6</ele>
        <time>2014-08-24T16:35:42Z</time>
      </trkpt>
      <trkpt lat="42.733580" lon="0.358978">
        <ele>2971.1</ele>
        <time>2014-08-24T16:36:22Z</time>
      </trkpt>
      <trkpt lat="42.733602" lon="0.359053">
        <ele>2976.0</ele>
        <time>2014-08-24T16:37:03Z</time>
      </trkpt>
      <trkpt lat="42.733565" lon="0.359155">
        <ele>2980.5</ele>
        <time>2014-08-24T16:37:47Z</time>
      </trkpt>
      <trkpt lat="42.733633" lon="0.359187">
        <ele>2983.1</ele>
        <time>2014-08-24T16:38:15Z</time>
      </trkpt>
      <trkpt lat="42.733623" lon="0.359281">
        <ele>2990.1</ele>
        <time>2014-08-24T16:39:04Z</time>
      </trkpt>
      <trkpt lat="42.733634" lon="0.359376">
        <ele>3003.1</ele>
        <time>2014-08-24T16:41:02Z</time>
      </trkpt>
      <trkpt lat="42.733695" lon="0.359397">
        <ele>3007.8</ele>
        <time>2014-08-24T16:42:19Z</time>
      </trkpt>
      <trkpt lat="42.733762" lon="0.359439">
        <ele>3016.6</ele>
        <time>2014-08-24T16:43:48Z</time>
      </trkpt>
      <trkpt lat="42.733818" lon="0.359491">
        <ele>3021.6</ele>
        <time>2014-08-24T16:44:42Z</time>
      </trkpt>
      <trkpt lat="42.733846" lon="0.359571">
        <ele>3028.4</ele>
        <time>2014-08-24T16:47:15Z</time>
      </trkpt>
      <trkpt lat="42.733899" lon="0.359604">
        <ele>3025.1</ele>
        <time>2014-08-24T16:48:37Z</time>
      </trkpt>
      <trkpt lat="42.733952" lon="0.359692">
        <ele>3028.1</ele>
        <time>2014-08-24T16:50:43Z</time>
      </trkpt>
      <trkpt lat="42.734025" lon="0.359676">
        <ele>3028.9</ele>
        <time>2014-08-24T16:51:59Z</time>
      </trkpt>
      <trkpt lat="42.734104" lon="0.359717">
        <ele>3026.6</ele>
        <time>2014-08-24T16:52:49Z</time>
      </trkpt>
      <trkpt lat="42.734197" lon="0.359743">
        <ele>3029.2</ele>
        <time>2014-08-24T16:53:31Z</time>
      </trkpt>
      <trkpt lat="42.734279" lon="0.359714">
        <ele>3027.6</ele>
        <time>2014-08-24T16:54:28Z</time>
      </trkpt>
      <trkpt lat="42.734408" lon="0.359709">
        <ele>3028.2</ele>
        <time>2014-08-24T16:56:24Z</time>
      </trkpt>
      <trkpt lat="42.734499" lon="0.359699">
        <ele>3030.6</ele>
        <time>2014-08-24T16:56:57Z</time>
      </trkpt>
      <trkpt lat="42.734586" lon="0.359698">
        <ele>3030.7</ele>
        <time>2014-08-24T16:57:48Z</time>
      </trkpt>
      <trkpt lat="42.734635" lon="0.359740">
        <ele>3025.8</ele>
        <time>2014-08-24T16:59:50Z</time>
      </trkpt>
      <trkpt lat="42.734648" lon="0.359808">
        <ele>3027.7</ele>
        <time>2014-08-24T17:01:02Z</time>
      </trkpt>
      <trkpt lat="42.734680" lon="0.359834">
        <ele>3031.4</ele>
        <time>2014-08-24T17:01:44Z</time>
      </trkpt>
      <trkpt lat="42.734737" lon="0.359909">
        <ele>3032.1</ele>
        <time>2014-08-24T17:02:50Z</time>
      </trkpt>
      <trkpt lat="42.734805" lon="0.360003">
        <ele>3036.4</ele>
        <time>2014-08-24T17:03:22Z</time>
      </trkpt>
      <trkpt lat="42.734887" lon="0.360017">
        <ele>3035.0</ele>
        <time>2014-08-24T17:04:10Z</time>
      </trkpt>
      <trkpt lat="42.734989" lon="0.360020">
        <ele>3036.8</ele>
        <time>2014-08-24T17:04:33Z</time>
      </trkpt>
      <trkpt lat="42.735072" lon="0.359993">
        <ele>3036.7</ele>
        <time>2014-08-24T17:04:44Z</time>
      </trkpt>
      <trkpt lat="42.735130" lon="0.360024">
        <ele>3036.2</ele>
        <time>2014-08-24T17:06:30Z</time>
      </trkpt>
      <trkpt lat="42.735200" lon="0.359966">
        <ele>3036.2</ele>
        <time>2014-08-24T17:06:54Z</time>
      </trkpt>
      <trkpt lat="42.735210" lon="0.359945">
        <ele>3038.0</ele>
        <time>2014-08-24T17:28:06Z</time>
      </trkpt>
      <trkpt lat="42.735270" lon="0.359881">
        <ele>3034.5</ele>
        <time>2014-08-24T17:28:30Z</time>
      </trkpt>
      <trkpt lat="42.735315" lon="0.359873">
        <ele>3029.6</ele>
        <time>2014-08-24T17:29:14Z</time>
      </trkpt>
      <trkpt lat="42.735375" lon="0.359839">
        <ele>3024.2</ele>
        <time>2014-08-24T17:29:37Z</time>
      </trkpt>
      <trkpt lat="42.735406" lon="0.359753">
        <ele>3019.9</ele>
        <time>2014-08-24T17:29:55Z</time>
      </trkpt>
      <trkpt lat="42.735459" lon="0.359652">
        <ele>3015.6</ele>
        <time>2014-08-24T17:30:12Z</time>
      </trkpt>
      <trkpt lat="42.735513" lon="0.359596">
        <ele>3010.8</ele>
        <time>2014-08-24T17:30:33Z</time>
      </trkpt>
      <trkpt lat="42.735587" lon="0.359565">
        <ele>3005.8</ele>
        <time>2014-08-24T17:31:10Z</time>
      </trkpt>
      <trkpt lat="42.735663" lon="0.359565">
        <ele>3000.1</ele>
        <time>2014-08-24T17:31:43Z</time>
      </trkpt>
      <trkpt lat="42.735741" lon="0.359509">
        <ele>2995.8</ele>
        <time>2014-08-24T17:32:08Z</time>
      </trkpt>
      <trkpt lat="42.735784" lon="0.359466">
        <ele>2993.1</ele>
        <time>2014-08-24T17:32:38Z</time>
      </trkpt>
      <trkpt lat="42.735808" lon="0.359461">
        <ele>2989.3</ele>
        <time>2014-08-24T17:33:00Z</time>
      </trkpt>
      <trkpt lat="42.735866" lon="0.359394">
        <ele>2986.0</ele>
        <time>2014-08-24T17:33:23Z</time>
      </trkpt>
      <trkpt lat="42.735926" lon="0.359358">
        <ele>2984.0</ele>
        <time>2014-08-24T17:33:48Z</time>
      </trkpt>
      <trkpt lat="42.735979" lon="0.359265">
        <ele>2983.0</ele>
        <time>2014-08-24T17:34:09Z</time>
      </trkpt>
      <trkpt lat="42.736024" lon="0.359182">
        <ele>2981.1</ele>
        <time>2014-08-24T17:34:34Z</time>
      </trkpt>
      <trkpt lat="42.736059" lon="0.359106">
        <ele>2982.9</ele>
        <time>2014-08-24T17:35:18Z</time>
      </trkpt>
      <trkpt lat="42.736119" lon="0.359039">
        <ele>2982.3</ele>
        <time>2014-08-24T17:36:33Z</time>
      </trkpt>
      <trkpt lat="42.736172" lon="0.358947">
        <ele>2979.7</ele>
        <time>2014-08-24T17:37:04Z</time>
      </trkpt>
      <trkpt lat="42.736235" lon="0.358890">
        <ele>2975.5</ele>
        <time>2014-08-24T17:37:48Z</time>
      </trkpt>
      <trkpt lat="42.736296" lon="0.358934">
        <ele>2970.4</ele>
        <time>2014-08-24T17:38:31Z</time>
      </trkpt>
      <trkpt lat="42.736311" lon="0.359028">
        <ele>2965.4</ele>
        <time>2014-08-24T17:39:06Z</time>
      </trkpt>
      <trkpt lat="42.736350" lon="0.358952">
        <ele>2962.4</ele>
        <time>2014-08-24T17:40:02Z</time>
      </trkpt>
      <trkpt lat="42.736337" lon="0.358831">
        <ele>2965.0</ele>
        <time>2014-08-24T17:40:33Z</time>
      </trkpt>
      <trkpt lat="42.736401" lon="0.358711">
        <ele>2965.4</ele>
        <time>2014-08-24T17:41:16Z</time>
      </trkpt>
      <trkpt lat="42.736487" lon="0.358623">
        <ele>2962.8</ele>
        <time>2014-08-24T17:42:14Z</time>
      </trkpt>
      <trkpt lat="42.736564" lon="0.358564">
        <ele>2961.6</ele>
        <time>2014-08-24T17:42:40Z</time>
      </trkpt>
      <trkpt lat="42.736638" lon="0.358546">
        <ele>2957.6</ele>
        <time>2014-08-24T17:43:05Z</time>
      </trkpt>
      <trkpt lat="42.736710" lon="0.358462">
        <ele>2952.6</ele>
        <time>2014-08-24T17:43:26Z</time>
      </trkpt>
      <trkpt lat="42.736752" lon="0.358348">
        <ele>2950.0</ele>
        <time>2014-08-24T17:43:42Z</time>
      </trkpt>
      <trkpt lat="42.736753" lon="0.358229">
        <ele>2948.2</ele>
        <time>2014-08-24T17:43:59Z</time>
      </trkpt>
      <trkpt lat="42.736787" lon="0.358098">
        <ele>2947.7</ele>
        <time>2014-08-24T17:44:14Z</time>
      </trkpt>
      <trkpt lat="42.736860" lon="0.358039">
        <ele>2948.0</ele>
        <time>2014-08-24T17:44:50Z</time>
      </trkpt>
      <trkpt lat="42.736887" lon="0.357928">
        <ele>2946.7</ele>
        <time>2014-08-24T17:45:18Z</time>
      </trkpt>
      <trkpt lat="42.736898" lon="0.357820">
        <ele>2942.2</ele>
        <time>2014-08-24T17:45:38Z</time>
      </trkpt>
      <trkpt lat="42.736905" lon="0.357721">
        <ele>2937.0</ele>
        <time>2014-08-24T17:45:59Z</time>
      </trkpt>
      <trkpt lat="42.736856" lon="0.357629">
        <ele>2930.2</ele>
        <time>2014-08-24T17:46:29Z</time>
      </trkpt>
      <trkpt lat="42.736853" lon="0.357555">
        <ele>2926.7</ele>
        <time>2014-08-24T17:46:55Z</time>
      </trkpt>
      <trkpt lat="42.736799" lon="0.357453">
        <ele>2921.0</ele>
        <time>2014-08-24T17:47:17Z</time>
      </trkpt>
      <trkpt lat="42.736833" lon="0.357375">
        <ele>2915.8</ele>
        <time>2014-08-24T17:47:42Z</time>
      </trkpt>
      <trkpt lat="42.736858" lon="0.357294">
        <ele>2910.4</ele>
        <time>2014-08-24T17:48:07Z</time>
      </trkpt>
      <trkpt lat="42.736887" lon="0.357194">
        <ele>2905.6</ele>
        <time>2014-08-24T17:48:28Z</time>
      </trkpt>
      <trkpt lat="42.736910" lon="0.357084">
        <ele>2896.1</ele>
        <time>2014-08-24T17:49:18Z</time>
      </trkpt>
      <trkpt lat="42.736894" lon="0.357003">
        <ele>2891.5</ele>
        <time>2014-08-24T17:49:40Z</time>
      </trkpt>
      <trkpt lat="42.736918" lon="0.356903">
        <ele>2886.6</ele>
        <time>2014-08-24T17:50:04Z</time>
      </trkpt>
      <trkpt lat="42.736833" lon="0.356865">
        <ele>2881.9</ele>
        <time>2014-08-24T17:50:28Z</time>
      </trkpt>
      <trkpt lat="42.736738" lon="0.356873">
        <ele>2876.7</ele>
        <time>2014-08-24T17:50:53Z</time>
      </trkpt>
      <trkpt lat="42.736647" lon="0.356849">
        <ele>2872.1</ele>
        <time>2014-08-24T17:51:14Z</time>
      </trkpt>
      <trkpt lat="42.736615" lon="0.356781">
        <ele>2867.6</ele>
        <time>2014-08-24T17:51:31Z</time>
      </trkpt>
      <trkpt lat="42.736589" lon="0.356763">
        <ele>2864.2</ele>
        <time>2014-08-24T17:55:09Z</time>
      </trkpt>
      <trkpt lat="42.736491" lon="0.356746">
        <ele>2863.2</ele>
        <time>2014-08-24T17:55:57Z</time>
      </trkpt>
      <trkpt lat="42.736412" lon="0.356762">
        <ele>2860.2</ele>
        <time>2014-08-24T17:56:08Z</time>
      </trkpt>
      <trkpt lat="42.736330" lon="0.356779">
        <ele>2855.9</ele>
        <time>2014-08-24T17:56:23Z</time>
      </trkpt>
      <trkpt lat="42.736271" lon="0.356839">
        <ele>2851.2</ele>
        <time>2014-08-24T17:56:45Z</time>
      </trkpt>
      <trkpt lat="42.736186" lon="0.356895">
        <ele>2847.9</ele>
        <time>2014-08-24T17:57:06Z</time>
      </trkpt>
      <trkpt lat="42.736093" lon="0.356872">
        <ele>2843.4</ele>
        <time>2014-08-24T17:57:27Z</time>
      </trkpt>
      <trkpt lat="42.736007" lon="0.356841">
        <ele>2840.0</ele>
        <time>2014-08-24T17:57:42Z</time>
      </trkpt>
      <trkpt lat="42.735902" lon="0.356797">
        <ele>2835.9</ele>
        <time>2014-08-24T17:57:57Z</time>
      </trkpt>
      <trkpt lat="42.735792" lon="0.356774">
        <ele>2831.7</ele>
        <time>2014-08-24T17:58:11Z</time>
      </trkpt>
      <trkpt lat="42.735713" lon="0.356744">
        <ele>2827.6</ele>
        <time>2014-08-24T17:58:27Z</time>
      </trkpt>
      <trkpt lat="42.735684" lon="0.356664">
        <ele>2822.5</ele>
        <time>2014-08-24T17:58:48Z</time>
      </trkpt>
      <trkpt lat="42.735723" lon="0.356540">
        <ele>2819.2</ele>
        <time>2014-08-24T17:59:06Z</time>
      </trkpt>
      <trkpt lat="42.735806" lon="0.356490">
        <ele>2817.5</ele>
        <time>2014-08-24T17:59:31Z</time>
      </trkpt>
      <trkpt lat="42.735859" lon="0.356404">
        <ele>2814.6</ele>
        <time>2014-08-24T17:59:47Z</time>
      </trkpt>
      <trkpt lat="42.735850" lon="0.356280">
        <ele>2809.9</ele>
        <time>2014-08-24T18:00:03Z</time>
      </trkpt>
      <trkpt lat="42.735814" lon="0.356197">
        <ele>2805.6</ele>
        <time>2014-08-24T18:00:21Z</time>
      </trkpt>
      <trkpt lat="42.735776" lon="0.356135">
        <ele>2801.2</ele>
        <time>2014-08-24T18:00:39Z</time>
      </trkpt>
      <trkpt lat="42.735708" lon="0.356091">
        <ele>2798.0</ele>
        <time>2014-08-24T18:01:07Z</time>
      </trkpt>
      <trkpt lat="42.735695" lon="0.355984">
        <ele>2794.3</ele>
        <time>2014-08-24T18:01:41Z</time>
      </trkpt>
      <trkpt lat="42.735724" lon="0.355868">
        <ele>2790.2</ele>
        <time>2014-08-24T18:01:57Z</time>
      </trkpt>
      <trkpt lat="42.735777" lon="0.355766">
        <ele>2784.1</ele>
        <time>2014-08-24T18:02:26Z</time>
      </trkpt>
      <trkpt lat="42.735781" lon="0.355690">
        <ele>2781.1</ele>
        <time>2014-08-24T18:02:50Z</time>
      </trkpt>
      <trkpt lat="42.735694" lon="0.355676">
        <ele>2776.7</ele>
        <time>2014-08-24T18:03:35Z</time>
      </trkpt>
      <trkpt lat="42.735599" lon="0.355650">
        <ele>2773.1</ele>
        <time>2014-08-24T18:03:54Z</time>
      </trkpt>
      <trkpt lat="42.735509" lon="0.355657">
        <ele>2769.1</ele>
        <time>2014-08-24T18:04:13Z</time>
      </trkpt>
      <trkpt lat="42.735430" lon="0.355624">
        <ele>2765.1</ele>
        <time>2014-08-24T18:04:33Z</time>
      </trkpt>
      <trkpt lat="42.735331" lon="0.355598">
        <ele>2762.3</ele>
        <time>2014-08-24T18:04:47Z</time>
      </trkpt>
      <trkpt lat="42.735274" lon="0.355562">
        <ele>2758.9</ele>
        <time>2014-08-24T18:05:04Z</time>
      </trkpt>
      <trkpt lat="42.735164" lon="0.355565">
        <ele>2756.7</ele>
        <time>2014-08-24T18:05:17Z</time>
      </trkpt>
      <trkpt lat="42.735077" lon="0.355537">
        <ele>2754.9</ele>
        <time>2014-08-24T18:05:29Z</time>
      </trkpt>
      <trkpt lat="42.735072" lon="0.355425">
        <ele>2751.6</ele>
        <time>2014-08-24T18:05:47Z</time>
      </trkpt>
      <trkpt lat="42.735107" lon="0.355292">
        <ele>2749.3</ele>
        <time>2014-08-24T18:06:02Z</time>
      </trkpt>
      <trkpt lat="42.735115" lon="0.355171">
        <ele>2746.9</ele>
        <time>2014-08-24T18:06:15Z</time>
      </trkpt>
      <trkpt lat="42.735127" lon="0.355047">
        <ele>2744.6</ele>
        <time>2014-08-24T18:06:29Z</time>
      </trkpt>
      <trkpt lat="42.735114" lon="0.354957">
        <ele>2742.4</ele>
        <time>2014-08-24T18:06:46Z</time>
      </trkpt>
      <trkpt lat="42.735069" lon="0.354869">
        <ele>2739.7</ele>
        <time>2014-08-24T18:07:00Z</time>
      </trkpt>
      <trkpt lat="42.735102" lon="0.354765">
        <ele>2737.0</ele>
        <time>2014-08-24T18:07:13Z</time>
      </trkpt>
      <trkpt lat="42.735108" lon="0.354646">
        <ele>2733.3</ele>
        <time>2014-08-24T18:07:26Z</time>
      </trkpt>
      <trkpt lat="42.735102" lon="0.354541">
        <ele>2729.9</ele>
        <time>2014-08-24T18:07:42Z</time>
      </trkpt>
      <trkpt lat="42.735089" lon="0.354426">
        <ele>2725.8</ele>
        <time>2014-08-24T18:07:59Z</time>
      </trkpt>
      <trkpt lat="42.735127" lon="0.354301">
        <ele>2722.7</ele>
        <time>2014-08-24T18:08:14Z</time>
      </trkpt>
      <trkpt lat="42.735135" lon="0.354187">
        <ele>2719.2</ele>
        <time>2014-08-24T18:08:30Z</time>
      </trkpt>
      <trkpt lat="42.735145" lon="0.354058">
        <ele>2715.9</ele>
        <time>2014-08-24T18:08:46Z</time>
      </trkpt>
      <trkpt lat="42.735180" lon="0.353951">
        <ele>2712.4</ele>
        <time>2014-08-24T18:09:01Z</time>
      </trkpt>
      <trkpt lat="42.735196" lon="0.353889">
        <ele>2708.6</ele>
        <time>2014-08-24T18:09:50Z</time>
      </trkpt>
      <trkpt lat="42.735183" lon="0.353786">
        <ele>2705.7</ele>
        <time>2014-08-24T18:10:11Z</time>
      </trkpt>
      <trkpt lat="42.735170" lon="0.353705">
        <ele>2702.1</ele>
        <time>2014-08-24T18:10:28Z</time>
      </trkpt>
      <trkpt lat="42.735225" lon="0.353611">
        <ele>2698.4</ele>
        <time>2014-08-24T18:10:42Z</time>
      </trkpt>
      <trkpt lat="42.735293" lon="0.353539">
        <ele>2695.5</ele>
        <time>2014-08-24T18:11:01Z</time>
      </trkpt>
      <trkpt lat="42.735283" lon="0.353406">
        <ele>2690.6</ele>
        <time>2014-08-24T18:11:38Z</time>
      </trkpt>
      <trkpt lat="42.735278" lon="0.353312">
        <ele>2687.8</ele>
        <time>2014-08-24T18:12:08Z</time>
      </trkpt>
      <trkpt lat="42.735303" lon="0.353189">
        <ele>2684.7</ele>
        <time>2014-08-24T18:12:24Z</time>
      </trkpt>
      <trkpt lat="42.735284" lon="0.353079">
        <ele>2681.6</ele>
        <time>2014-08-24T18:12:42Z</time>
      </trkpt>
      <trkpt lat="42.735315" lon="0.352974">
        <ele>2678.0</ele>
        <time>2014-08-24T18:13:00Z</time>
      </trkpt>
      <trkpt lat="42.735288" lon="0.352878">
        <ele>2674.3</ele>
        <time>2014-08-24T18:13:19Z</time>
      </trkpt>
      <trkpt lat="42.735290" lon="0.352769">
        <ele>2671.2</ele>
        <time>2014-08-24T18:13:34Z</time>
      </trkpt>
      <trkpt lat="42.735318" lon="0.352637">
        <ele>2667.7</ele>
        <time>2014-08-24T18:13:49Z</time>
      </trkpt>
      <trkpt lat="42.735303" lon="0.352559">
        <ele>2664.2</ele>
        <time>2014-08-24T18:14:08Z</time>
      </trkpt>
      <trkpt lat="42.735354" lon="0.352455">
        <ele>2661.7</ele>
        <time>2014-08-24T18:14:24Z</time>
      </trkpt>
      <trkpt lat="42.735383" lon="0.352350">
        <ele>2658.5</ele>
        <time>2014-08-24T18:14:42Z</time>
      </trkpt>
      <trkpt lat="42.735429" lon="0.352244">
        <ele>2655.5</ele>
        <time>2014-08-24T18:15:01Z</time>
      </trkpt>
      <trkpt lat="42.735401" lon="0.352132">
        <ele>2652.0</ele>
        <time>2014-08-24T18:15:23Z</time>
      </trkpt>
      <trkpt lat="42.735378" lon="0.352024">
        <ele>2648.7</ele>
        <time>2014-08-24T18:15:39Z</time>
      </trkpt>
      <trkpt lat="42.735333" lon="0.351919">
        <ele>2646.8</ele>
        <time>2014-08-24T18:15:52Z</time>
      </trkpt>
      <trkpt lat="42.735349" lon="0.351794">
        <ele>2643.9</ele>
        <time>2014-08-24T18:16:08Z</time>
      </trkpt>
      <trkpt lat="42.735316" lon="0.351690">
        <ele>2640.0</ele>
        <time>2014-08-24T18:16:28Z</time>
      </trkpt>
      <trkpt lat="42.735283" lon="0.351606">
        <ele>2636.8</ele>
        <time>2014-08-24T18:16:44Z</time>
      </trkpt>
      <trkpt lat="42.735278" lon="0.351470">
        <ele>2634.0</ele>
        <time>2014-08-24T18:17:10Z</time>
      </trkpt>
      <trkpt lat="42.735224" lon="0.351336">
        <ele>2631.1</ele>
        <time>2014-08-24T18:17:26Z</time>
      </trkpt>
      <trkpt lat="42.735197" lon="0.351196">
        <ele>2629.1</ele>
        <time>2014-08-24T18:17:41Z</time>
      </trkpt>
      <trkpt lat="42.735194" lon="0.351101">
        <ele>2624.3</ele>
        <time>2014-08-24T18:18:00Z</time>
      </trkpt>
      <trkpt lat="42.735179" lon="0.350973">
        <ele>2620.6</ele>
        <time>2014-08-24T18:18:17Z</time>
      </trkpt>
      <trkpt lat="42.735151" lon="0.350823">
        <ele>2617.0</ele>
        <time>2014-08-24T18:18:32Z</time>
      </trkpt>
      <trkpt lat="42.735101" lon="0.350745">
        <ele>2613.1</ele>
        <time>2014-08-24T18:18:47Z</time>
      </trkpt>
      <trkpt lat="42.735134" lon="0.350636">
        <ele>2610.5</ele>
        <time>2014-08-24T18:19:00Z</time>
      </trkpt>
      <trkpt lat="42.735121" lon="0.350543">
        <ele>2607.1</ele>
        <time>2014-08-24T18:19:17Z</time>
      </trkpt>
      <trkpt lat="42.735106" lon="0.350461">
        <ele>2604.8</ele>
        <time>2014-08-24T18:19:32Z</time>
      </trkpt>
      <trkpt lat="42.735188" lon="0.350398">
        <ele>2604.0</ele>
        <time>2014-08-24T18:19:43Z</time>
      </trkpt>
      <trkpt lat="42.735213" lon="0.350268">
        <ele>2601.1</ele>
        <time>2014-08-24T18:19:57Z</time>
      </trkpt>
      <trkpt lat="42.735182" lon="0.350156">
        <ele>2597.1</ele>
        <time>2014-08-24T18:20:11Z</time>
      </trkpt>
      <trkpt lat="42.735174" lon="0.350033">
        <ele>2593.0</ele>
        <time>2014-08-24T18:20:27Z</time>
      </trkpt>
      <trkpt lat="42.735211" lon="0.349917">
        <ele>2589.1</ele>
        <time>2014-08-24T18:20:44Z</time>
      </trkpt>
      <trkpt lat="42.735268" lon="0.349811">
        <ele>2585.3</ele>
        <time>2014-08-24T18:21:00Z</time>
      </trkpt>
      <trkpt lat="42.735339" lon="0.349727">
        <ele>2581.2</ele>
        <time>2014-08-24T18:21:15Z</time>
      </trkpt>
      <trkpt lat="42.735398" lon="0.349621">
        <ele>2577.9</ele>
        <time>2014-08-24T18:21:28Z</time>
      </trkpt>
      <trkpt lat="42.735455" lon="0.349522">
        <ele>2574.8</ele>
        <time>2014-08-24T18:21:40Z</time>
      </trkpt>
      <trkpt lat="42.735517" lon="0.349439">
        <ele>2572.2</ele>
        <time>2014-08-24T18:21:53Z</time>
      </trkpt>
      <trkpt lat="42.735462" lon="0.349399">
        <ele>2569.8</ele>
        <time>2014-08-24T18:22:13Z</time>
      </trkpt>
      <trkpt lat="42.735473" lon="0.349279">
        <ele>2565.8</ele>
        <time>2014-08-24T18:22:29Z</time>
      </trkpt>
      <trkpt lat="42.735446" lon="0.349154">
        <ele>2562.2</ele>
        <time>2014-08-24T18:22:44Z</time>
      </trkpt>
      <trkpt lat="42.735446" lon="0.349026">
        <ele>2558.7</ele>
        <time>2014-08-24T18:22:56Z</time>
      </trkpt>
      <trkpt lat="42.735447" lon="0.348906">
        <ele>2554.4</ele>
        <time>2014-08-24T18:23:09Z</time>
      </trkpt>
      <trkpt lat="42.735426" lon="0.348778">
        <ele>2550.3</ele>
        <time>2014-08-24T18:23:25Z</time>
      </trkpt>
      <trkpt lat="42.735440" lon="0.348655">
        <ele>2545.9</ele>
        <time>2014-08-24T18:23:40Z</time>
      </trkpt>
      <trkpt lat="42.735461" lon="0.348536">
        <ele>2541.4</ele>
        <time>2014-08-24T18:23:56Z</time>
      </trkpt>
      <trkpt lat="42.735503" lon="0.348425">
        <ele>2537.8</ele>
        <time>2014-08-24T18:24:11Z</time>
      </trkpt>
      <trkpt lat="42.735547" lon="0.348318">
        <ele>2534.2</ele>
        <time>2014-08-24T18:24:26Z</time>
      </trkpt>
      <trkpt lat="42.735593" lon="0.348202">
        <ele>2531.1</ele>
        <time>2014-08-24T18:24:39Z</time>
      </trkpt>
      <trkpt lat="42.735629" lon="0.348103">
        <ele>2528.0</ele>
        <time>2014-08-24T18:24:51Z</time>
      </trkpt>
      <trkpt lat="42.735691" lon="0.347981">
        <ele>2526.2</ele>
        <time>2014-08-24T18:25:02Z</time>
      </trkpt>
      <trkpt lat="42.735764" lon="0.347880">
        <ele>2523.7</ele>
        <time>2014-08-24T18:25:13Z</time>
      </trkpt>
      <trkpt lat="42.735846" lon="0.347811">
        <ele>2521.4</ele>
        <time>2014-08-24T18:25:24Z</time>
      </trkpt>
      <trkpt lat="42.735895" lon="0.347698">
        <ele>2518.3</ele>
        <time>2014-08-24T18:25:37Z</time>
      </trkpt>
      <trkpt lat="42.735923" lon="0.347611">
        <ele>2516.3</ele>
        <time>2014-08-24T18:26:50Z</time>
      </trkpt>
      <trkpt lat="42.735993" lon="0.347527">
        <ele>2513.4</ele>
        <time>2014-08-24T18:27:02Z</time>
      </trkpt>
      <trkpt lat="42.736061" lon="0.347443">
        <ele>2509.9</ele>
        <time>2014-08-24T18:27:16Z</time>
      </trkpt>
      <trkpt lat="42.736094" lon="0.347320">
        <ele>2507.5</ele>
        <time>2014-08-24T18:27:27Z</time>
      </trkpt>
      <trkpt lat="42.736155" lon="0.347271">
        <ele>2503.8</ele>
        <time>2014-08-24T18:27:58Z</time>
      </trkpt>
      <trkpt lat="42.736200" lon="0.347153">
        <ele>2501.6</ele>
        <time>2014-08-24T18:28:12Z</time>
      </trkpt>
      <trkpt lat="42.736230" lon="0.347042">
        <ele>2498.1</ele>
        <time>2014-08-24T18:28:30Z</time>
      </trkpt>
      <trkpt lat="42.736188" lon="0.346931">
        <ele>2493.6</ele>
        <time>2014-08-24T18:28:46Z</time>
      </trkpt>
      <trkpt lat="42.736154" lon="0.346837">
        <ele>2488.8</ele>
        <time>2014-08-24T18:29:03Z</time>
      </trkpt>
      <trkpt lat="42.736094" lon="0.346750">
        <ele>2484.9</ele>
        <time>2014-08-24T18:29:20Z</time>
      </trkpt>
      <trkpt lat="42.736068" lon="0.346653">
        <ele>2480.5</ele>
        <time>2014-08-24T18:29:36Z</time>
      </trkpt>
      <trkpt lat="42.736015" lon="0.346577">
        <ele>2475.8</ele>
        <time>2014-08-24T18:29:56Z</time>
      </trkpt>
      <trkpt lat="42.735954" lon="0.346493">
        <ele>2471.5</ele>
        <time>2014-08-24T18:30:11Z</time>
      </trkpt>
      <trkpt lat="42.735867" lon="0.346429">
        <ele>2467.9</ele>
        <time>2014-08-24T18:30:28Z</time>
      </trkpt>
      <trkpt lat="42.735796" lon="0.346354">
        <ele>2464.8</ele>
        <time>2014-08-24T18:30:44Z</time>
      </trkpt>
      <trkpt lat="42.735702" lon="0.346250">
        <ele>2461.9</ele>
        <time>2014-08-24T18:31:02Z</time>
      </trkpt>
      <trkpt lat="42.735668" lon="0.346154">
        <ele>2457.9</ele>
        <time>2014-08-24T18:31:18Z</time>
      </trkpt>
      <trkpt lat="42.735609" lon="0.346072">
        <ele>2454.3</ele>
        <time>2014-08-24T18:31:33Z</time>
      </trkpt>
      <trkpt lat="42.735647" lon="0.345952">
        <ele>2450.9</ele>
        <time>2014-08-24T18:31:47Z</time>
      </trkpt>
      <trkpt lat="42.735670" lon="0.345837">
        <ele>2447.1</ele>
        <time>2014-08-24T18:32:02Z</time>
      </trkpt>
      <trkpt lat="42.735685" lon="0.345723">
        <ele>2443.4</ele>
        <time>2014-08-24T18:32:16Z</time>
      </trkpt>
      <trkpt lat="42.735718" lon="0.345620">
        <ele>2439.3</ele>
        <time>2014-08-24T18:32:36Z</time>
      </trkpt>
      <trkpt lat="42.735724" lon="0.345510">
        <ele>2435.1</ele>
        <time>2014-08-24T18:32:54Z</time>
      </trkpt>
      <trkpt lat="42.735761" lon="0.345411">
        <ele>2430.7</ele>
        <time>2014-08-24T18:33:16Z</time>
      </trkpt>
      <trkpt lat="42.735821" lon="0.345314">
        <ele>2427.2</ele>
        <time>2014-08-24T18:33:31Z</time>
      </trkpt>
      <trkpt lat="42.735806" lon="0.345218">
        <ele>2423.1</ele>
        <time>2014-08-24T18:33:48Z</time>
      </trkpt>
      <trkpt lat="42.735823" lon="0.345089">
        <ele>2419.8</ele>
        <time>2014-08-24T18:34:01Z</time>
      </trkpt>
      <trkpt lat="42.735839" lon="0.345026">
        <ele>2415.8</ele>
        <time>2014-08-24T18:35:18Z</time>
      </trkpt>
      <trkpt lat="42.735848" lon="0.344932">
        <ele>2379.4</ele>
        <time>2014-08-24T18:37:16Z</time>
      </trkpt>
      <trkpt lat="42.735938" lon="0.344942">
        <ele>2378.3</ele>
        <time>2014-08-24T18:40:26Z</time>
      </trkpt>
      <trkpt lat="42.735995" lon="0.344816">
        <ele>2374.4</ele>
        <time>2014-08-24T18:40:44Z</time>
      </trkpt>
      <trkpt lat="42.736071" lon="0.344709">
        <ele>2371.1</ele>
        <time>2014-08-24T18:40:59Z</time>
      </trkpt>
      <trkpt lat="42.736145" lon="0.344626">
        <ele>2367.8</ele>
        <time>2014-08-24T18:41:11Z</time>
      </trkpt>
      <trkpt lat="42.736192" lon="0.344521">
        <ele>2365.2</ele>
        <time>2014-08-24T18:41:23Z</time>
      </trkpt>
      <trkpt lat="42.736232" lon="0.344426">
        <ele>2361.6</ele>
        <time>2014-08-24T18:41:36Z</time>
      </trkpt>
      <trkpt lat="42.736256" lon="0.344313">
        <ele>2357.9</ele>
        <time>2014-08-24T18:41:50Z</time>
      </trkpt>
      <trkpt lat="42.736310" lon="0.344242">
        <ele>2354.9</ele>
        <time>2014-08-24T18:42:03Z</time>
      </trkpt>
      <trkpt lat="42.736369" lon="0.344135">
        <ele>2352.3</ele>
        <time>2014-08-24T18:42:15Z</time>
      </trkpt>
      <trkpt lat="42.736374" lon="0.344042">
        <ele>2349.6</ele>
        <time>2014-08-24T18:42:29Z</time>
      </trkpt>
      <trkpt lat="42.736418" lon="0.343932">
        <ele>2347.3</ele>
        <time>2014-08-24T18:42:40Z</time>
      </trkpt>
      <trkpt lat="42.736491" lon="0.343851">
        <ele>2345.1</ele>
        <time>2014-08-24T18:42:50Z</time>
      </trkpt>
      <trkpt lat="42.736569" lon="0.343787">
        <ele>2343.5</ele>
        <time>2014-08-24T18:43:04Z</time>
      </trkpt>
      <trkpt lat="42.736661" lon="0.343735">
        <ele>2343.3</ele>
        <time>2014-08-24T18:43:16Z</time>
      </trkpt>
      <trkpt lat="42.736742" lon="0.343647">
        <ele>2341.8</ele>
        <time>2014-08-24T18:43:28Z</time>
      </trkpt>
      <trkpt lat="42.736818" lon="0.343571">
        <ele>2339.5</ele>
        <time>2014-08-24T18:43:41Z</time>
      </trkpt>
      <trkpt lat="42.736896" lon="0.343494">
        <ele>2337.3</ele>
        <time>2014-08-24T18:43:52Z</time>
      </trkpt>
      <trkpt lat="42.736968" lon="0.343398">
        <ele>2335.4</ele>
        <time>2014-08-24T18:44:04Z</time>
      </trkpt>
      <trkpt lat="42.737049" lon="0.343313">
        <ele>2332.9</ele>
        <time>2014-08-24T18:44:16Z</time>
      </trkpt>
      <trkpt lat="42.737132" lon="0.343250">
        <ele>2330.9</ele>
        <time>2014-08-24T18:44:28Z</time>
      </trkpt>
      <trkpt lat="42.737203" lon="0.343191">
        <ele>2328.6</ele>
        <time>2014-08-24T18:44:38Z</time>
      </trkpt>
      <trkpt lat="42.737271" lon="0.343095">
        <ele>2327.2</ele>
        <time>2014-08-24T18:44:49Z</time>
      </trkpt>
      <trkpt lat="42.737260" lon="0.343015">
        <ele>2323.2</ele>
        <time>2014-08-24T18:45:12Z</time>
      </trkpt>
      <trkpt lat="42.737178" lon="0.342947">
        <ele>2319.9</ele>
        <time>2014-08-24T18:45:26Z</time>
      </trkpt>
      <trkpt lat="42.737129" lon="0.342859">
        <ele>2316.2</ele>
        <time>2014-08-24T18:45:40Z</time>
      </trkpt>
      <trkpt lat="42.737158" lon="0.342756">
        <ele>2312.0</ele>
        <time>2014-08-24T18:45:55Z</time>
      </trkpt>
      <trkpt lat="42.737215" lon="0.342683">
        <ele>2308.8</ele>
        <time>2014-08-24T18:46:09Z</time>
      </trkpt>
      <trkpt lat="42.737290" lon="0.342606">
        <ele>2304.8</ele>
        <time>2014-08-24T18:46:24Z</time>
      </trkpt>
      <trkpt lat="42.737338" lon="0.342513">
        <ele>2301.4</ele>
        <time>2014-08-24T18:46:48Z</time>
      </trkpt>
      <trkpt lat="42.737336" lon="0.342389">
        <ele>2298.0</ele>
        <time>2014-08-24T18:47:03Z</time>
      </trkpt>
      <trkpt lat="42.737347" lon="0.342283">
        <ele>2294.6</ele>
        <time>2014-08-24T18:47:17Z</time>
      </trkpt>
      <trkpt lat="42.737330" lon="0.342180">
        <ele>2290.7</ele>
        <time>2014-08-24T18:47:32Z</time>
      </trkpt>
      <trkpt lat="42.737284" lon="0.342071">
        <ele>2287.5</ele>
        <time>2014-08-24T18:47:44Z</time>
      </trkpt>
      <trkpt lat="42.737332" lon="0.341982">
        <ele>2283.9</ele>
        <time>2014-08-24T18:47:59Z</time>
      </trkpt>
      <trkpt lat="42.737394" lon="0.341891">
        <ele>2279.8</ele>
        <time>2014-08-24T18:48:14Z</time>
      </trkpt>
      <trkpt lat="42.737401" lon="0.341817">
        <ele>2275.6</ele>
        <time>2014-08-24T18:48:30Z</time>
      </trkpt>
      <trkpt lat="42.737376" lon="0.341706">
        <ele>2272.5</ele>
        <time>2014-08-24T18:48:44Z</time>
      </trkpt>
      <trkpt lat="42.737358" lon="0.341588">
        <ele>2269.0</ele>
        <time>2014-08-24T18:48:57Z</time>
      </trkpt>
      <trkpt lat="42.737319" lon="0.341472">
        <ele>2265.2</ele>
        <time>2014-08-24T18:49:11Z</time>
      </trkpt>
      <trkpt lat="42.737299" lon="0.341353">
        <ele>2262.1</ele>
        <time>2014-08-24T18:49:24Z</time>
      </trkpt>
      <trkpt lat="42.737344" lon="0.341242">
        <ele>2258.9</ele>
        <time>2014-08-24T18:49:37Z</time>
      </trkpt>
      <trkpt lat="42.737412" lon="0.341162">
        <ele>2255.9</ele>
        <time>2014-08-24T18:49:51Z</time>
      </trkpt>
      <trkpt lat="42.737414" lon="0.341050">
        <ele>2252.6</ele>
        <time>2014-08-24T18:50:05Z</time>
      </trkpt>
      <trkpt lat="42.737428" lon="0.340966">
        <ele>2249.4</ele>
        <time>2014-08-24T18:50:19Z</time>
      </trkpt>
      <trkpt lat="42.737425" lon="0.340913">
        <ele>2246.6</ele>
        <time>2014-08-24T18:50:56Z</time>
      </trkpt>
      <trkpt lat="42.737467" lon="0.340811">
        <ele>2243.4</ele>
        <time>2014-08-24T18:51:13Z</time>
      </trkpt>
      <trkpt lat="42.737481" lon="0.340714">
        <ele>2238.5</ele>
        <time>2014-08-24T18:51:32Z</time>
      </trkpt>
      <trkpt lat="42.737496" lon="0.340593">
        <ele>2233.5</ele>
        <time>2014-08-24T18:51:52Z</time>
      </trkpt>
      <trkpt lat="42.737551" lon="0.340522">
        <ele>2229.4</ele>
        <time>2014-08-24T18:52:09Z</time>
      </trkpt>
      <trkpt lat="42.737503" lon="0.340428">
        <ele>2225.8</ele>
        <time>2014-08-24T18:52:26Z</time>
      </trkpt>
      <trkpt lat="42.737558" lon="0.340323">
        <ele>2221.0</ele>
        <time>2014-08-24T18:52:44Z</time>
      </trkpt>
      <trkpt lat="42.737610" lon="0.340226">
        <ele>2217.3</ele>
        <time>2014-08-24T18:52:59Z</time>
      </trkpt>
      <trkpt lat="42.737542" lon="0.340148">
        <ele>2212.6</ele>
        <time>2014-08-24T18:53:19Z</time>
      </trkpt>
      <trkpt lat="42.737463" lon="0.340085">
        <ele>2208.9</ele>
        <time>2014-08-24T18:53:33Z</time>
      </trkpt>
      <trkpt lat="42.737397" lon="0.340008">
        <ele>2206.0</ele>
        <time>2014-08-24T18:53:45Z</time>
      </trkpt>
      <trkpt lat="42.737476" lon="0.339921">
        <ele>2203.1</ele>
        <time>2014-08-24T18:53:58Z</time>
      </trkpt>
      <trkpt lat="42.737498" lon="0.339812">
        <ele>2199.3</ele>
        <time>2014-08-24T18:54:15Z</time>
      </trkpt>
      <trkpt lat="42.737455" lon="0.339737">
        <ele>2195.1</ele>
        <time>2014-08-24T18:54:32Z</time>
      </trkpt>
      <trkpt lat="42.737454" lon="0.339651">
        <ele>2191.6</ele>
        <time>2014-08-24T18:54:47Z</time>
      </trkpt>
      <trkpt lat="42.737345" lon="0.339640">
        <ele>2188.3</ele>
        <time>2014-08-24T18:55:01Z</time>
      </trkpt>
      <trkpt lat="42.737314" lon="0.339571">
        <ele>2185.2</ele>
        <time>2014-08-24T18:55:13Z</time>
      </trkpt>
      <trkpt lat="42.737357" lon="0.339465">
        <ele>2182.1</ele>
        <time>2014-08-24T18:55:27Z</time>
      </trkpt>
      <trkpt lat="42.737303" lon="0.339353">
        <ele>2177.9</ele>
        <time>2014-08-24T18:55:43Z</time>
      </trkpt>
      <trkpt lat="42.737321" lon="0.339251">
        <ele>2175.0</ele>
        <time>2014-08-24T18:55:59Z</time>
      </trkpt>
      <trkpt lat="42.737360" lon="0.339140">
        <ele>2171.1</ele>
        <time>2014-08-24T18:56:14Z</time>
      </trkpt>
      <trkpt lat="42.737402" lon="0.339035">
        <ele>2167.1</ele>
        <time>2014-08-24T18:56:32Z</time>
      </trkpt>
      <trkpt lat="42.737439" lon="0.338920">
        <ele>2164.0</ele>
        <time>2014-08-24T18:56:47Z</time>
      </trkpt>
      <trkpt lat="42.737493" lon="0.338845">
        <ele>2160.8</ele>
        <time>2014-08-24T18:56:59Z</time>
      </trkpt>
      <trkpt lat="42.737541" lon="0.338737">
        <ele>2157.3</ele>
        <time>2014-08-24T18:57:14Z</time>
      </trkpt>
      <trkpt lat="42.737604" lon="0.338620">
        <ele>2153.5</ele>
        <time>2014-08-24T18:57:28Z</time>
      </trkpt>
      <trkpt lat="42.737626" lon="0.338502">
        <ele>2149.5</ele>
        <time>2014-08-24T18:57:44Z</time>
      </trkpt>
      <trkpt lat="42.737627" lon="0.338388">
        <ele>2145.7</ele>
        <time>2014-08-24T18:57:59Z</time>
      </trkpt>
      <trkpt lat="42.737667" lon="0.338268">
        <ele>2142.0</ele>
        <time>2014-08-24T18:58:13Z</time>
      </trkpt>
      <trkpt lat="42.737674" lon="0.338156">
        <ele>2138.3</ele>
        <time>2014-08-24T18:58:29Z</time>
      </trkpt>
      <trkpt lat="42.737607" lon="0.338107">
        <ele>2134.1</ele>
        <time>2014-08-24T18:58:44Z</time>
      </trkpt>
      <trkpt lat="42.737534" lon="0.338059">
        <ele>2129.9</ele>
        <time>2014-08-24T18:59:00Z</time>
      </trkpt>
      <trkpt lat="42.737504" lon="0.337986">
        <ele>2126.1</ele>
        <time>2014-08-24T18:59:21Z</time>
      </trkpt>
      <trkpt lat="42.737556" lon="0.337868">
        <ele>2123.2</ele>
        <time>2014-08-24T18:59:35Z</time>
      </trkpt>
      <trkpt lat="42.737502" lon="0.337781">
        <ele>2119.0</ele>
        <time>2014-08-24T18:59:51Z</time>
      </trkpt>
      <trkpt lat="42.737423" lon="0.337709">
        <ele>2115.2</ele>
        <time>2014-08-24T19:00:06Z</time>
      </trkpt>
      <trkpt lat="42.737439" lon="0.337580">
        <ele>2111.0</ele>
        <time>2014-08-24T19:00:21Z</time>
      </trkpt>
      <trkpt lat="42.737458" lon="0.337453">
        <ele>2107.5</ele>
        <time>2014-08-24T19:00:34Z</time>
      </trkpt>
      <trkpt lat="42.737512" lon="0.337347">
        <ele>2103.9</ele>
        <time>2014-08-24T19:00:47Z</time>
      </trkpt>
      <trkpt lat="42.737574" lon="0.337258">
        <ele>2100.4</ele>
        <time>2014-08-24T19:01:04Z</time>
      </trkpt>
      <trkpt lat="42.737585" lon="0.337147">
        <ele>2095.9</ele>
        <time>2014-08-24T19:01:23Z</time>
      </trkpt>
      <trkpt lat="42.737627" lon="0.337025">
        <ele>2091.8</ele>
        <time>2014-08-24T19:01:39Z</time>
      </trkpt>
      <trkpt lat="42.737685" lon="0.336931">
        <ele>2088.5</ele>
        <time>2014-08-24T19:01:56Z</time>
      </trkpt>
      <trkpt lat="42.737722" lon="0.336827">
        <ele>2084.7</ele>
        <time>2014-08-24T19:02:13Z</time>
      </trkpt>
      <trkpt lat="42.737745" lon="0.336729">
        <ele>2078.6</ele>
        <time>2014-08-24T19:03:32Z</time>
      </trkpt>
      <trkpt lat="42.737746" lon="0.336705">
        <ele>2078.9</ele>
        <time>2014-08-24T19:08:07Z</time>
      </trkpt>
      <trkpt lat="42.737819" lon="0.336715">
        <ele>2078.3</ele>
        <time>2014-08-24T19:08:29Z</time>
      </trkpt>
      <trkpt lat="42.737885" lon="0.336634">
        <ele>2076.3</ele>
        <time>2014-08-24T19:08:48Z</time>
      </trkpt>
      <trkpt lat="42.737971" lon="0.336566">
        <ele>2072.8</ele>
        <time>2014-08-24T19:09:07Z</time>
      </trkpt>
      <trkpt lat="42.737960" lon="0.336493">
        <ele>2067.9</ele>
        <time>2014-08-24T19:09:36Z</time>
      </trkpt>
      <trkpt lat="42.738026" lon="0.336471">
        <ele>2066.3</ele>
        <time>2014-08-24T19:13:44Z</time>
      </trkpt>
      <trkpt lat="42.738026" lon="0.336366">
        <ele>2063.6</ele>
        <time>2014-08-24T19:14:02Z</time>
      </trkpt>
      <trkpt lat="42.738033" lon="0.336272">
        <ele>2060.3</ele>
        <time>2014-08-24T19:14:19Z</time>
      </trkpt>
      <trkpt lat="42.738094" lon="0.336195">
        <ele>2056.8</ele>
        <time>2014-08-24T19:14:34Z</time>
      </trkpt>
      <trkpt lat="42.738070" lon="0.336102">
        <ele>2053.1</ele>
        <time>2014-08-24T19:14:50Z</time>
      </trkpt>
      <trkpt lat="42.738170" lon="0.336065">
        <ele>2049.6</ele>
        <time>2014-08-24T19:15:06Z</time>
      </trkpt>
      <trkpt lat="42.738171" lon="0.335988">
        <ele>2045.5</ele>
        <time>2014-08-24T19:15:23Z</time>
      </trkpt>
      <trkpt lat="42.738129" lon="0.335875">
        <ele>2040.8</ele>
        <time>2014-08-24T19:15:46Z</time>
      </trkpt>
      <trkpt lat="42.738160" lon="0.335786">
        <ele>2036.6</ele>
        <time>2014-08-24T19:16:04Z</time>
      </trkpt>
      <trkpt lat="42.738175" lon="0.335694">
        <ele>2032.1</ele>
        <time>2014-08-24T19:16:22Z</time>
      </trkpt>
      <trkpt lat="42.738116" lon="0.335578">
        <ele>2027.7</ele>
        <time>2014-08-24T19:16:43Z</time>
      </trkpt>
      <trkpt lat="42.738117" lon="0.335467">
        <ele>2023.7</ele>
        <time>2014-08-24T19:17:03Z</time>
      </trkpt>
      <trkpt lat="42.738152" lon="0.335343">
        <ele>2020.1</ele>
        <time>2014-08-24T19:17:21Z</time>
      </trkpt>
      <trkpt lat="42.738171" lon="0.335222">
        <ele>2017.2</ele>
        <time>2014-08-24T19:17:35Z</time>
      </trkpt>
      <trkpt lat="42.738236" lon="0.335116">
        <ele>2013.9</ele>
        <time>2014-08-24T19:17:51Z</time>
      </trkpt>
      <trkpt lat="42.738331" lon="0.335093">
        <ele>2010.2</ele>
        <time>2014-08-24T19:18:10Z</time>
      </trkpt>
      <trkpt lat="42.738346" lon="0.334965">
        <ele>2005.4</ele>
        <time>2014-08-24T19:18:28Z</time>
      </trkpt>
      <trkpt lat="42.738426" lon="0.334909">
        <ele>2001.5</ele>
        <time>2014-08-24T19:18:46Z</time>
      </trkpt>
      <trkpt lat="42.738451" lon="0.334795">
        <ele>1997.3</ele>
        <time>2014-08-24T19:19:03Z</time>
      </trkpt>
      <trkpt lat="42.738423" lon="0.334695">
        <ele>1992.7</ele>
        <time>2014-08-24T19:19:24Z</time>
      </trkpt>
      <trkpt lat="42.738440" lon="0.334594">
        <ele>1988.9</ele>
        <time>2014-08-24T19:19:42Z</time>
      </trkpt>
      <trkpt lat="42.738470" lon="0.334465">
        <ele>1985.5</ele>
        <time>2014-08-24T19:20:01Z</time>
      </trkpt>
      <trkpt lat="42.738459" lon="0.334344">
        <ele>1980.3</ele>
        <time>2014-08-24T19:20:23Z</time>
      </trkpt>
      <trkpt lat="42.738369" lon="0.334294">
        <ele>1976.5</ele>
        <time>2014-08-24T19:20:43Z</time>
      </trkpt>
      <trkpt lat="42.738324" lon="0.334194">
        <ele>1972.2</ele>
        <time>2014-08-24T19:21:05Z</time>
      </trkpt>
      <trkpt lat="42.738294" lon="0.334064">
        <ele>1968.2</ele>
        <time>2014-08-24T19:21:32Z</time>
      </trkpt>
      <trkpt lat="42.738204" lon="0.334038">
        <ele>1964.3</ele>
        <time>2014-08-24T19:21:51Z</time>
      </trkpt>
      <trkpt lat="42.738128" lon="0.334017">
        <ele>1960.8</ele>
        <time>2014-08-24T19:22:08Z</time>
      </trkpt>
      <trkpt lat="42.738096" lon="0.333899">
        <ele>1956.7</ele>
        <time>2014-08-24T19:22:27Z</time>
      </trkpt>
      <trkpt lat="42.738038" lon="0.333808">
        <ele>1952.6</ele>
        <time>2014-08-24T19:22:44Z</time>
      </trkpt>
      <trkpt lat="42.737925" lon="0.333778">
        <ele>1948.9</ele>
        <time>2014-08-24T19:23:03Z</time>
      </trkpt>
      <trkpt lat="42.737845" lon="0.333731">
        <ele>1945.9</ele>
        <time>2014-08-24T19:23:20Z</time>
      </trkpt>
      <trkpt lat="42.737782" lon="0.333620">
        <ele>1942.8</ele>
        <time>2014-08-24T19:23:35Z</time>
      </trkpt>
      <trkpt lat="42.737760" lon="0.333562">
        <ele>1939.8</ele>
        <time>2014-08-24T19:24:17Z</time>
      </trkpt>
      <trkpt lat="42.737664" lon="0.333491">
        <ele>1938.2</ele>
        <time>2014-08-24T19:24:34Z</time>
      </trkpt>
      <trkpt lat="42.737561" lon="0.333421">
        <ele>1936.7</ele>
        <time>2014-08-24T19:24:47Z</time>
      </trkpt>
      <trkpt lat="42.737557" lon="0.333286">
        <ele>1936.1</ele>
        <time>2014-08-24T19:25:04Z</time>
      </trkpt>
      <trkpt lat="42.737607" lon="0.333145">
        <ele>1935.3</ele>
        <time>2014-08-24T19:25:16Z</time>
      </trkpt>
      <trkpt lat="42.737670" lon="0.333022">
        <ele>1934.5</ele>
        <time>2014-08-24T19:25:27Z</time>
      </trkpt>
      <trkpt lat="42.737713" lon="0.332917">
        <ele>1933.4</ele>
        <time>2014-08-24T19:25:38Z</time>
      </trkpt>
      <trkpt lat="42.737794" lon="0.332825">
        <ele>1931.2</ele>
        <time>2014-08-24T19:25:53Z</time>
      </trkpt>
      <trkpt lat="42.737859" lon="0.332760">
        <ele>1928.3</ele>
        <time>2014-08-24T19:26:07Z</time>
      </trkpt>
      <trkpt lat="42.737911" lon="0.332652">
        <ele>1925.6</ele>
        <time>2014-08-24T19:26:21Z</time>
      </trkpt>
      <trkpt lat="42.737917" lon="0.332515">
        <ele>1923.8</ele>
        <time>2014-08-24T19:26:34Z</time>
      </trkpt>
      <trkpt lat="42.737963" lon="0.332388">
        <ele>1922.0</ele>
        <time>2014-08-24T19:26:49Z</time>
      </trkpt>
      <trkpt lat="42.737996" lon="0.332282">
        <ele>1919.3</ele>
        <time>2014-08-24T19:27:03Z</time>
      </trkpt>
      <trkpt lat="42.738057" lon="0.332177">
        <ele>1916.7</ele>
        <time>2014-08-24T19:27:22Z</time>
      </trkpt>
      <trkpt lat="42.738109" lon="0.332056">
        <ele>1914.6</ele>
        <time>2014-08-24T19:27:36Z</time>
      </trkpt>
      <trkpt lat="42.738154" lon="0.331944">
        <ele>1912.3</ele>
        <time>2014-08-24T19:27:48Z</time>
      </trkpt>
      <trkpt lat="42.738198" lon="0.331829">
        <ele>1910.2</ele>
        <time>2014-08-24T19:27:58Z</time>
      </trkpt>
      <trkpt lat="42.738211" lon="0.331710">
        <ele>1908.2</ele>
        <time>2014-08-24T19:28:09Z</time>
      </trkpt>
      <trkpt lat="42.738238" lon="0.331588">
        <ele>1906.9</ele>
        <time>2014-08-24T19:28:19Z</time>
      </trkpt>
      <trkpt lat="42.738264" lon="0.331457">
        <ele>1906.8</ele>
        <time>2014-08-24T19:28:30Z</time>
      </trkpt>
      <trkpt lat="42.738315" lon="0.331332">
        <ele>1905.1</ele>
        <time>2014-08-24T19:28:43Z</time>
      </trkpt>
      <trkpt lat="42.738363" lon="0.331205">
        <ele>1903.3</ele>
        <time>2014-08-24T19:28:54Z</time>
      </trkpt>
      <trkpt lat="42.738419" lon="0.331153">
        <ele>1900.9</ele>
        <time>2014-08-24T19:29:11Z</time>
      </trkpt>
      <trkpt lat="42.738506" lon="0.331189">
        <ele>1897.9</ele>
        <time>2014-08-24T19:29:27Z</time>
      </trkpt>
      <trkpt lat="42.738584" lon="0.331144">
        <ele>1895.1</ele>
        <time>2014-08-24T19:29:41Z</time>
      </trkpt>
      <trkpt lat="42.738655" lon="0.331067">
        <ele>1892.3</ele>
        <time>2014-08-24T19:29:54Z</time>
      </trkpt>
      <trkpt lat="42.738663" lon="0.330958">
        <ele>1889.9</ele>
        <time>2014-08-24T19:30:07Z</time>
      </trkpt>
      <trkpt lat="42.738751" lon="0.330909">
        <ele>1887.0</ele>
        <time>2014-08-24T19:30:24Z</time>
      </trkpt>
      <trkpt lat="42.738755" lon="0.330772">
        <ele>1883.3</ele>
        <time>2014-08-24T19:30:44Z</time>
      </trkpt>
      <trkpt lat="42.738750" lon="0.330633">
        <ele>1880.4</ele>
        <time>2014-08-24T19:30:57Z</time>
      </trkpt>
      <trkpt lat="42.738760" lon="0.330495">
        <ele>1878.1</ele>
        <time>2014-08-24T19:31:10Z</time>
      </trkpt>
      <trkpt lat="42.738819" lon="0.330387">
        <ele>1877.5</ele>
        <time>2014-08-24T19:31:21Z</time>
      </trkpt>
      <trkpt lat="42.738877" lon="0.330262">
        <ele>1875.0</ele>
        <time>2014-08-24T19:31:36Z</time>
      </trkpt>
      <trkpt lat="42.738930" lon="0.330141">
        <ele>1871.8</ele>
        <time>2014-08-24T19:31:52Z</time>
      </trkpt>
      <trkpt lat="42.739013" lon="0.330062">
        <ele>1868.8</ele>
        <time>2014-08-24T19:32:06Z</time>
      </trkpt>
      <trkpt lat="42.739090" lon="0.330020">
        <ele>1865.8</ele>
        <time>2014-08-24T19:32:24Z</time>
      </trkpt>
      <trkpt lat="42.739191" lon="0.329970">
        <ele>1861.8</ele>
        <time>2014-08-24T19:32:45Z</time>
      </trkpt>
      <trkpt lat="42.739182" lon="0.329843">
        <ele>1858.5</ele>
        <time>2014-08-24T19:33:00Z</time>
      </trkpt>
      <trkpt lat="42.739260" lon="0.329774">
        <ele>1854.9</ele>
        <time>2014-08-24T19:33:18Z</time>
      </trkpt>
      <trkpt lat="42.739311" lon="0.329667">
        <ele>1851.6</ele>
        <time>2014-08-24T19:33:35Z</time>
      </trkpt>
      <trkpt lat="42.739316" lon="0.329619">
        <ele>1849.6</ele>
        <time>2014-08-24T19:33:48Z</time>
      </trkpt>
      <trkpt lat="42.739329" lon="0.329593">
        <ele>1847.7</ele>
        <time>2014-08-24T19:34:24Z</time>
      </trkpt>
      <trkpt lat="42.739376" lon="0.329467">
        <ele>1844.9</ele>
        <time>2014-08-24T19:34:39Z</time>
      </trkpt>
      <trkpt lat="42.739457" lon="0.329418">
        <ele>1843.3</ele>
        <time>2014-08-24T19:34:54Z</time>
      </trkpt>
      <trkpt lat="42.739548" lon="0.329355">
        <ele>1839.9</ele>
        <time>2014-08-24T19:35:20Z</time>
      </trkpt>
      <trkpt lat="42.739512" lon="0.329311">
        <ele>1838.1</ele>
        <time>2014-08-24T19:35:43Z</time>
      </trkpt>
      <trkpt lat="42.739534" lon="0.329215">
        <ele>1832.7</ele>
        <time>2014-08-24T19:36:10Z</time>
      </trkpt>
      <trkpt lat="42.739485" lon="0.329095">
        <ele>1830.0</ele>
        <time>2014-08-24T19:36:26Z</time>
      </trkpt>
      <trkpt lat="42.739502" lon="0.329002">
        <ele>1825.3</ele>
        <time>2014-08-24T19:36:50Z</time>
      </trkpt>
      <trkpt lat="42.739533" lon="0.328892">
        <ele>1821.2</ele>
        <time>2014-08-24T19:37:11Z</time>
      </trkpt>
      <trkpt lat="42.739616" lon="0.328902">
        <ele>1817.0</ele>
        <time>2014-08-24T19:37:35Z</time>
      </trkpt>
      <trkpt lat="42.739644" lon="0.328809">
        <ele>1813.3</ele>
        <time>2014-08-24T19:37:58Z</time>
      </trkpt>
      <trkpt lat="42.739669" lon="0.328767">
        <ele>1809.2</ele>
        <time>2014-08-24T19:38:28Z</time>
      </trkpt>
      <trkpt lat="42.739677" lon="0.328719">
        <ele>1808.2</ele>
        <time>2014-08-24T19:38:51Z</time>
      </trkpt>
      <trkpt lat="42.739714" lon="0.328627">
        <ele>1804.8</ele>
        <time>2014-08-24T19:39:15Z</time>
      </trkpt>
      <trkpt lat="42.739658" lon="0.328526">
        <ele>1800.2</ele>
        <time>2014-08-24T19:40:40Z</time>
      </trkpt>
      <trkpt lat="42.739595" lon="0.328403">
        <ele>1796.5</ele>
        <time>2014-08-24T19:41:02Z</time>
      </trkpt>
      <trkpt lat="42.739520" lon="0.328322">
        <ele>1793.9</ele>
        <time>2014-08-24T19:41:15Z</time>
      </trkpt>
      <trkpt lat="42.739465" lon="0.328251">
        <ele>1790.9</ele>
        <time>2014-08-24T19:41:30Z</time>
      </trkpt>
      <trkpt lat="42.739386" lon="0.328194">
        <ele>1787.2</ele>
        <time>2014-08-24T19:41:45Z</time>
      </trkpt>
      <trkpt lat="42.739309" lon="0.328123">
        <ele>1783.5</ele>
        <time>2014-08-24T19:42:02Z</time>
      </trkpt>
      <trkpt lat="42.739229" lon="0.328008">
        <ele>1780.6</ele>
        <time>2014-08-24T19:42:15Z</time>
      </trkpt>
      <trkpt lat="42.739131" lon="0.327918">
        <ele>1777.6</ele>
        <time>2014-08-24T19:42:28Z</time>
      </trkpt>
      <trkpt lat="42.739062" lon="0.327833">
        <ele>1774.2</ele>
        <time>2014-08-24T19:42:45Z</time>
      </trkpt>
      <trkpt lat="42.739059" lon="0.327703">
        <ele>1770.8</ele>
        <time>2014-08-24T19:43:05Z</time>
      </trkpt>
      <trkpt lat="42.738989" lon="0.327615">
        <ele>1768.6</ele>
        <time>2014-08-24T19:43:15Z</time>
      </trkpt>
      <trkpt lat="42.738934" lon="0.327505">
        <ele>1765.8</ele>
        <time>2014-08-24T19:43:26Z</time>
      </trkpt>
      <trkpt lat="42.738878" lon="0.327433">
        <ele>1763.1</ele>
        <time>2014-08-24T19:43:41Z</time>
      </trkpt>
      <trkpt lat="42.738843" lon="0.327419">
        <ele>1761.7</ele>
        <time>2014-08-24T19:44:01Z</time>
      </trkpt>
      <trkpt lat="42.738765" lon="0.327402">
        <ele>1759.1</ele>
        <time>2014-08-24T19:44:20Z</time>
      </trkpt>
      <trkpt lat="42.738674" lon="0.327324">
        <ele>1757.0</ele>
        <time>2014-08-24T19:44:34Z</time>
      </trkpt>
      <trkpt lat="42.738592" lon="0.327266">
        <ele>1754.9</ele>
        <time>2014-08-24T19:44:45Z</time>
      </trkpt>
      <trkpt lat="42.738516" lon="0.327138">
        <ele>1752.1</ele>
        <time>2014-08-24T19:45:01Z</time>
      </trkpt>
      <trkpt lat="42.738479" lon="0.327015">
        <ele>1748.2</ele>
        <time>2014-08-24T19:45:22Z</time>
      </trkpt>
      <trkpt lat="42.738415" lon="0.326895">
        <ele>1744.4</ele>
        <time>2014-08-24T19:45:40Z</time>
      </trkpt>
      <trkpt lat="42.738376" lon="0.326807">
        <ele>1741.3</ele>
        <time>2014-08-24T19:45:54Z</time>
      </trkpt>
      <trkpt lat="42.738273" lon="0.326783">
        <ele>1737.2</ele>
        <time>2014-08-24T19:46:13Z</time>
      </trkpt>
      <trkpt lat="42.738190" lon="0.326673">
        <ele>1734.8</ele>
        <time>2014-08-24T19:46:28Z</time>
      </trkpt>
      <trkpt lat="42.738120" lon="0.326619">
        <ele>1732.6</ele>
        <time>2014-08-24T19:46:38Z</time>
      </trkpt>
      <trkpt lat="42.738053" lon="0.326534">
        <ele>1730.5</ele>
        <time>2014-08-24T19:46:48Z</time>
      </trkpt>
      <trkpt lat="42.737989" lon="0.326398">
        <ele>1727.3</ele>
        <time>2014-08-24T19:47:05Z</time>
      </trkpt>
      <trkpt lat="42.737896" lon="0.326344">
        <ele>1724.5</ele>
        <time>2014-08-24T19:47:19Z</time>
      </trkpt>
      <trkpt lat="42.737806" lon="0.326282">
        <ele>1721.9</ele>
        <time>2014-08-24T19:47:33Z</time>
      </trkpt>
      <trkpt lat="42.737723" lon="0.326170">
        <ele>1718.7</ele>
        <time>2014-08-24T19:47:48Z</time>
      </trkpt>
      <trkpt lat="42.737644" lon="0.326145">
        <ele>1715.1</ele>
        <time>2014-08-24T19:48:04Z</time>
      </trkpt>
      <trkpt lat="42.737569" lon="0.325996">
        <ele>1712.1</ele>
        <time>2014-08-24T19:48:19Z</time>
      </trkpt>
      <trkpt lat="42.737488" lon="0.325913">
        <ele>1709.0</ele>
        <time>2014-08-24T19:48:33Z</time>
      </trkpt>
      <trkpt lat="42.737391" lon="0.325822">
        <ele>1706.7</ele>
        <time>2014-08-24T19:48:46Z</time>
      </trkpt>
      <trkpt lat="42.737307" lon="0.325745">
        <ele>1704.0</ele>
        <time>2014-08-24T19:48:57Z</time>
      </trkpt>
      <trkpt lat="42.737245" lon="0.325672">
        <ele>1701.7</ele>
        <time>2014-08-24T19:49:08Z</time>
      </trkpt>
      <trkpt lat="42.737157" lon="0.325608">
        <ele>1698.7</ele>
        <time>2014-08-24T19:49:20Z</time>
      </trkpt>
      <trkpt lat="42.737105" lon="0.325561">
        <ele>1695.5</ele>
        <time>2014-08-24T19:49:34Z</time>
      </trkpt>
      <trkpt lat="42.737104" lon="0.325556">
        <ele>1694.8</ele>
        <time>2014-08-24T19:50:04Z</time>
      </trkpt>
      <trkpt lat="42.737025" lon="0.325422">
        <ele>1693.3</ele>
        <time>2014-08-24T19:50:17Z</time>
      </trkpt>
      <trkpt lat="42.736924" lon="0.325360">
        <ele>1690.7</ele>
        <time>2014-08-24T19:50:30Z</time>
      </trkpt>
      <trkpt lat="42.736836" lon="0.325309">
        <ele>1688.2</ele>
        <time>2014-08-24T19:50:40Z</time>
      </trkpt>
      <trkpt lat="42.736739" lon="0.325284">
        <ele>1685.2</ele>
        <time>2014-08-24T19:50:54Z</time>
      </trkpt>
      <trkpt lat="42.736641" lon="0.325222">
        <ele>1682.6</ele>
        <time>2014-08-24T19:51:07Z</time>
      </trkpt>
      <trkpt lat="42.736555" lon="0.325163">
        <ele>1679.8</ele>
        <time>2014-08-24T19:51:20Z</time>
      </trkpt>
      <trkpt lat="42.736484" lon="0.325054">
        <ele>1677.3</ele>
        <time>2014-08-24T19:51:32Z</time>
      </trkpt>
      <trkpt lat="42.736408" lon="0.325023">
        <ele>1674.6</ele>
        <time>2014-08-24T19:51:46Z</time>
      </trkpt>
      <trkpt lat="42.736316" lon="0.324949">
        <ele>1671.7</ele>
        <time>2014-08-24T19:52:02Z</time>
      </trkpt>
      <trkpt lat="42.736225" lon="0.324901">
        <ele>1669.1</ele>
        <time>2014-08-24T19:52:18Z</time>
      </trkpt>
      <trkpt lat="42.736098" lon="0.324900">
        <ele>1666.5</ele>
        <time>2014-08-24T19:52:35Z</time>
      </trkpt>
      <trkpt lat="42.736010" lon="0.324830">
        <ele>1663.5</ele>
        <time>2014-08-24T19:52:53Z</time>
      </trkpt>
      <trkpt lat="42.735912" lon="0.324699">
        <ele>1661.6</ele>
        <time>2014-08-24T19:53:07Z</time>
      </trkpt>
      <trkpt lat="42.735822" lon="0.324629">
        <ele>1659.4</ele>
        <time>2014-08-24T19:53:21Z</time>
      </trkpt>
      <trkpt lat="42.735733" lon="0.324572">
        <ele>1656.6</ele>
        <time>2014-08-24T19:53:36Z</time>
      </trkpt>
      <trkpt lat="42.735643" lon="0.324514">
        <ele>1652.8</ele>
        <time>2014-08-24T19:53:56Z</time>
      </trkpt>
      <trkpt lat="42.735559" lon="0.324416">
        <ele>1649.6</ele>
        <time>2014-08-24T19:54:13Z</time>
      </trkpt>
      <trkpt lat="42.735454" lon="0.324356">
        <ele>1647.4</ele>
        <time>2014-08-24T19:54:29Z</time>
      </trkpt>
      <trkpt lat="42.735365" lon="0.324257">
        <ele>1644.5</ele>
        <time>2014-08-24T19:54:49Z</time>
      </trkpt>
      <trkpt lat="42.735242" lon="0.324203">
        <ele>1642.4</ele>
        <time>2014-08-24T19:55:08Z</time>
      </trkpt>
      <trkpt lat="42.735127" lon="0.324178">
        <ele>1639.8</ele>
        <time>2014-08-24T19:55:23Z</time>
      </trkpt>
      <trkpt lat="42.735030" lon="0.324087">
        <ele>1636.9</ele>
        <time>2014-08-24T19:55:38Z</time>
      </trkpt>
      <trkpt lat="42.734922" lon="0.324045">
        <ele>1634.8</ele>
        <time>2014-08-24T19:55:50Z</time>
      </trkpt>
      <trkpt lat="42.734842" lon="0.324002">
        <ele>1632.5</ele>
        <time>2014-08-24T19:56:02Z</time>
      </trkpt>
      <trkpt lat="42.734731" lon="0.323938">
        <ele>1628.9</ele>
        <time>2014-08-24T19:56:19Z</time>
      </trkpt>
      <trkpt lat="42.734629" lon="0.323866">
        <ele>1625.6</ele>
        <time>2014-08-24T19:56:35Z</time>
      </trkpt>
      <trkpt lat="42.734521" lon="0.323837">
        <ele>1623.4</ele>
        <time>2014-08-24T19:56:46Z</time>
      </trkpt>
      <trkpt lat="42.734419" lon="0.323819">
        <ele>1620.9</ele>
        <time>2014-08-24T19:56:57Z</time>
      </trkpt>
      <trkpt lat="42.734353" lon="0.323795">
        <ele>1617.9</ele>
        <time>2014-08-24T19:57:14Z</time>
      </trkpt>
      <trkpt lat="42.734361" lon="0.323799">
        <ele>1617.4</ele>
        <time>2014-08-24T19:57:54Z</time>
      </trkpt>
      <trkpt lat="42.734270" lon="0.323764">
        <ele>1616.4</ele>
        <time>2014-08-24T19:58:13Z</time>
      </trkpt>
      <trkpt lat="42.734183" lon="0.323715">
        <ele>1614.6</ele>
        <time>2014-08-24T19:58:23Z</time>
      </trkpt>
      <trkpt lat="42.734085" lon="0.323712">
        <ele>1611.8</ele>
        <time>2014-08-24T19:58:36Z</time>
      </trkpt>
      <trkpt lat="42.733975" lon="0.323692">
        <ele>1609.6</ele>
        <time>2014-08-24T19:58:48Z</time>
      </trkpt>
      <trkpt lat="42.733878" lon="0.323655">
        <ele>1607.2</ele>
        <time>2014-08-24T19:59:04Z</time>
      </trkpt>
      <trkpt lat="42.733778" lon="0.323598">
        <ele>1604.9</ele>
        <time>2014-08-24T19:59:19Z</time>
      </trkpt>
      <trkpt lat="42.733699" lon="0.323562">
        <ele>1602.3</ele>
        <time>2014-08-24T19:59:33Z</time>
      </trkpt>
      <trkpt lat="42.733598" lon="0.323483">
        <ele>1600.2</ele>
        <time>2014-08-24T19:59:44Z</time>
      </trkpt>
      <trkpt lat="42.732819" lon="0.323013">
        <ele>1578.3</ele>
        <time>2014-08-24T20:02:34Z</time>
      </trkpt>
      <trkpt lat="42.732812" lon="0.322963">
        <ele>1577.3</ele>
        <time>2014-08-24T20:02:55Z</time>
      </trkpt>
      <trkpt lat="42.732738" lon="0.322889">
        <ele>1575.3</ele>
        <time>2014-08-24T20:03:08Z</time>
      </trkpt>
      <trkpt lat="42.732652" lon="0.322887">
        <ele>1573.1</ele>
        <time>2014-08-24T20:03:21Z</time>
      </trkpt>
      <trkpt lat="42.732594" lon="0.322810">
        <ele>1571.8</ele>
        <time>2014-08-24T20:03:35Z</time>
      </trkpt>
      <trkpt lat="42.732536" lon="0.322758">
        <ele>1570.3</ele>
        <time>2014-08-24T20:03:54Z</time>
      </trkpt>
      <trkpt lat="42.732422" lon="0.322709">
        <ele>1568.3</ele>
        <time>2014-08-24T20:04:09Z</time>
      </trkpt>
      <trkpt lat="42.732418" lon="0.322583">
        <ele>1564.9</ele>
        <time>2014-08-24T20:04:26Z</time>
      </trkpt>
      <trkpt lat="42.732546" lon="0.322531">
        <ele>1561.0</ele>
        <time>2014-08-24T20:04:41Z</time>
      </trkpt>
      <trkpt lat="42.732631" lon="0.322474">
        <ele>1557.7</ele>
        <time>2014-08-24T20:04:53Z</time>
      </trkpt>
      <trkpt lat="42.732725" lon="0.322465">
        <ele>1554.7</ele>
        <time>2014-08-24T20:05:04Z</time>
      </trkpt>
      <trkpt lat="42.732681" lon="0.322304">
        <ele>1549.1</ele>
        <time>2014-08-24T20:05:40Z</time>
      </trkpt>
      <trkpt lat="42.732687" lon="0.322110">
        <ele>1541.6</ele>
        <time>2014-08-24T20:08:44Z</time>
      </trkpt>
      <trkpt lat="42.732647" lon="0.322017">
        <ele>1540.9</ele>
        <time>2014-08-24T20:09:00Z</time>
      </trkpt>
      <trkpt lat="42.732575" lon="0.321967">
        <ele>1539.5</ele>
        <time>2014-08-24T20:09:30Z</time>
      </trkpt>
      <trkpt lat="42.732554" lon="0.321857">
        <ele>1537.5</ele>
        <time>2014-08-24T20:09:40Z</time>
      </trkpt>
      <trkpt lat="42.732564" lon="0.321739">
        <ele>1536.3</ele>
        <time>2014-08-24T20:09:52Z</time>
      </trkpt>
      <trkpt lat="42.732606" lon="0.321614">
        <ele>1535.3</ele>
        <time>2014-08-24T20:10:05Z</time>
      </trkpt>
      <trkpt lat="42.732651" lon="0.321456">
        <ele>1533.8</ele>
        <time>2014-08-24T20:10:19Z</time>
      </trkpt>
      <trkpt lat="42.732712" lon="0.321321">
        <ele>1532.3</ele>
        <time>2014-08-24T20:10:33Z</time>
      </trkpt>
      <trkpt lat="42.732759" lon="0.321169">
        <ele>1530.3</ele>
        <time>2014-08-24T20:10:47Z</time>
      </trkpt>
      <trkpt lat="42.732810" lon="0.321098">
        <ele>1528.9</ele>
        <time>2014-08-24T20:11:16Z</time>
      </trkpt>
      <trkpt lat="42.732882" lon="0.320978">
        <ele>1527.7</ele>
        <time>2014-08-24T20:11:30Z</time>
      </trkpt>
      <trkpt lat="42.732926" lon="0.320866">
        <ele>1527.1</ele>
        <time>2014-08-24T20:11:51Z</time>
      </trkpt>
      <trkpt lat="42.732915" lon="0.320774">
        <ele>1524.4</ele>
        <time>2014-08-24T20:12:11Z</time>
      </trkpt>
      <trkpt lat="42.732944" lon="0.320694">
        <ele>1523.2</ele>
        <time>2014-08-24T20:12:26Z</time>
      </trkpt>
      <trkpt lat="42.732938" lon="0.320587">
        <ele>1522.6</ele>
        <time>2014-08-24T20:12:50Z</time>
      </trkpt>
      <trkpt lat="42.732935" lon="0.320443">
        <ele>1522.2</ele>
        <time>2014-08-24T20:13:05Z</time>
      </trkpt>
      <trkpt lat="42.732954" lon="0.320321">
        <ele>1521.7</ele>
        <time>2014-08-24T20:13:19Z</time>
      </trkpt>
      <trkpt lat="42.732938" lon="0.320147">
        <ele>1521.2</ele>
        <time>2014-08-24T20:13:33Z</time>
      </trkpt>
      <trkpt lat="42.732969" lon="0.319978">
        <ele>1520.9</ele>
        <time>2014-08-24T20:13:43Z</time>
      </trkpt>
      <trkpt lat="42.732969" lon="0.319777">
        <ele>1520.3</ele>
        <time>2014-08-24T20:13:52Z</time>
      </trkpt>
      <trkpt lat="42.733005" lon="0.319644">
        <ele>1519.7</ele>
        <time>2014-08-24T20:14:02Z</time>
      </trkpt>
      <trkpt lat="42.733045" lon="0.319545">
        <ele>1519.0</ele>
        <time>2014-08-24T20:14:12Z</time>
      </trkpt>
      <trkpt lat="42.733100" lon="0.319423">
        <ele>1518.8</ele>
        <time>2014-08-24T20:14:22Z</time>
      </trkpt>
      <trkpt lat="42.733142" lon="0.319297">
        <ele>1518.4</ele>
        <time>2014-08-24T20:14:31Z</time>
      </trkpt>
      <trkpt lat="42.733224" lon="0.319181">
        <ele>1518.0</ele>
        <time>2014-08-24T20:14:41Z</time>
      </trkpt>
      <trkpt lat="42.733295" lon="0.319069">
        <ele>1517.6</ele>
        <time>2014-08-24T20:14:50Z</time>
      </trkpt>
      <trkpt lat="42.733361" lon="0.318917">
        <ele>1516.8</ele>
        <time>2014-08-24T20:14:59Z</time>
      </trkpt>
      <trkpt lat="42.733418" lon="0.318813">
        <ele>1516.4</ele>
        <time>2014-08-24T20:15:07Z</time>
      </trkpt>
      <trkpt lat="42.733468" lon="0.318694">
        <ele>1515.9</ele>
        <time>2014-08-24T20:15:16Z</time>
      </trkpt>
      <trkpt lat="42.733530" lon="0.318537">
        <ele>1515.6</ele>
        <time>2014-08-24T20:15:26Z</time>
      </trkpt>
      <trkpt lat="42.733579" lon="0.318406">
        <ele>1514.8</ele>
        <time>2014-08-24T20:15:34Z</time>
      </trkpt>
      <trkpt lat="42.733614" lon="0.318275">
        <ele>1514.7</ele>
        <time>2014-08-24T20:15:43Z</time>
      </trkpt>
      <trkpt lat="42.733624" lon="0.318153">
        <ele>1514.7</ele>
        <time>2014-08-24T20:15:51Z</time>
      </trkpt>
      <trkpt lat="42.733615" lon="0.318053">
        <ele>1514.4</ele>
        <time>2014-08-24T20:15:59Z</time>
      </trkpt>
      <trkpt lat="42.733602" lon="0.317916">
        <ele>1514.3</ele>
        <time>2014-08-24T20:16:09Z</time>
      </trkpt>
      <trkpt lat="42.733613" lon="0.317769">
        <ele>1514.0</ele>
        <time>2014-08-24T20:16:18Z</time>
      </trkpt>
      <trkpt lat="42.733646" lon="0.317605">
        <ele>1513.3</ele>
        <time>2014-08-24T20:16:28Z</time>
      </trkpt>
      <trkpt lat="42.733680" lon="0.317463">
        <ele>1512.6</ele>
        <time>2014-08-24T20:16:38Z</time>
      </trkpt>
      <trkpt lat="42.733705" lon="0.317298">
        <ele>1511.8</ele>
        <time>2014-08-24T20:16:49Z</time>
      </trkpt>
      <trkpt lat="42.733724" lon="0.317119">
        <ele>1511.4</ele>
        <time>2014-08-24T20:16:59Z</time>
      </trkpt>
      <trkpt lat="42.733743" lon="0.316954">
        <ele>1510.6</ele>
        <time>2014-08-24T20:17:08Z</time>
      </trkpt>
      <trkpt lat="42.733752" lon="0.316814">
        <ele>1509.8</ele>
        <time>2014-08-24T20:17:17Z</time>
      </trkpt>
      <trkpt lat="42.733768" lon="0.316651">
        <ele>1509.4</ele>
        <time>2014-08-24T20:17:26Z</time>
      </trkpt>
      <trkpt lat="42.733813" lon="0.316530">
        <ele>1508.7</ele>
        <time>2014-08-24T20:17:35Z</time>
      </trkpt>
      <trkpt lat="42.733881" lon="0.316444">
        <ele>1507.9</ele>
        <time>2014-08-24T20:17:44Z</time>
      </trkpt>
      <trkpt lat="42.733955" lon="0.316330">
        <ele>1507.2</ele>
        <time>2014-08-24T20:17:53Z</time>
      </trkpt>
      <trkpt lat="42.734005" lon="0.316211">
        <ele>1506.4</ele>
        <time>2014-08-24T20:18:03Z</time>
      </trkpt>
      <trkpt lat="42.734048" lon="0.316087">
        <ele>1505.8</ele>
        <time>2014-08-24T20:18:12Z</time>
      </trkpt>
      <trkpt lat="42.734050" lon="0.315871">
        <ele>1504.9</ele>
        <time>2014-08-24T20:18:23Z</time>
      </trkpt>
      <trkpt lat="42.734048" lon="0.315705">
        <ele>1504.0</ele>
        <time>2014-08-24T20:18:33Z</time>
      </trkpt>
      <trkpt lat="42.734074" lon="0.315563">
        <ele>1503.4</ele>
        <time>2014-08-24T20:18:42Z</time>
      </trkpt>
      <trkpt lat="42.734126" lon="0.315411">
        <ele>1502.4</ele>
        <time>2014-08-24T20:18:52Z</time>
      </trkpt>
      <trkpt lat="42.734176" lon="0.315284">
        <ele>1501.3</ele>
        <time>2014-08-24T20:19:02Z</time>
      </trkpt>
      <trkpt lat="42.734224" lon="0.315147">
        <ele>1500.2</ele>
        <time>2014-08-24T20:19:12Z</time>
      </trkpt>
      <trkpt lat="42.734272" lon="0.314984">
        <ele>1499.4</ele>
        <time>2014-08-24T20:19:22Z</time>
      </trkpt>
      <trkpt lat="42.734316" lon="0.314869">
        <ele>1499.2</ele>
        <time>2014-08-24T20:19:33Z</time>
      </trkpt>
      <trkpt lat="42.734364" lon="0.314690">
        <ele>1498.6</ele>
        <time>2014-08-24T20:19:44Z</time>
      </trkpt>
      <trkpt lat="42.734395" lon="0.314551">
        <ele>1497.5</ele>
        <time>2014-08-24T20:19:54Z</time>
      </trkpt>
      <trkpt lat="42.734424" lon="0.314393">
        <ele>1496.7</ele>
        <time>2014-08-24T20:20:03Z</time>
      </trkpt>
      <trkpt lat="42.734475" lon="0.314278">
        <ele>1495.9</ele>
        <time>2014-08-24T20:20:12Z</time>
      </trkpt>
      <trkpt lat="42.734520" lon="0.314142">
        <ele>1495.0</ele>
        <time>2014-08-24T20:20:21Z</time>
      </trkpt>
      <trkpt lat="42.734574" lon="0.313990">
        <ele>1494.1</ele>
        <time>2014-08-24T20:20:30Z</time>
      </trkpt>
      <trkpt lat="42.734616" lon="0.313828">
        <ele>1493.4</ele>
        <time>2014-08-24T20:20:40Z</time>
      </trkpt>
      <trkpt lat="42.734653" lon="0.313681">
        <ele>1492.4</ele>
        <time>2014-08-24T20:20:50Z</time>
      </trkpt>
      <trkpt lat="42.734681" lon="0.313520">
        <ele>1491.4</ele>
        <time>2014-08-24T20:20:59Z</time>
      </trkpt>
      <trkpt lat="42.734692" lon="0.313367">
        <ele>1490.5</ele>
        <time>2014-08-24T20:21:09Z</time>
      </trkpt>
      <trkpt lat="42.734721" lon="0.313223">
        <ele>1489.7</ele>
        <time>2014-08-24T20:21:18Z</time>
      </trkpt>
      <trkpt lat="42.734751" lon="0.313067">
        <ele>1488.8</ele>
        <time>2014-08-24T20:21:28Z</time>
      </trkpt>
      <trkpt lat="42.734760" lon="0.312933">
        <ele>1487.9</ele>
        <time>2014-08-24T20:21:39Z</time>
      </trkpt>
      <trkpt lat="42.734751" lon="0.312761">
        <ele>1486.2</ele>
        <time>2014-08-24T20:21:51Z</time>
      </trkpt>
      <trkpt lat="42.734761" lon="0.312595">
        <ele>1485.1</ele>
        <time>2014-08-24T20:22:01Z</time>
      </trkpt>
      <trkpt lat="42.734735" lon="0.312431">
        <ele>1483.4</ele>
        <time>2014-08-24T20:22:12Z</time>
      </trkpt>
      <trkpt lat="42.734720" lon="0.312282">
        <ele>1482.2</ele>
        <time>2014-08-24T20:22:22Z</time>
      </trkpt>
      <trkpt lat="42.734714" lon="0.312125">
        <ele>1480.9</ele>
        <time>2014-08-24T20:22:32Z</time>
      </trkpt>
      <trkpt lat="42.734679" lon="0.311955">
        <ele>1479.1</ele>
        <time>2014-08-24T20:22:43Z</time>
      </trkpt>
      <trkpt lat="42.734661" lon="0.311813">
        <ele>1477.5</ele>
        <time>2014-08-24T20:22:52Z</time>
      </trkpt>
      <trkpt lat="42.734645" lon="0.311661">
        <ele>1476.1</ele>
        <time>2014-08-24T20:23:01Z</time>
      </trkpt>
      <trkpt lat="42.734661" lon="0.311496">
        <ele>1474.8</ele>
        <time>2014-08-24T20:23:11Z</time>
      </trkpt>
      <trkpt lat="42.734686" lon="0.311363">
        <ele>1473.3</ele>
        <time>2014-08-24T20:23:22Z</time>
      </trkpt>
      <trkpt lat="42.734789" lon="0.311292">
        <ele>1470.8</ele>
        <time>2014-08-24T20:23:35Z</time>
      </trkpt>
      <trkpt lat="42.734919" lon="0.311257">
        <ele>1469.2</ele>
        <time>2014-08-24T20:23:45Z</time>
      </trkpt>
      <trkpt lat="42.735025" lon="0.311201">
        <ele>1468.0</ele>
        <time>2014-08-24T20:23:54Z</time>
      </trkpt>
      <trkpt lat="42.735159" lon="0.311159">
        <ele>1466.3</ele>
        <time>2014-08-24T20:24:05Z</time>
      </trkpt>
      <trkpt lat="42.735257" lon="0.311103">
        <ele>1464.7</ele>
        <time>2014-08-24T20:24:16Z</time>
      </trkpt>
      <trkpt lat="42.735354" lon="0.311041">
        <ele>1462.9</ele>
        <time>2014-08-24T20:24:26Z</time>
      </trkpt>
      <trkpt lat="42.735461" lon="0.310985">
        <ele>1461.3</ele>
        <time>2014-08-24T20:24:37Z</time>
      </trkpt>
      <trkpt lat="42.735557" lon="0.310911">
        <ele>1459.4</ele>
        <time>2014-08-24T20:24:48Z</time>
      </trkpt>
      <trkpt lat="42.735657" lon="0.310866">
        <ele>1457.9</ele>
        <time>2014-08-24T20:24:58Z</time>
      </trkpt>
      <trkpt lat="42.735754" lon="0.310782">
        <ele>1456.2</ele>
        <time>2014-08-24T20:25:09Z</time>
      </trkpt>
      <trkpt lat="42.735861" lon="0.310732">
        <ele>1454.5</ele>
        <time>2014-08-24T20:25:19Z</time>
      </trkpt>
      <trkpt lat="42.735949" lon="0.310666">
        <ele>1452.9</ele>
        <time>2014-08-24T20:25:29Z</time>
      </trkpt>
      <trkpt lat="42.736045" lon="0.310589">
        <ele>1451.0</ele>
        <time>2014-08-24T20:25:40Z</time>
      </trkpt>
      <trkpt lat="42.736161" lon="0.310502">
        <ele>1449.8</ele>
        <time>2014-08-24T20:25:49Z</time>
      </trkpt>
      <trkpt lat="42.736265" lon="0.310452">
        <ele>1448.4</ele>
        <time>2014-08-24T20:25:58Z</time>
      </trkpt>
      <trkpt lat="42.736356" lon="0.310384">
        <ele>1446.8</ele>
        <time>2014-08-24T20:26:07Z</time>
      </trkpt>
      <trkpt lat="42.736442" lon="0.310338">
        <ele>1445.6</ele>
        <time>2014-08-24T20:26:15Z</time>
      </trkpt>
      <trkpt lat="42.736541" lon="0.310267">
        <ele>1444.1</ele>
        <time>2014-08-24T20:26:23Z</time>
      </trkpt>
      <trkpt lat="42.736637" lon="0.310199">
        <ele>1442.9</ele>
        <time>2014-08-24T20:26:32Z</time>
      </trkpt>
      <trkpt lat="42.736737" lon="0.310142">
        <ele>1441.7</ele>
        <time>2014-08-24T20:26:41Z</time>
      </trkpt>
      <trkpt lat="42.736829" lon="0.310039">
        <ele>1440.4</ele>
        <time>2014-08-24T20:26:49Z</time>
      </trkpt>
      <trkpt lat="42.736923" lon="0.310001">
        <ele>1439.3</ele>
        <time>2014-08-24T20:26:57Z</time>
      </trkpt>
      <trkpt lat="42.737016" lon="0.309985">
        <ele>1438.1</ele>
        <time>2014-08-24T20:27:06Z</time>
      </trkpt>
      <trkpt lat="42.737111" lon="0.309974">
        <ele>1437.0</ele>
        <time>2014-08-24T20:27:15Z</time>
      </trkpt>
      <trkpt lat="42.737195" lon="0.309874">
        <ele>1435.7</ele>
        <time>2014-08-24T20:27:24Z</time>
      </trkpt>
      <trkpt lat="42.737287" lon="0.309800">
        <ele>1434.4</ele>
        <time>2014-08-24T20:27:32Z</time>
      </trkpt>
      <trkpt lat="42.737383" lon="0.309784">
        <ele>1433.1</ele>
        <time>2014-08-24T20:27:42Z</time>
      </trkpt>
      <trkpt lat="42.737476" lon="0.309749">
        <ele>1431.7</ele>
        <time>2014-08-24T20:27:59Z</time>
      </trkpt>
      <trkpt lat="42.737560" lon="0.309686">
        <ele>1430.7</ele>
        <time>2014-08-24T20:28:07Z</time>
      </trkpt>
      <trkpt lat="42.737625" lon="0.309613">
        <ele>1429.6</ele>
        <time>2014-08-24T20:28:17Z</time>
      </trkpt>
      <trkpt lat="42.737727" lon="0.309563">
        <ele>1428.2</ele>
        <time>2014-08-24T20:28:27Z</time>
      </trkpt>
      <trkpt lat="42.737820" lon="0.309522">
        <ele>1426.6</ele>
        <time>2014-08-24T20:28:37Z</time>
      </trkpt>
      <trkpt lat="42.737930" lon="0.309498">
        <ele>1425.3</ele>
        <time>2014-08-24T20:28:47Z</time>
      </trkpt>
      <trkpt lat="42.738053" lon="0.309537">
        <ele>1424.2</ele>
        <time>2014-08-24T20:28:56Z</time>
      </trkpt>
      <trkpt lat="42.738160" lon="0.309541">
        <ele>1422.8</ele>
        <time>2014-08-24T20:29:05Z</time>
      </trkpt>
      <trkpt lat="42.738285" lon="0.309548">
        <ele>1421.2</ele>
        <time>2014-08-24T20:29:16Z</time>
      </trkpt>
      <trkpt lat="42.738393" lon="0.309545">
        <ele>1419.7</ele>
        <time>2014-08-24T20:29:26Z</time>
      </trkpt>
      <trkpt lat="42.738492" lon="0.309481">
        <ele>1417.9</ele>
        <time>2014-08-24T20:29:37Z</time>
      </trkpt>
      <trkpt lat="42.738604" lon="0.309471">
        <ele>1416.7</ele>
        <time>2014-08-24T20:29:46Z</time>
      </trkpt>
      <trkpt lat="42.738713" lon="0.309418">
        <ele>1415.5</ele>
        <time>2014-08-24T20:29:55Z</time>
      </trkpt>
      <trkpt lat="42.738818" lon="0.309319">
        <ele>1414.2</ele>
        <time>2014-08-24T20:30:04Z</time>
      </trkpt>
      <trkpt lat="42.738940" lon="0.309229">
        <ele>1412.5</ele>
        <time>2014-08-24T20:30:14Z</time>
      </trkpt>
      <trkpt lat="42.739018" lon="0.309149">
        <ele>1411.7</ele>
        <time>2014-08-24T20:30:22Z</time>
      </trkpt>
      <trkpt lat="42.739117" lon="0.309068">
        <ele>1410.5</ele>
        <time>2014-08-24T20:30:29Z</time>
      </trkpt>
      <trkpt lat="42.739227" lon="0.308995">
        <ele>1409.5</ele>
        <time>2014-08-24T20:30:38Z</time>
      </trkpt>
      <trkpt lat="42.739318" lon="0.308922">
        <ele>1408.9</ele>
        <time>2014-08-24T20:30:46Z</time>
      </trkpt>
      <trkpt lat="42.739401" lon="0.308883">
        <ele>1408.4</ele>
        <time>2014-08-24T20:30:55Z</time>
      </trkpt>
      <trkpt lat="42.739490" lon="0.308862">
        <ele>1408.2</ele>
        <time>2014-08-24T20:31:03Z</time>
      </trkpt>
      <trkpt lat="42.739575" lon="0.308821">
        <ele>1407.6</ele>
        <time>2014-08-24T20:31:12Z</time>
      </trkpt>
      <trkpt lat="42.739683" lon="0.308785">
        <ele>1407.5</ele>
        <time>2014-08-24T20:31:23Z</time>
      </trkpt>
      <trkpt lat="42.739799" lon="0.308744">
        <ele>1407.3</ele>
        <time>2014-08-24T20:31:31Z</time>
      </trkpt>
      <trkpt lat="42.739895" lon="0.308672">
        <ele>1407.6</ele>
        <time>2014-08-24T20:31:40Z</time>
      </trkpt>
      <trkpt lat="42.739995" lon="0.308610">
        <ele>1407.5</ele>
        <time>2014-08-24T20:31:49Z</time>
      </trkpt>
      <trkpt lat="42.740081" lon="0.308534">
        <ele>1407.8</ele>
        <time>2014-08-24T20:31:56Z</time>
      </trkpt>
      <trkpt lat="42.740133" lon="0.308377">
        <ele>1408.0</ele>
        <time>2014-08-24T20:32:05Z</time>
      </trkpt>
      <trkpt lat="42.740189" lon="0.308240">
        <ele>1407.8</ele>
        <time>2014-08-24T20:32:15Z</time>
      </trkpt>
      <trkpt lat="42.740258" lon="0.308141">
        <ele>1407.9</ele>
        <time>2014-08-24T20:32:24Z</time>
      </trkpt>
      <trkpt lat="42.740349" lon="0.308085">
        <ele>1407.8</ele>
        <time>2014-08-24T20:32:34Z</time>
      </trkpt>
      <trkpt lat="42.740434" lon="0.308030">
        <ele>1407.6</ele>
        <time>2014-08-24T20:32:41Z</time>
      </trkpt>
      <trkpt lat="42.740472" lon="0.307912">
        <ele>1407.5</ele>
        <time>2014-08-24T20:33:02Z</time>
      </trkpt>
    </trkseg>
  </trk>
</gpx>

